[[{"header":{"parameterUnit":"m.s-1","parameterCategory":1,"la1":31.0,"la2":29.5877,"lo1":-88.7671,"lo2":-86.6584,"dy":0.0162,"dx":0.0185,"nx":115,"ny":88,"refTime":"2023-08-23T06:00:00:Z","depth":0,"parameterNumber":2,"parameterNumberName":"U-component_of_WINDS"},"data":[0.0,0.0,0.0,0.0,0.0,0.0,0.0,0.0,0.0,0.0,0.0,0.0,0.0,0.0,0.0,0.0,0.0,0.0,0.0,0.0,0.0,0.0,0.0,0.0,0.0,0.0,0.0,0.0,0.0,0.0,0.0,0.0,0.0,0.0,0.0,0.0,0.0,0.0,0.0,0.0,0.0,0.0,0.0,0.0,0.0,0.0,0.0,0.0,0.0,0.0,0.0,0.0,0.0,0.0,0.0,0.0,0.0,0.0,0.0,0.0,0.0,0.0,0.0,0.0,0.0,0.0,0.0,0.0,0.0,0.0,0.0,0.0,0.0,0.0,0.0,0.0,0.0,0.0,0.0,0.0,0.0,0.0,0.0,0.0,0.0,0.0,0.0,0.0,0.0,0.0,0.0,0.0,0.0,0.0,0.0,0.0,0.0,0.0,0.0,0.0,0.0,0.0,0.0,0.0,0.0,0.0,0.0,0.0,0.0,0.0,0.0,0.0,0.0,0.0,0.0,0.0,0.0,0.0,0.0,0.0,0.0,0.0,0.0,0.0,0.0,0.0,0.0,0.0,0.0,0.0,0.0,0.0,0.0,0.0,0.0,0.0,0.0,0.0,0.0,0.0,0.0,0.0,0.0,0.0,0.0,0.0,0.0,0.0,0.0,0.0,0.0,0.0,0.0,0.0,0.0,0.0,0.0,0.0,0.0,0.0,0.0,0.0,0.0,0.0,0.0,0.0,0.0,0.0,0.0,0.0,0.0,0.0,0.0,0.0,0.0,0.0,0.0,0.0,0.0,0.0,0.0,0.0,0.0,0.0,0.0,0.0,0.0,0.0,0.0,0.0,0.0,0.0,0.0,0.0,0.0,0.0,0.0,0.0,0.0,0.0,0.0,0.0,0.0,0.0,0.0,0.0,0.0,0.0,0.0,0.0,0.0,0.0,0.0,0.0,0.0,0.0,0.0,0.0,0.0,0.0,0.0,0.0,0.0,0.0,0.0,0.0,0.0,0.0,0.0,0.0,0.0,0.0,0.0,0.0,0.0,0.0,0.0,0.0,0.0,0.0,0.0,0.0,0.0,0.0,0.0,0.0,0.0,0.0,0.0,0.0,0.0,0.0,0.0,0.0,0.0,0.0,0.0,0.0,0.0,0.0,0.0,0.0,0.0,0.0,0.0,0.0,0.0,0.0,0.0,0.0,0.0,0.0,0.0,0.0,0.0,0.0,0.0,0.0,0.0,0.0,0.0,0.0,0.0,0.0,0.0,0.0,0.0,0.0,0.0,0.0,0.0,0.0,0.0,0.0,0.0,0.0,0.0,0.0,0.0,0.0,0.0,0.0,0.0,0.0,0.0,0.0,0.0,0.0,0.0,0.0,0.0,0.0,0.0,0.0,0.0,0.0,0.0,0.0,0.0,0.0,0.0,0.0,0.0,0.0,0.0,0.0,0.0,0.0,0.0,0.0,0.0,0.0,0.0,0.0,0.0,0.0,0.0,0.0,0.0,0.0,0.0,0.0,0.0,0.0,0.0,0.0,0.0,0.0,0.0,0.0,0.0,0.0,0.0,0.0,0.0,0.0,0.0,0.0,0.0,0.0,0.0,0.0,0.0,0.0,0.0,0.0,0.0,0.0,0.0,0.0,0.0,0.0,0.0,0.0,0.0,0.0,0.0,0.0,0.0,0.0,0.0,0.0,0.0,0.0,0.0,0.0,0.0,0.0,0.0,0.0,0.0,0.0,0.0,0.0,0.0,0.0,0.0,0.0,0.0,0.0,0.0,0.0,0.0,0.0,0.0,0.0,0.0,0.0,0.0,0.0,0.0,0.0,0.0,0.0,0.0,0.0,0.0,0.0,0.0,0.0,0.0,0.0,0.0,0.0,0.0,0.0,0.0,0.0,0.0,0.0,0.0,0.0,0.0,0.0,0.0,0.0,0.0,0.0,0.0,0.0,0.0,0.0,0.0,0.0,0.0,0.0,0.0,0.0,0.0,0.0,0.0,0.0,0.0,0.0,0.0,0.0,0.0,0.0,0.0,0.0,0.0,0.0,0.0,0.0,0.0,0.0,0.0,0.0,0.0,0.0,0.0,0.0,0.0,0.0,0.0,0.0,0.0,0.0,0.0,0.0,0.0,0.0,0.0,0.0,0.0,0.0,0.0,0.0,0.0,0.0,0.0,0.0,0.0,0.0,0.0,0.0,0.0,0.0,0.0,0.0,0.0,0.0,0.0,0.0,0.0,0.0,0.0,0.0,0.0,0.0,0.0,0.0,0.0,0.0,0.0,0.0,0.0,0.0,0.0,0.0,0.0,0.0,0.0,0.0,0.0,0.0,0.0,0.0,0.0,0.0,0.0,0.0,0.0,0.0,0.0,0.0,0.0,0.0,0.0,0.0,0.0,0.0,0.0,0.0,0.0,0.0,0.0,0.0,0.0,0.0,0.0,0.0,0.0,0.0,0.0,0.0,0.0,0.0,0.0,0.0,0.0,0.0,0.0,0.0,0.0,0.0,0.0,0.0,0.0,0.0,0.0,0.0,0.0,0.0,0.0,0.0,0.0,0.0,0.0,0.0,0.0,0.0,0.0,0.0,0.0,0.0,0.0,0.0,0.0,0.0,0.0,0.0,0.0,0.0,0.0,0.0,0.0,0.0,0.0,0.0,0.0,0.0,0.0,0.0,0.0,0.0,0.0,0.0,0.0,0.0,0.0,0.0,0.0,0.0,0.0,0.0,0.0,0.0,0.0,0.0,0.0,0.0,0.0,0.0,0.0,0.0,0.0,0.0,0.0,0.0,0.0,0.0,0.0,0.0,0.0,0.0,0.0,0.0,0.0,0.0,0.0,0.0,0.0,0.0,0.0,0.0,0.0,0.0,0.0,0.0,0.0,0.0,0.0,0.0,0.0,0.0,0.0,0.0,0.0,0.0,0.0,0.0,0.0,0.0,0.0,0.0,0.0,0.0,0.0,0.0,0.0,0.0,0.0,0.0,0.0,0.0,0.0,0.0,0.0,0.0,0.0,0.0,0.0,0.0,0.0,0.0,0.0,0.0,0.0,0.0,0.0,0.0,0.0,0.0,0.0,0.0,0.0,0.0,0.0,0.0,0.0,0.0,0.0,0.0,0.0,0.0,0.0,0.0,0.0,0.0,0.0,0.0,0.0,0.0,0.0,0.0,0.0,0.0,0.0,0.0,0.0,0.0,0.0,0.0,0.0,0.0,0.0,0.0,0.0,0.0,0.0,0.0,0.0,0.0,0.0,0.0,0.0,0.0,0.0,0.0,0.0,0.0,0.0,0.0,0.0,0.0,0.0,0.0,0.0,0.0,0.0,0.0,0.0,0.0,0.0,0.0,0.0,0.0,0.0,0.0,0.0,0.0,0.0,0.0,0.0,0.0,0.0,0.0,0.0,0.0,0.0,0.0,0.0,0.0,0.0,0.0,0.0,0.0,0.0,0.0,0.0,0.0,0.0,0.0,0.0,0.0,0.0,0.0,0.0,0.0,0.0,0.0,0.0,0.0,0.0,0.0,0.0,0.0,0.0,0.0,0.0,0.0,0.0,0.0,0.0,0.0,0.0,0.0,0.0,0.0,0.0,0.0,0.0,0.0,0.0,0.0,0.0,0.0,0.0,0.0,0.0,0.0,0.0,0.0,0.0,0.0,0.0,0.0,0.0,0.0,0.0,0.0,0.0,0.0,0.0,0.0,0.0,0.0,0.0,0.0,0.0,0.0,0.0,0.0,0.0,0.0,0.0,0.0,0.0,0.0,0.0,0.0,0.0,0.0,0.0,0.0,0.0,0.0,0.0,0.0,0.0,0.0,0.0,0.0,0.0,0.0,0.0,0.0,0.0,0.0,0.0,0.0,0.0,0.0,0.0,0.0,0.0,0.0,0.0,0.0,0.0,0.0,0.0,0.0,0.0,0.0,0.0,0.0,0.0,0.0,0.0,0.0,0.0,0.0,0.0,0.0,0.0,0.0,0.0,0.0,0.0,0.0,0.0,0.0,0.0,0.0,0.0,0.0,0.0,0.0,0.0,0.0,0.0,0.0,0.0,0.0,0.0,0.0,0.0,0.0,0.0,0.0,0.0,0.0,0.0,0.0,0.0,0.0,0.0,0.0,0.0,0.0,0.0,0.0,0.0,0.0,0.0,0.0,0.0,0.0,0.0,0.0,0.0,0.0,0.0,0.0,0.0,0.0,0.0,0.0,0.0,0.0,0.0,0.0,0.0,0.0,0.0,0.0,0.0,0.0,0.0,0.0,0.0,0.0,0.0,0.0,-0.9452,0.0,0.0,0.0,0.0,0.0,0.0,0.0,0.0,0.0,0.0,0.0,0.0,0.0,0.0,0.0,0.0,0.0,0.0,0.0,0.0,0.0,0.0,0.0,0.0,0.0,0.0,0.0,0.0,0.0,0.0,0.0,0.0,0.0,0.0,0.0,0.0,0.0,0.0,0.0,0.0,0.0,0.0,0.0,0.0,0.0,0.0,0.0,0.0,0.0,0.0,0.0,0.0,0.0,0.0,0.0,0.0,0.0,0.0,0.0,0.0,0.0,0.0,0.0,0.0,0.0,0.0,0.0,0.0,0.0,0.0,0.0,0.0,0.0,0.0,0.0,0.0,0.0,0.0,0.0,0.0,0.0,0.0,0.0,0.0,0.0,0.0,0.0,0.0,0.0,0.0,0.0,0.0,0.0,0.0,0.0,0.0,0.0,0.0,0.0,0.0,0.0,0.0,0.0,0.0,0.0,0.0,0.0,0.0,0.0,0.0,-1.0102,-0.9923,-0.9919,-0.9797,-0.9503,0.0,0.0,0.0,0.0,0.0,0.0,0.0,0.0,0.0,0.0,0.0,0.0,0.0,0.0,0.0,0.0,0.0,0.0,0.0,0.0,0.0,0.0,0.0,0.0,0.0,0.0,0.0,0.0,0.0,0.0,0.0,0.0,0.0,0.0,0.0,0.0,0.0,0.0,0.0,0.0,0.0,0.0,0.0,0.0,0.0,0.0,0.0,0.0,0.0,0.0,0.0,0.0,0.0,0.0,0.0,0.0,0.0,0.0,0.0,0.0,0.0,0.0,0.0,0.0,0.0,0.0,0.0,0.0,0.0,0.0,0.0,0.0,0.0,0.0,0.0,0.0,0.0,0.0,0.0,0.0,0.0,0.0,0.0,0.0,0.0,0.0,0.0,0.0,0.0,0.0,0.0,0.0,0.0,0.0,0.0,0.0,0.0,0.0,0.0,0.0,0.0,0.0,0.0,0.0,0.0,0.0,0.0,0.0,0.0,0.0,0.0,0.0,-1.0265,-1.0052,-0.9561,0.0,0.0,0.0,0.0,0.0,0.0,0.0,0.0,0.0,0.0,0.0,0.0,0.0,0.0,0.0,0.0,0.0,0.0,0.0,0.0,0.0,0.0,0.0,0.0,0.0,0.0,0.0,0.0,0.0,0.0,0.0,0.0,0.0,0.0,0.0,0.0,0.0,0.0,0.0,0.0,0.0,0.0,0.0,0.0,0.0,0.0,0.0,0.0,0.0,0.0,0.0,0.0,0.0,0.0,0.0,0.0,0.0,0.0,0.0,0.0,0.0,0.0,0.0,0.0,0.0,0.0,0.0,0.0,0.0,0.0,0.0,0.0,0.0,0.0,0.0,0.0,0.0,0.0,0.0,0.0,0.0,0.0,0.0,0.0,0.0,0.0,0.0,0.0,0.0,0.0,0.0,0.0,0.0,0.0,0.0,0.0,0.0,0.0,0.0,0.0,0.0,0.0,0.0,0.0,0.0,0.0,0.0,0.0,0.0,0.0,-1.0513,-1.1136,-1.117,0.0,-0.9784,0.0,0.0,0.0,0.0,0.0,0.0,0.0,0.0,0.0,0.0,0.0,0.0,0.0,0.0,0.0,0.0,0.0,0.0,0.0,0.0,0.0,0.0,0.0,0.0,0.0,0.0,0.0,0.0,0.0,0.0,0.0,0.0,0.0,0.0,0.0,0.0,0.0,0.0,0.0,0.0,0.0,0.0,0.0,0.0,0.0,0.0,0.0,0.0,0.0,0.0,0.0,0.0,0.0,0.0,0.0,0.0,0.0,0.0,0.0,0.0,0.0,0.0,0.0,0.0,0.0,0.0,0.0,0.0,0.0,0.0,0.0,0.0,0.0,0.0,0.0,0.0,0.0,0.0,0.0,0.0,0.0,0.0,0.0,0.0,0.0,0.0,0.0,0.0,0.0,0.0,0.0,0.0,0.0,0.0,0.0,0.0,0.0,0.0,0.0,0.0,0.0,0.0,0.0,0.0,0.0,0.0,0.0,0.0,0.0,0.0,-1.0546,-1.1286,-1.0762,-1.0273,0.0,0.0,0.0,0.0,0.0,0.0,0.0,0.0,0.0,0.0,0.0,0.0,0.0,0.0,0.0,0.0,0.0,0.0,0.0,0.0,0.0,0.0,0.0,0.0,0.0,0.0,0.0,0.0,0.0,0.0,0.0,0.0,0.0,0.0,0.0,0.0,0.0,0.0,0.0,0.0,0.0,0.0,0.0,0.0,0.0,0.0,0.0,0.0,0.0,0.0,0.0,0.0,0.0,0.0,0.0,0.0,0.0,0.0,0.0,0.0,0.0,0.0,0.0,0.0,0.0,0.0,0.0,0.0,0.0,0.0,0.0,0.0,0.0,0.0,0.0,0.0,0.0,0.0,0.0,0.0,0.0,0.0,0.0,0.0,0.0,0.0,0.0,0.0,0.0,0.0,0.0,0.0,0.0,0.0,0.0,0.0,0.0,0.0,0.0,0.0,0.0,0.0,0.0,0.0,0.0,0.0,0.0,0.0,0.0,0.0,-0.9874,-1.0574,-1.1233,-1.0452,-0.9751,-0.9322,0.0,0.0,0.0,0.0,0.0,0.0,0.0,0.0,0.0,0.0,0.0,0.0,0.0,0.0,0.0,0.0,0.0,0.0,0.0,0.0,0.0,0.0,0.0,0.0,0.0,0.0,0.0,0.0,0.0,0.0,0.0,0.0,0.0,0.0,0.0,0.0,0.0,0.0,0.0,0.0,0.0,0.0,0.0,0.0,0.0,0.0,0.0,0.0,0.0,0.0,0.0,0.0,0.0,0.0,0.0,0.0,0.0,0.0,0.0,0.0,0.0,0.0,0.0,0.0,0.0,0.0,0.0,0.0,0.0,0.0,0.0,0.0,0.0,0.0,0.0,0.0,0.0,0.0,0.0,0.0,0.0,0.0,0.0,0.0,0.0,0.0,0.0,0.0,0.0,0.0,0.0,0.0,0.0,0.0,0.0,0.0,0.0,0.0,0.0,0.0,0.0,0.0,0.0,0.0,0.0,0.0,0.0,0.0,-1.0057,-1.0174,-1.0573,-1.1374,-1.0534,-0.9314,0.0,0.0,0.0,0.0,0.0,0.0,0.0,0.0,0.0,0.0,0.0,0.0,0.0,0.0,0.0,0.0,0.0,0.0,0.0,0.0,0.0,0.0,0.0,0.0,0.0,0.0,0.0,0.0,0.0,0.0,0.0,0.0,0.0,0.0,0.0,0.0,0.0,0.0,0.0,0.0,0.0,0.0,0.0,0.0,0.0,0.0,0.0,0.0,0.0,0.0,0.0,0.0,0.0,0.0,0.0,0.0,0.0,0.0,0.0,0.0,0.0,0.0,0.0,0.0,0.0,0.0,0.0,0.0,0.0,0.0,0.0,0.0,0.0,0.0,0.0,0.0,0.0,0.0,0.0,0.0,0.0,0.0,0.0,0.0,0.0,0.0,0.0,0.0,0.0,0.0,0.0,0.0,0.0,0.0,0.0,0.0,0.0,0.0,0.0,0.0,0.0,0.0,0.0,0.0,0.0,0.0,0.0,0.0,0.0,-0.7752,-0.881,-1.0294,-1.205,-0.9828,-0.8448,0.0,0.0,0.0,0.0,0.0,0.0,0.0,0.0,0.0,0.0,0.0,0.0,0.0,0.0,0.0,0.0,0.0,0.0,0.0,0.0,0.0,0.0,0.0,0.0,0.0,0.0,0.0,0.0,0.0,0.0,0.0,0.0,0.0,0.0,0.0,0.0,0.0,0.0,0.0,0.0,0.0,0.0,0.0,0.0,0.0,0.0,0.0,0.0,0.0,0.0,0.0,0.0,0.0,0.0,0.0,0.0,0.0,0.0,0.0,0.0,0.0,0.0,0.0,0.0,0.0,0.0,0.0,0.0,0.0,0.0,0.0,0.0,0.0,0.0,0.0,0.0,0.0,0.0,0.0,0.0,0.0,0.0,0.0,0.0,0.0,0.0,0.0,0.0,0.0,0.0,0.0,0.0,0.0,0.0,0.0,0.0,0.0,0.0,0.0,0.0,0.0,0.0,0.0,0.0,0.0,0.0,0.0,0.0,0.0,-0.7186,0.0,-1.0116,-1.1667,-0.9102,-0.772,0.0,0.0,0.0,0.0,0.0,0.0,0.0,0.0,0.0,0.0,0.0,0.0,0.0,0.0,0.0,0.0,0.0,0.0,0.0,0.0,0.0,0.0,0.0,0.0,0.0,0.0,0.0,0.0,0.0,0.0,0.0,0.0,0.0,0.0,0.0,0.0,0.0,0.0,0.0,0.0,0.0,0.0,0.0,0.0,0.0,0.0,0.0,0.0,0.0,0.0,0.0,0.0,0.0,0.0,0.0,0.0,0.0,0.0,0.0,0.0,0.0,0.0,0.0,0.0,0.0,0.0,0.0,0.0,0.0,0.0,0.0,0.0,0.0,0.0,0.0,0.0,0.0,0.0,0.0,0.0,0.0,0.0,0.0,0.0,0.0,0.0,0.0,0.0,0.0,0.0,0.0,0.0,0.0,0.0,0.0,0.0,0.0,0.0,0.0,0.0,0.0,0.0,0.0,0.0,0.0,0.0,0.0,0.0,-0.6294,-0.8769,-0.9602,-1.0031,-1.0104,-0.8514,-0.7233,0.0,0.0,0.0,0.0,0.0,0.0,0.0,0.0,0.0,0.0,0.0,0.0,0.0,0.0,0.0,0.0,0.0,0.0,0.0,0.0,0.0,0.0,0.0,0.0,0.0,0.0,0.0,0.0,0.0,0.0,0.0,0.0,0.0,0.0,0.0,0.0,0.0,0.0,0.0,0.0,0.0,0.0,0.0,0.0,0.0,0.0,0.0,0.0,0.0,0.0,0.0,0.0,0.0,0.0,0.0,0.0,0.0,0.0,0.0,0.0,0.0,0.0,0.0,0.0,0.0,0.0,0.0,0.0,0.0,0.0,0.0,0.0,0.0,0.0,0.0,0.0,0.0,0.0,0.0,0.0,0.0,0.0,0.0,0.0,0.0,0.0,0.0,0.0,0.0,0.0,0.0,0.0,0.0,0.0,0.0,0.0,0.0,0.0,0.0,0.0,0.0,0.0,0.0,0.0,0.0,0.0,0.0,0.0,0.0,-0.8779,-0.8474,-0.9195,-1.0896,-0.8821,-0.7751,0.0,0.0,0.0,0.0,0.0,0.0,0.0,0.0,0.0,0.0,0.0,0.0,0.0,0.0,0.0,0.0,0.0,0.0,0.0,0.0,0.0,0.0,0.0,0.0,0.0,0.0,0.0,0.0,0.0,0.0,0.0,0.0,0.0,0.0,0.0,0.0,0.0,0.0,0.0,0.0,0.0,0.0,0.0,0.0,0.0,0.0,0.0,0.0,0.0,0.0,0.0,0.0,0.0,0.0,0.0,0.0,0.0,0.0,0.0,0.0,0.0,0.0,0.0,0.0,0.0,0.0,0.0,0.0,0.0,0.0,0.0,0.0,0.0,0.0,0.0,0.0,0.0,0.0,0.0,0.0,0.0,0.0,0.0,0.0,0.0,0.0,0.0,0.0,0.0,0.0,0.0,0.0,0.0,0.0,0.0,0.0,0.0,0.0,0.0,0.0,0.0,0.0,0.0,0.0,0.0,0.0,0.0,0.0,0.0,-0.9933,-0.9255,-0.9682,-1.1347,-0.9547,-0.8669,-0.885,0.0,0.0,0.0,0.0,0.0,0.0,0.0,0.0,0.0,0.0,0.0,0.0,0.0,0.0,0.0,0.0,0.0,0.0,0.0,0.0,0.0,0.0,0.0,0.0,0.0,0.0,0.0,0.0,0.0,0.0,0.0,0.0,0.0,0.0,0.0,0.0,0.0,0.0,0.0,0.0,0.0,0.0,0.0,0.0,0.0,0.0,0.0,0.0,0.0,0.0,0.0,0.0,0.0,0.0,0.0,0.0,0.0,0.0,0.0,0.0,0.0,0.0,0.0,0.0,0.0,0.0,0.0,0.0,0.0,0.0,0.0,0.0,0.0,0.0,0.0,0.0,0.0,0.0,0.0,0.0,0.0,0.0,0.0,0.0,0.0,0.0,0.0,0.0,0.0,0.0,0.0,0.0,0.0,0.0,0.0,0.0,0.0,0.0,0.0,0.0,0.0,0.0,0.0,0.0,0.0,0.0,0.0,0.0,-1.2039,-1.1581,-1.1361,-1.1449,-1.0726,-0.9931,0.0,0.0,0.0,0.0,0.0,0.0,0.0,0.0,0.0,0.0,0.0,0.0,0.0,0.0,0.0,0.0,0.0,0.0,0.0,0.0,0.0,0.0,0.0,0.0,0.0,0.0,0.0,0.0,0.0,0.0,0.0,0.0,0.0,0.0,0.0,0.0,0.0,0.0,0.0,0.0,0.0,0.0,0.0,0.0,0.0,0.0,0.0,0.0,0.0,0.0,0.0,0.0,0.0,0.0,0.0,0.0,0.0,0.0,0.0,0.0,0.0,0.0,0.0,0.0,0.0,0.0,0.0,0.0,0.0,0.0,0.0,0.0,0.0,0.0,0.0,0.0,0.0,0.0,0.0,0.0,0.0,0.0,0.0,0.0,0.0,0.0,0.0,0.0,0.0,0.0,0.0,0.0,0.0,0.0,0.0,0.0,0.0,0.0,0.0,0.0,0.0,0.0,0.0,0.0,0.0,0.0,0.0,0.0,0.0,-1.2729,-1.2868,-1.3244,-1.3934,-1.2594,-1.1499,0.0,0.0,0.0,0.0,0.0,0.0,0.0,0.0,0.0,0.0,0.0,0.0,0.0,0.0,0.0,0.0,0.0,0.0,0.0,0.0,0.0,0.0,0.0,0.0,0.0,0.0,0.0,0.0,0.0,0.0,0.0,0.0,0.0,0.0,0.0,0.0,0.0,0.0,0.0,0.0,0.0,0.0,0.0,0.0,0.0,0.0,0.0,0.0,0.0,0.0,0.0,0.0,0.0,0.0,0.0,0.0,0.0,0.0,0.0,0.0,0.0,0.0,0.0,0.0,0.0,0.0,0.0,0.0,0.0,0.0,0.0,0.0,0.0,0.0,0.0,0.0,0.0,0.0,0.0,0.0,0.0,0.0,0.0,0.0,0.0,0.0,0.0,0.0,0.0,0.0,0.0,0.0,0.0,0.0,0.0,0.0,0.0,0.0,0.0,0.0,0.0,0.0,0.0,0.0,0.0,0.0,0.0,0.0,-1.2499,-1.396,-1.4867,-1.5484,-1.5868,-1.4007,-1.2506,0.0,0.0,0.0,0.0,0.0,0.0,0.0,0.0,0.0,0.0,0.0,0.0,0.0,0.0,0.0,0.0,0.0,0.0,0.0,0.0,0.0,0.0,0.0,0.0,0.0,0.0,0.0,0.0,0.0,0.0,0.0,0.0,0.0,0.0,0.0,0.0,0.0,0.0,0.0,0.0,0.0,0.0,0.0,0.0,0.0,0.0,0.0,0.0,0.0,0.0,0.0,0.0,0.0,0.0,0.0,0.0,0.0,0.0,0.0,0.0,0.0,0.0,0.0,0.0,0.0,0.0,0.0,0.0,0.0,0.0,0.0,0.0,0.0,0.0,0.0,0.0,0.0,0.0,0.0,0.0,0.0,0.0,0.0,0.0,0.0,0.0,0.0,0.0,0.0,0.0,0.0,0.0,0.0,0.0,0.0,0.0,0.0,0.0,0.0,0.0,0.0,0.0,0.0,0.0,0.0,0.0,0.0,0.0,-1.3718,-1.517,-1.6835,-1.7555,-1.717,-1.5153,-1.3233,0.0,0.0,0.0,0.0,0.0,0.0,0.0,0.0,0.0,0.0,0.0,0.0,0.0,0.0,0.0,0.0,0.0,0.0,0.0,0.0,0.0,0.0,0.0,0.0,0.0,0.0,0.0,0.0,0.0,0.0,0.0,0.0,0.0,0.0,0.0,0.0,0.0,0.0,0.0,0.0,0.0,0.0,0.0,0.0,0.0,0.0,0.0,0.0,0.0,0.0,0.0,0.0,0.0,0.0,0.0,0.0,0.0,0.0,0.0,0.0,0.0,0.0,0.0,0.0,0.0,0.0,0.0,0.0,0.0,0.0,0.0,0.0,0.0,0.0,0.0,0.0,0.0,0.0,0.0,0.0,0.0,0.0,0.0,0.0,0.0,0.0,0.0,0.0,0.0,0.0,0.0,0.0,0.0,0.0,0.0,0.0,0.0,0.0,0.0,0.0,0.0,0.0,0.0,0.0,0.0,0.0,0.0,0.0,-1.3762,-1.5167,-1.6432,-1.7396,-1.8006,-1.6431,-1.4504,0.0,0.0,0.0,0.0,0.0,0.0,0.0,0.0,0.0,0.0,0.0,0.0,0.0,0.0,0.0,0.0,0.0,0.0,0.0,0.0,0.0,0.0,0.0,0.0,0.0,0.0,0.0,0.0,0.0,0.0,0.0,0.0,0.0,0.0,0.0,0.0,0.0,0.0,0.0,0.0,0.0,0.0,0.0,0.0,0.0,0.0,0.0,0.0,-0.4014,0.0,0.0,0.0,0.0,0.0,0.0,0.0,0.0,0.0,0.0,0.0,0.0,0.0,0.0,0.0,0.0,0.0,0.0,0.0,0.0,0.0,0.0,0.0,0.0,0.0,0.0,0.0,0.0,0.0,0.0,0.0,0.0,0.0,0.0,0.0,0.0,0.0,0.0,0.0,0.0,0.0,0.0,0.0,0.0,0.0,0.0,0.0,0.0,0.0,0.0,0.0,0.0,0.0,0.0,0.0,0.0,0.0,0.0,0.0,-1.4345,-1.5745,-1.7249,-1.8095,-1.8167,-1.7159,-1.55,0.0,0.0,0.0,0.0,0.0,0.0,0.0,0.0,0.0,0.0,0.0,0.0,0.0,0.0,0.0,0.0,0.0,0.0,0.0,0.0,0.0,0.0,0.0,0.0,0.0,0.0,0.0,0.0,0.0,0.0,0.0,0.0,0.0,0.0,0.0,0.0,0.0,0.0,0.0,0.0,0.0,0.0,0.0,0.0,0.0,0.0,0.0,0.0,0.0,0.0,0.0,0.0,0.0,0.0,0.0,0.0,0.0,0.0,0.0,0.0,0.0,0.0,0.0,0.0,0.0,0.0,0.0,0.0,0.0,0.0,0.0,0.0,0.0,0.0,0.0,0.0,0.0,0.0,0.0,0.0,0.0,0.0,0.0,0.0,0.0,0.0,0.0,0.0,0.0,0.0,0.0,0.0,0.0,0.0,0.0,0.0,0.0,0.0,0.0,0.0,0.0,0.0,0.0,0.0,0.0,0.0,0.0,-1.3333,-1.4961,-1.6407,-1.8305,-1.8967,-1.8298,-1.7633,-1.6213,-1.398,0.0,0.0,0.0,0.0,0.0,0.0,0.0,0.0,0.0,0.0,0.0,0.0,0.0,0.0,0.0,0.0,0.0,0.0,0.0,0.0,0.0,0.0,0.0,0.0,0.0,0.0,0.0,0.0,0.0,0.0,0.0,0.0,0.0,0.0,0.0,0.0,0.0,0.0,-0.6287,-0.6319,0.0,0.0,0.0,0.0,0.0,0.0,0.0,0.0,-0.4821,0.0,0.0,0.0,0.0,0.0,0.0,0.0,0.0,0.0,0.0,0.0,0.0,0.0,0.0,0.0,0.0,0.0,0.0,0.0,0.0,0.0,0.0,0.0,0.0,0.0,0.0,0.0,0.0,0.0,0.0,0.0,0.0,0.0,0.0,0.0,0.0,0.0,0.0,0.0,0.0,0.0,0.0,0.0,0.0,0.0,0.0,0.0,0.0,0.0,0.0,0.0,0.0,0.0,0.0,0.0,0.0,-1.1306,-1.3187,-1.4866,-1.6391,-1.8305,-1.9224,-1.9084,-1.7932,-1.6464,-1.4672,0.0,0.0,0.0,0.0,0.0,0.0,0.0,0.0,0.0,0.0,0.0,0.0,0.0,0.0,0.0,0.0,0.0,0.0,0.0,0.0,0.0,0.0,0.0,0.0,0.0,0.0,0.0,0.0,0.0,0.0,0.0,0.0,0.0,0.0,0.0,0.0,0.0,0.0,0.0,-0.7017,-0.6758,0.0,0.0,0.0,0.0,0.0,0.0,0.0,0.0,-0.5254,0.0,0.0,0.0,0.0,0.0,0.0,0.0,0.0,0.0,0.0,0.0,0.0,0.0,0.0,0.0,0.0,0.0,0.0,0.0,0.0,0.0,0.0,0.0,0.0,0.0,0.0,0.0,0.0,0.0,0.0,0.0,0.0,0.0,0.0,0.0,0.0,0.0,0.0,0.0,0.0,0.0,0.0,0.0,0.0,0.0,0.0,0.0,0.0,0.0,0.0,0.0,0.0,0.0,0.0,0.0,-1.1512,-1.3601,-1.5268,-1.6499,-1.8325,-1.9087,-1.8654,-1.7361,-1.5861,0.0,0.0,0.0,0.0,0.0,0.0,0.0,0.0,0.0,0.0,0.0,0.0,0.0,0.0,0.0,0.0,0.0,0.0,0.0,0.0,0.0,0.0,0.0,0.0,0.0,0.0,0.0,0.0,0.0,0.0,0.0,0.0,0.0,0.0,0.0,0.0,0.0,0.0,0.0,0.0,-0.7663,-0.7476,-0.615,0.0,0.0,0.0,0.0,0.0,0.0,-0.5378,-0.5501,0.0,0.0,0.0,0.0,0.0,0.0,0.0,0.0,0.0,0.0,0.0,0.0,0.0,0.0,0.0,0.0,0.0,0.0,0.0,0.0,0.0,0.0,0.0,0.0,0.0,0.0,0.0,0.0,0.0,0.0,0.0,0.0,0.0,0.0,0.0,0.0,0.0,0.0,0.0,0.0,0.0,0.0,0.0,0.0,0.0,0.0,0.0,0.0,0.0,0.0,0.0,0.0,0.0,0.0,0.0,-1.1753,-1.3731,-1.5271,-1.636,-1.7961,-1.85,-1.7876,-1.6671,-1.5264,0.0,0.0,0.0,0.0,0.0,0.0,0.0,0.0,0.0,0.0,0.0,0.0,0.0,0.0,0.0,0.0,0.0,0.0,0.0,0.0,0.0,0.0,0.0,0.0,0.0,0.0,0.0,0.0,0.0,0.0,0.0,0.0,0.0,0.0,0.0,0.0,0.0,0.0,0.0,0.0,0.0,-0.8219,-0.7018,-0.6963,0.0,0.0,0.0,0.0,-0.5518,-0.5809,0.0,0.0,0.0,0.0,0.0,0.0,0.0,0.0,0.0,0.0,0.0,0.0,0.0,0.0,0.0,0.0,0.0,0.0,0.0,0.0,0.0,0.0,0.0,0.0,0.0,0.0,0.0,0.0,0.0,0.0,0.0,0.0,0.0,0.0,0.0,0.0,0.0,0.0,0.0,0.0,0.0,0.0,0.0,0.0,0.0,0.0,0.0,0.0,0.0,0.0,0.0,0.0,0.0,0.0,0.0,0.0,-1.1699,-1.2693,-1.3937,-1.5492,-1.6621,-1.7147,-1.7037,-1.6425,-1.5314,0.0,0.0,0.0,0.0,0.0,0.0,0.0,0.0,0.0,0.0,0.0,0.0,0.0,0.0,0.0,0.0,0.0,0.0,0.0,0.0,0.0,0.0,0.0,0.0,0.0,0.0,0.0,0.0,0.0,0.0,0.0,0.0,0.0,0.0,0.0,0.0,0.0,0.0,0.0,0.0,0.0,-0.8977,-0.8123,-0.792,-0.7806,0.0,0.0,-0.6673,-0.8017,-0.7481,0.0,0.0,0.0,0.0,0.0,0.0,0.0,0.0,0.0,0.0,0.0,0.0,0.0,0.0,0.0,0.0,0.0,0.0,0.0,0.0,0.0,0.0,0.0,0.0,0.0,0.0,0.0,0.0,0.0,0.0,0.0,0.0,0.0,0.0,0.0,0.0,0.0,0.0,0.0,0.0,0.0,0.0,0.0,0.0,0.0,0.0,0.0,0.0,0.0,0.0,0.0,0.0,0.0,0.0,0.0,-0.8988,-1.189,-1.2992,-1.4185,-1.5554,-1.646,-1.667,-1.6218,-1.5181,-1.4101,0.0,0.0,0.0,0.0,0.0,0.0,0.0,0.0,0.0,0.0,0.0,0.0,0.0,0.0,0.0,0.0,0.0,0.0,0.0,0.0,0.0,0.0,0.0,0.0,0.0,0.0,0.0,0.0,0.0,0.0,0.0,0.0,0.0,0.0,0.0,0.0,0.0,0.0,0.0,0.0,0.0,0.0,-0.8998,-0.8757,0.0,0.0,0.0,-0.7259,-0.7923,0.0,0.0,0.0,0.0,0.0,0.0,0.0,0.0,0.0,0.0,0.0,0.0,0.0,0.0,0.0,0.0,0.0,0.0,0.0,0.0,0.0,0.0,0.0,0.0,0.0,0.0,0.0,0.0,0.0,0.0,0.0,0.0,0.0,0.0,0.0,0.0,0.0,0.0,0.0,0.0,0.0,0.0,0.0,0.0,0.0,0.0,0.0,0.0,0.0,0.0,0.0,0.0,0.0,0.0,0.0,0.0,0.0,-1.2064,-1.3016,-1.4099,-1.5356,-1.5979,-1.6017,-1.5446,-1.4199,0.0,0.0,0.0,0.0,0.0,0.0,0.0,0.0,0.0,0.0,0.0,0.0,0.0,0.0,0.0,0.0,0.0,0.0,0.0,0.0,0.0,0.0,0.0,0.0,0.0,0.0,0.0,-0.4973,0.0,0.0,0.0,0.0,0.0,0.0,0.0,0.0,0.0,0.0,0.0,0.0,0.0,0.0,-0.988,-0.9825,-0.9504,-0.9193,0.0,0.0,-0.7935,-0.8098,-0.7945,-0.7541,0.0,0.0,0.0,0.0,0.0,0.0,0.0,0.0,0.0,0.0,0.0,0.0,0.0,0.0,0.0,0.0,0.0,0.0,0.0,0.0,0.0,0.0,0.0,0.0,0.0,0.0,0.0,0.0,0.0,0.0,0.0,0.0,0.0,0.0,0.0,0.0,0.0,0.0,0.0,0.0,0.0,0.0,0.0,0.0,0.0,0.0,0.0,0.0,0.0,0.0,0.0,0.0,0.0,0.0,-0.8803,-1.2044,-1.2099,-1.289,-1.4506,-1.4622,-1.469,-1.4743,-1.3998,-1.3276,0.0,0.0,0.0,0.0,0.0,0.0,0.0,0.0,0.0,0.0,0.0,0.0,0.0,0.0,0.0,0.0,0.0,0.0,0.0,0.0,0.0,0.0,0.0,0.0,0.0,0.0,0.0,0.0,0.0,0.0,0.0,0.0,0.0,0.0,0.0,0.0,0.0,0.0,0.0,0.0,0.0,-1.0096,-1.0643,-1.0116,-0.992,0.0,-0.9522,-0.8875,-0.9616,-0.9446,-0.8841,-0.7623,0.0,0.0,0.0,0.0,0.0,0.0,0.0,0.0,0.0,0.0,0.0,0.0,0.0,0.0,0.0,0.0,0.0,0.0,0.0,0.0,0.0,0.0,0.0,0.0,0.0,0.0,0.0,0.0,0.0,0.0,0.0,0.0,0.0,0.0,0.0,0.0,0.0,0.0,0.0,0.0,0.0,0.0,0.0,0.0,0.0,0.0,0.0,0.0,0.0,0.0,0.0,0.0,0.0,-0.8792,-1.2131,-1.2005,-1.2737,-1.4408,-1.4488,-1.4554,-1.4702,-1.3988,-1.3269,0.0,0.0,0.0,0.0,0.0,0.0,0.0,0.0,0.0,0.0,0.0,0.0,0.0,0.0,0.0,0.0,0.0,0.0,0.0,0.0,0.0,0.0,0.0,0.0,0.0,0.0,0.0,0.0,-0.7069,-0.7299,-0.6748,0.0,0.0,0.0,0.0,0.0,0.0,0.0,0.0,0.0,0.0,-1.0429,-1.1027,-1.0328,0.0,0.0,-0.9755,-0.9311,-0.9816,-0.9243,-0.8452,-0.7634,-0.6759,0.0,0.0,0.0,0.0,0.0,0.0,0.0,0.0,0.0,0.0,0.0,0.0,0.0,0.0,0.0,0.0,0.0,0.0,0.0,0.0,0.0,0.0,0.0,0.0,0.0,0.0,0.0,0.0,0.0,0.0,0.0,0.0,0.0,0.0,0.0,0.0,0.0,0.0,0.0,0.0,0.0,0.0,0.0,0.0,0.0,0.0,0.0,0.0,0.0,0.0,0.0,0.0,-0.9076,-1.2186,-1.2322,-1.3054,-1.4457,-1.4584,-1.4656,-1.4742,-1.4045,-1.332,0.0,0.0,0.0,0.0,0.0,0.0,0.0,0.0,0.0,0.0,0.0,0.0,0.0,0.0,0.0,0.0,0.0,0.0,0.0,0.0,0.0,0.0,0.0,0.0,0.0,0.0,0.0,0.0,-0.7797,-0.7768,-0.6856,0.0,0.0,0.0,0.0,0.0,0.0,0.0,0.0,0.0,0.0,-1.1101,-1.1537,-1.072,-1.0097,-1.021,-0.9752,-0.9475,-0.9712,-0.9193,-0.8577,-0.7958,0.0,0.0,0.0,0.0,0.0,0.0,0.0,0.0,0.0,0.0,0.0,0.0,0.0,0.0,0.0,0.0,0.0,0.0,0.0,0.0,0.0,0.0,0.0,0.0,0.0,0.0,0.0,-0.6391,0.0,0.0,-0.518,0.0,0.0,0.0,0.0,0.0,0.0,0.0,0.0,0.0,0.0,0.0,0.0,0.0,0.0,0.0,0.0,0.0,0.0,0.0,0.0,0.0,0.0,-0.9735,-1.2245,-1.3056,-1.3809,-1.4511,-1.477,-1.4905,-1.49,-1.4202,-1.3461,-1.2701,0.0,0.0,0.0,0.0,0.0,0.0,0.0,0.0,0.0,0.0,0.0,0.0,0.0,0.0,0.0,0.0,0.0,0.0,0.0,0.0,0.0,0.0,0.0,0.0,0.0,0.0,-0.7248,-0.7254,-0.6906,0.0,0.0,0.0,0.0,0.0,0.0,0.0,0.0,0.0,-1.1623,-1.1981,-1.2181,-1.2252,-1.1348,-1.0433,-0.9918,-0.9608,-0.9408,-0.9421,-0.9649,-0.9591,0.0,0.0,0.0,0.0,0.0,0.0,0.0,0.0,0.0,0.0,0.0,0.0,0.0,0.0,0.0,0.0,0.0,0.0,0.0,0.0,0.0,0.0,0.0,0.0,0.0,0.0,0.0,-0.8189,-0.7938,0.0,0.0,0.0,0.0,0.0,0.0,0.0,0.0,0.0,0.0,0.0,-1.2541,-1.3333,0.0,0.0,0.0,0.0,0.0,0.0,0.0,0.0,0.0,0.0,0.0,0.0,-1.0386,-1.2377,-1.357,-1.4622,-1.5535,-1.556,-1.5645,-1.5813,-1.503,-1.3983,-1.2725,0.0,0.0,0.0,0.0,0.0,0.0,0.0,0.0,0.0,0.0,0.0,0.0,0.0,0.0,0.0,0.0,0.0,0.0,0.0,0.0,0.0,0.0,0.0,0.0,0.0,-0.7667,0.0,0.0,0.0,0.0,0.0,0.0,0.0,0.0,0.0,0.0,0.0,-1.1764,-1.2389,-1.2204,-1.2126,-1.252,-1.122,-1.0272,0.0,0.0,0.0,0.0,0.0,0.0,0.0,0.0,0.0,0.0,0.0,0.0,0.0,0.0,-0.6905,-0.5589,-0.5066,-0.4758,-0.4368,0.0,0.0,0.0,0.0,0.0,0.0,0.0,0.0,0.0,0.0,0.0,0.0,0.0,0.0,-0.9794,-0.9545,-0.9548,0.0,0.0,0.0,0.0,0.0,0.0,0.0,0.0,-1.3195,-1.4073,-1.4079,-1.4788,-1.5017,0.0,-1.5146,-1.4032,0.0,0.0,0.0,0.0,0.0,0.0,0.0,0.0,-1.1227,-1.3281,-1.4457,-1.5532,-1.6503,-1.6258,-1.6171,-1.6265,-1.5211,-1.4159,-1.3176,-1.1477,-1.0448,0.0,0.0,0.0,0.0,0.0,0.0,0.0,0.0,0.0,0.0,0.0,0.0,0.0,0.0,0.0,0.0,0.0,0.0,0.0,0.0,0.0,0.0,0.0,-0.8668,0.0,0.0,0.0,0.0,0.0,0.0,0.0,0.0,0.0,-1.113,-1.1783,-1.246,-1.3159,-1.2696,-1.2347,-1.2526,0.0,0.0,0.0,0.0,0.0,0.0,0.0,-0.9234,-0.8572,-0.8625,-0.8409,-0.743,-0.7659,-0.7708,-0.6868,0.0,0.0,-0.5954,-0.525,-0.4739,-0.4563,-0.4498,-0.442,-0.4214,-0.4609,-0.4972,0.0,0.0,0.0,0.0,0.0,0.0,0.0,0.0,-1.2335,-1.1892,0.0,-1.1176,0.0,0.0,0.0,0.0,-1.0258,-1.2486,0.0,0.0,-1.5936,-1.6669,-1.5931,-1.6407,-1.6635,-1.6655,-1.7205,-1.6668,-1.507,-1.3268,0.0,0.0,0.0,0.0,0.0,0.0,-1.2311,-1.4847,-1.5757,-1.6602,-1.7402,-1.6839,-1.6438,-1.622,-1.4779,-1.3959,-1.3901,-1.231,-1.1051,-1.0233,-0.9345,0.0,0.0,0.0,0.0,0.0,0.0,0.0,0.0,0.0,0.0,0.0,0.0,0.0,0.0,0.0,0.0,0.0,0.0,0.0,0.0,-0.873,0.0,0.0,0.0,0.0,0.0,0.0,0.0,0.0,0.0,0.0,-1.1886,-1.2217,-1.2858,-1.394,0.0,0.0,0.0,0.0,-1.0668,-0.9841,-1.0043,-1.0145,-0.9661,-0.9853,-1.0058,-1.0026,0.0,0.0,-0.9036,-0.877,-0.8314,-0.7299,-0.6714,-0.6369,-0.6463,-0.5539,-0.4807,-0.4785,-0.4673,-0.4403,-0.4029,-0.4614,-0.5231,-1.3258,0.0,0.0,0.0,0.0,-1.2389,-1.2799,-1.3128,-1.3682,-1.3486,-1.2742,-1.2742,0.0,0.0,0.0,0.0,0.0,0.0,-1.4162,-1.4718,-1.6488,-1.736,-1.7495,-1.8713,-1.9176,-1.9023,-1.9364,-1.8933,-1.7815,-1.7563,-1.5202,-1.0902,0.0,0.0,0.0,0.0,-1.4293,-1.5805,-1.7079,-1.8,-1.8532,-1.7673,-1.6678,-1.5539,-1.5081,-1.4282,-1.3117,-1.2597,-1.1675,-1.0264,-0.9381,0.0,0.0,0.0,0.0,0.0,0.0,0.0,0.0,0.0,0.0,0.0,0.0,0.0,0.0,0.0,0.0,0.0,0.0,0.0,-0.8426,-0.9078,-0.9256,0.0,0.0,0.0,0.0,0.0,0.0,0.0,0.0,0.0,-1.3118,-1.3443,-1.3798,0.0,0.0,-1.2599,-1.2835,-1.1771,-1.0962,-1.1068,-1.0889,0.0,-0.9707,-0.9563,-0.947,-0.9328,-0.9322,-0.9332,-0.9402,-0.8825,-0.8138,-0.7543,-0.7026,-0.6584,-0.6271,-0.5405,-0.4757,-0.4805,-0.4576,-0.4319,-0.4289,-0.4672,-0.5121,-1.5733,-1.4462,-1.3789,-1.3611,-1.3848,-1.4324,-1.4625,-1.4805,-1.5303,-1.523,-1.4787,-1.4787,-1.4362,-1.3611,-1.3319,0.0,0.0,0.0,-1.5816,-1.6507,-1.8055,-1.8894,-1.9219,-2.0022,-2.0329,-2.0172,-2.0204,-1.9916,-1.9333,-1.9428,-1.757,-1.3963,0.0,0.0,-1.37,-1.4571,-1.5703,-1.705,-1.8003,-1.8777,-1.9364,-1.8205,-1.6819,-1.5266,-1.5195,-1.4731,-1.3763,-1.3056,-1.2236,-1.127,-1.0057,-0.9238,0.0,0.0,0.0,0.0,0.0,0.0,0.0,0.0,0.0,0.0,0.0,-0.6286,-0.537,0.0,0.0,0.0,-0.6741,-0.819,-0.9483,-0.9854,0.0,0.0,0.0,0.0,0.0,0.0,0.0,-1.0744,-1.2241,-1.335,-1.3687,-1.4027,-1.4228,-1.4174,-1.3097,-1.2292,-1.2289,0.0,-1.0958,-1.1122,-1.1049,-1.0702,-0.9978,-0.9598,-0.9328,-0.9231,-0.9213,-0.9362,-0.9759,-0.9068,-0.8316,-0.786,-0.723,-0.6556,-0.6091,-0.5237,-0.4624,-0.4748,-0.442,-0.4132,-0.4039,-0.4362,-0.4877,-1.7468,-1.7329,-1.5734,-1.5399,-1.5916,-1.5972,-1.6331,-1.689,-1.6963,-1.6963,-1.6908,-1.6908,-1.6493,-1.5747,-1.5068,0.0,-1.5746,-1.7195,-1.8137,-1.8708,-2.0188,-2.0857,-2.0842,-2.0628,-2.0561,-2.0549,-2.0292,-2.02,-2.0166,-1.9722,-1.8704,-1.7185,-1.6844,-1.6377,-1.5789,-1.5857,-1.675,-1.8472,-1.8621,-1.9094,-1.9869,-1.8475,-1.693,-1.5368,-1.5173,-1.5086,-1.5036,-1.3473,-1.2594,-1.2534,-1.107,-0.9824,-0.9036,0.0,0.0,0.0,0.0,0.0,0.0,0.0,0.0,0.0,0.0,0.0,0.0,0.0,0.0,0.0,-0.7931,0.0,-1.0342,-1.0809,0.0,0.0,0.0,-1.0754,-1.1169,-1.1732,-1.198,-1.1646,0.0,0.0,-1.3813,-1.4213,-1.4331,-1.3759,-1.286,-1.1952,-1.1113,-1.0978,-1.0759,-1.0502,-1.0734,-1.0819,-1.033,-0.9827,-0.9437,-0.9367,-0.9468,-0.9659,-1.0011,-0.9383,-0.8618,-0.8191,-0.7341,-0.6499,-0.5919,-0.5285,-0.4704,-0.471,-0.428,-0.3833,-0.3684,-0.4036,-0.463,-1.8913,-1.9001,-1.8446,-1.7649,-1.6848,-1.7442,-1.7416,-1.6963,-1.7557,-1.7477,-1.6908,-1.6908,-1.678,-1.6627,-1.6857,-1.738,-1.8171,-1.8941,-1.9553,-2.0076,-2.0999,-2.1307,-2.1139,-2.1615,-2.1847,-2.1851,-2.1796,-2.1755,-2.1735,-2.1224,-2.0499,-1.9596,-1.9324,-1.8255,-1.6407,-1.7114,-1.8121,-1.9316,-1.945,-1.9428,-1.9216,-1.8227,-1.7215,-1.6215,-1.4901,-1.3916,-1.333,-1.2323,-1.1485,-1.0854,-1.0424,-1.0118,-0.9881,-0.9012,0.0,0.0,0.0,0.0,0.0,0.0,0.0,0.0,0.0,-0.7769,-0.6198,0.0,-0.7907,0.0,-0.8732,-1.0215,-1.0675,-1.0711,0.0,0.0,-1.0856,-1.092,-1.2103,-1.2079,-1.2354,-1.3416,-1.4202,-1.4671,-1.4731,-1.4869,-1.4397,-1.2958,-1.2271,-1.1701,-1.1092,-1.0991,-1.0957,-1.0847,-1.0905,-1.084,-1.0332,-0.9843,-0.933,-0.8967,-0.9219,-0.9538,-0.9677,-0.9159,-0.8521,-0.8043,-0.7395,-0.6895,-0.6687,-0.6091,-0.5513,-0.5132,-0.4235,-0.3626,-0.4055,-0.4296,-0.4696,-2.0481,-2.0566,-2.0457,-1.971,-1.8603,-1.8703,-1.8439,-1.7997,-1.8445,-1.8372,-1.7968,-1.7961,-1.7968,-1.8009,-1.8653,-1.9166,-1.9596,-2.0546,-2.1075,-2.1242,-2.1811,-2.2,-2.1888,-2.2173,-2.2313,-2.2313,-2.2313,-2.2313,-2.2276,-2.1799,-2.1342,-2.0951,-2.0782,-2.0002,-1.8748,-1.8651,-1.8908,-1.9471,-1.9688,-1.9552,-1.9004,-1.853,-1.7699,-1.6542,-1.5573,-1.4665,-1.3881,-1.2711,-1.1844,-1.1361,-1.062,-1.0196,-1.0175,-0.9358,-0.8647,0.0,0.0,0.0,0.0,0.0,0.0,0.0,0.0,0.0,0.0,0.0,-0.9144,-0.8688,-1.0305,-1.1303,-1.1132,-1.1239,-1.1417,-1.1747,-1.1588,-1.1718,-1.2327,-1.2601,-1.3126,-1.4088,-1.4494,-1.476,-1.499,-1.4907,-1.4237,-1.2624,-1.2049,-1.1534,-1.0859,-1.0677,-1.0677,-1.0687,-1.0687,-1.0408,-0.9716,-0.9139,-0.8777,-0.8716,-0.8736,-0.8918,-0.9379,-0.8857,-0.8234,-0.7912,-0.7405,-0.6974,-0.6813,-0.641,-0.5923,-0.549,-0.4805,-0.4222,-0.4051,-0.4439,-0.5043,-2.183,-2.1837,-2.1811,-2.1382,-2.0613,-1.9921,-1.9554,-1.9462,-1.9462,-1.9462,-1.9462,-1.9334,-1.9407,-1.9664,-2.0217,-2.0521,-2.0644,-2.1963,-2.247,-2.234,-2.2674,-2.281,-2.2742,-2.2531,-2.2374,-2.2346,-2.2349,-2.2332,-2.2343,-2.1871,-2.1642,-2.1661,-2.1509,-2.1432,-2.1341,-2.0227,-1.9596,-1.9527,-1.9794,-1.9686,-1.9177,-1.9069,-1.8261,-1.674,-1.6441,-1.5961,-1.5137,-1.3624,-1.2808,-1.277,-1.1247,-1.0372,-1.0351,-0.9526,-0.8991,0.0,-0.8035,0.0,0.0,0.0,0.0,0.0,0.0,0.0,0.0,-0.9875,-1.0703,-1.0936,-1.1902,-1.2256,-1.165,-1.1929,-1.2097,-1.202,-1.2387,-1.2505,-1.2101,-1.2958,-1.373,-1.41,-1.4477,-1.4751,-1.4914,-1.469,-1.3995,-1.2746,-1.2103,-1.1479,-1.0621,-1.037,-1.0341,-1.0322,-1.0322,-1.0011,-0.9019,-0.837,-0.8201,-0.848,-0.8255,-0.8234,-0.9099,-0.8521,-0.7878,-0.7753,-0.7342,-0.6941,-0.6687,-0.6468,-0.6196,-0.5838,-0.5602,-0.5201,-0.4443,-0.4792,-0.5389,-2.185,-2.1946,-2.1844,-2.1702,-2.1555,-2.139,-2.0931,-2.0272,-2.0272,-2.0272,-2.0217,-1.9583,-2.005,-2.1243,-2.0731,-2.1228,-2.2475,-2.2776,-2.3089,-2.3383,-2.349,-2.3369,-2.3105,-2.3045,-2.289,-2.2652,-2.2621,-2.2621,-2.2621,-2.2146,-2.1954,-2.2004,-2.1821,-2.1616,-2.1405,0.0,0.0,0.0,-2.0747,-2.0543,-2.005,-1.9373,-1.8491,-1.7487,-1.6193,0.0,-1.4256,-1.3299,-1.2809,-1.2851,-1.1841,0.0,0.0,0.0,0.0,0.0,0.0,0.0,0.0,0.0,0.0,0.0,-1.0718,-1.0653,-0.9471,-1.0537,-1.1421,-1.1662,-1.1856,-1.1973,-1.206,-1.1948,-1.1753,-1.1509,-1.1785,-1.1844,-1.1534,-1.2106,-1.2838,-1.3767,-1.4127,-1.4513,-1.4948,-1.4737,-1.4122,-1.3077,-1.2289,-1.1579,-1.0924,-1.0495,-1.0322,-1.0322,-1.0283,-0.9873,-0.8878,-0.8574,-0.8275,-0.816,-0.7974,-0.7974,-0.816,-0.8098,-0.7683,-0.7321,-0.7091,-0.6986,-0.692,-0.6862,-0.6649,-0.6198,-0.6392,-0.6486,-0.5857,-0.5879,-0.6157,-2.3023,-2.3075,-2.3005,-2.2758,0.0,-2.2813,-2.252,-2.1703,-2.1308,-2.1161,-2.1125,-2.0729,-2.1005,-2.1794,-2.1767,-2.218,-2.3006,-2.341,-2.3709,-2.3927,-2.3785,-2.3617,-2.3455,-2.3288,-2.3105,-2.296,-2.2947,-2.2947,-2.2937,-2.2857,-2.2854,-2.2898,-2.2955,-2.2914,-2.2784,-2.3004,-2.2438,-2.1017,-2.1101,-2.087,-2.0315,-1.9869,-1.9241,-1.84,-1.7181,0.0,0.0,0.0,0.0,0.0,0.0,0.0,0.0,-1.1611,0.0,-1.0748,-1.0564,-1.0474,-1.0486,-1.0728,-1.0977,-1.1224,-1.1911,-1.1914,-1.0983,-1.1294,-1.1754,-1.2372,-1.2059,-1.1844,-1.1926,-1.1861,-1.1557,-1.0996,-1.1722,-1.2007,-1.1382,-1.2251,-1.3106,-1.3471,-1.409,-1.4661,-1.5049,-1.4752,-1.4111,-1.3188,-1.2319,-1.1431,-1.0495,-1.0283,-1.0322,-1.0283,-0.9775,-0.933,-0.8785,-0.8157,-0.7946,-0.785,-0.7655,-0.76,-0.7836,-0.7663,-0.7342,-0.7035,-0.6993,-0.693,-0.6683,-0.6816,-0.6831,-0.6413,-0.6626,-0.6915,-0.6647,-0.6605,-0.6577,-2.4199,-2.4199,-2.4199,-2.3823,-2.3263,-2.3914,-2.3823,-2.3153,-2.2354,0.0,0.0,-2.1867,-2.1959,-2.2253,-2.2776,-2.3079,-2.3263,-2.3896,-2.4199,-2.418,-2.3907,-2.3785,-2.3785,-2.3493,-2.3357,-2.3282,-2.3288,-2.33,-2.3294,-2.3584,-2.3724,-2.3806,-2.4046,-2.4237,-2.4257,-2.4444,-2.3547,-2.1618,-2.1518,-2.1206,-2.0534,-2.0365,-1.9913,-1.9112,-1.8265,-1.7459,-1.6723,-1.5174,-1.4335,-1.4309,-1.3489,-1.2985,-1.2925,-1.2796,-1.2702,-1.2697,-1.2503,-1.2383,-1.2395,-1.2362,-1.232,-1.2301,-1.2716,-1.2915,-1.2735,-1.2211,-1.2209,-1.2996,-1.2346,-1.1846,-1.179,-1.1781,-1.1445,-1.0593,-1.1871,-1.2344,-1.137,-1.2667,-1.3642,-1.3517,-1.4142,-1.4785,-1.5049,-1.4568,-1.403,-1.3213,-1.2271,-1.1207,-1.005,-0.9961,-1.0157,-1.0225,-0.9617,-0.8878,-0.8594,-0.7938,-0.7384,-0.7642,-0.7231,-0.707,-0.7363,-0.7105,-0.674,-0.6607,-0.6677,-0.6492,-0.6179,-0.645,-0.6683,-0.6285,-0.6619,-0.6993,-0.6993,-0.6993,-0.6852,-2.4199,-2.4199,-2.4199,-2.4135,-2.4043,-2.4153,-2.4153,-2.3951,-2.318,-2.2822,-2.2786,-2.2106,-2.2565,-2.3823,-2.3272,-2.3373,-2.4025,-2.4135,-2.4199,-2.4208,-2.4161,-2.4141,-2.4113,-2.4084,-2.3907,-2.3649,-2.3639,-2.3639,-2.3639,-2.3682,-2.3855,-2.4094,-2.418,-2.4284,-2.4479,-2.4654,-2.4334,-2.3487,-2.2715,-2.2018,-2.1342,-2.0658,-1.9913,-1.911,-1.8265,-1.7459,-1.6722,-1.574,-1.5214,-1.5182,-1.4345,-1.3824,-1.3795,-1.3122,-1.2702,-1.2676,-1.2519,-1.2383,-1.2417,-1.2845,-1.3357,-1.3816,-1.3803,-1.3802,-1.3917,-1.3595,-1.3361,-1.3244,-1.2642,-1.2205,-1.2133,-1.194,-1.1549,-1.1021,-1.2004,-1.2508,-1.1836,-1.2985,-1.3825,-1.3841,-1.4083,-1.4457,-1.484,-1.4049,-1.3448,-1.3352,-1.2016,-1.081,-1.0225,-0.9843,-0.9834,-1.0118,-0.9804,-0.9248,-0.8744,-0.8193,-0.7614,-0.7168,-0.6725,-0.6413,-0.6541,-0.6081,-0.569,-0.5583,-0.5669,-0.5588,-0.5459,-0.5916,-0.6151,-0.6114,-0.6492,-0.6915,-0.6937,-0.6951,-0.6958,-2.4199,-2.4199,-2.4199,-2.4199,-2.4199,-2.4199,-2.4199,-2.4171,-2.3804,-2.3648,-2.3602,-2.3057,-2.3226,-2.3873,-2.3553,-2.3571,-2.3955,-2.4132,-2.4199,-2.4199,-2.4199,-2.4199,-2.4199,-2.4199,-2.4113,-2.3976,-2.3976,-2.3976,-2.3976,-2.3976,-2.4054,-2.4199,-2.4303,-2.452,-2.4762,-2.4905,-2.4886,-2.4679,-2.3386,-2.2345,-2.158,-2.0766,-2.0164,-1.9808,-1.8544,-1.7725,-1.7399,-1.6132,-1.5402,-1.5414,-1.4967,-1.469,-1.4702,-1.4292,-1.4063,-1.406,-1.3902,-1.38,-1.3761,-1.3879,-1.4067,-1.4332,-1.4175,-1.4149,-1.4356,-1.3962,-1.3623,-1.3467,-1.2955,-1.2494,-1.2184,-1.2071,-1.187,-1.1476,-1.2272,-1.2534,-1.2209,-1.3375,-1.3977,-1.3315,-1.3988,-1.458,-1.446,-1.3657,-1.3043,-1.2894,-1.1196,-0.9835,-0.9834,-0.9159,-0.9039,-0.9981,-0.9597,-0.9059,-0.8695,-0.7959,-0.7363,-0.7042,-0.6562,-0.6243,-0.6157,-0.5701,-0.5351,-0.5308,-0.5308,-0.5151,-0.4908,-0.5303,-0.5502,-0.5346,-0.5996,-0.6471,-0.6577,-0.6768,-0.6979,-2.4199,-2.4199,-2.4199,-2.4199,-2.4199,-2.4199,-2.4199,-2.4199,-2.4199,-2.4161,-2.4064,-2.3806,-2.3721,-2.3721,-2.3721,-2.3721,-2.3753,-2.4036,-2.4199,-2.4199,-2.4199,-2.4199,-2.4199,-2.4199,-2.4199,-2.4199,-2.4199,-2.4199,-2.4199,-2.4199,-2.4209,-2.4275,-2.4436,-2.4685,-2.5019,-2.5076,-2.523,-2.5344,-2.3969,-2.2799,-2.1923,-2.1133,-2.0609,-2.0331,-1.8957,-1.8197,-1.8203,-1.6611,-1.5678,-1.5659,-1.5426,-1.5293,-1.5277,-1.5226,-1.5195,-1.5186,-1.5059,-1.4958,-1.485,-1.4624,-1.4476,-1.4422,-1.4289,-1.427,-1.4375,-1.3965,-1.3709,-1.3632,-1.3269,-1.2797,-1.237,-1.236,-1.2309,-1.208,-1.2758,-1.3098,-1.2719,-1.3996,-1.4486,-1.3247,-1.4106,-1.4691,-1.41,-1.3319,-1.2554,-1.1732,-1.0021,-0.899,-0.9268,-0.8574,-0.8561,-0.9279,-0.9119,-0.8553,-0.848,-0.771,-0.7105,-0.6993,-0.6407,-0.6023,-0.583,-0.5394,-0.4961,-0.4836,-0.4857,-0.4683,-0.4373,-0.4696,-0.487,-0.4691,-0.5454,-0.6249,-0.6456,-0.6725,-0.6972,-2.4199,-2.4199,-2.4199,-2.4199,-2.4199,-2.4199,-2.4199,-2.4199,-2.4199,-2.4026,-2.3795,-2.3714,-2.3692,-2.3721,-2.3682,-2.3671,-2.3714,-2.4054,-2.419,-2.4199,-2.4199,-2.4199,-2.4199,-2.4199,-2.4199,-2.4199,-2.4199,-2.4218,-2.4218,-2.4218,-2.4294,-2.4462,-2.4495,-2.471,-2.5065,-2.5087,-2.5247,-2.5549,-2.4654,-2.374,-2.2879,-2.2027,-2.1252,-2.0484,-1.9527,-1.9043,-1.9082,-1.7452,-1.648,-1.6432,-1.5744,-1.5311,-1.5254,-1.5214,-1.5212,-1.5212,-1.5078,-1.4912,-1.4728,-1.4589,-1.4429,-1.4257,-1.4207,-1.4206,-1.4207,-1.3927,-1.3751,-1.3803,-1.3568,-1.316,-1.2652,-1.2895,-1.2887,-1.248,-1.3618,-1.4469,-1.4169,-1.5035,-1.5462,-1.4928,-1.4526,-1.4517,-1.4136,-1.2938,-1.1612,-1.0743,-0.957,-0.8817,-0.9119,-0.8472,-0.7966,-0.8541,-0.8296,-0.8008,-0.7912,-0.7447,-0.6979,-0.6867,-0.6076,-0.5518,-0.5216,-0.4574,-0.3799,-0.41,-0.3906,-0.3862,-0.3906,-0.4092,-0.4456,-0.4478,-0.5221,-0.6313,-0.6753,-0.6963,-0.7012,-2.4199,-2.4199,-2.4199,-2.4199,-2.4199,-2.4199,-2.4199,-2.4199,-2.4199,-2.4132,-2.3986,-2.3795,-2.35,-2.31,-2.31,-2.32,-2.3432,-2.3764,-2.4016,-2.418,-2.4199,-2.4199,-2.4199,-2.4199,-2.4199,-2.4209,-2.4321,-2.4384,-2.4401,-2.4495,-2.4636,-2.4771,-2.4834,-2.5001,-2.5266,-2.5363,-2.547,-2.558,-2.5284,-2.47,-2.3776,-2.2507,-2.1358,-2.0466,-1.9608,-1.9166,-1.9071,-1.796,-1.7316,-1.7282,-1.6935,-1.6691,-1.6683,-1.6253,-1.5965,-1.5936,-1.5296,-1.4871,-1.4717,-1.4468,-1.4271,-1.4201,-1.4096,-1.4017,-1.4031,-1.411,-1.4248,-1.4352,-1.4089,-1.3688,-1.3352,-1.3574,-1.3626,-1.3406,-1.4163,-1.4695,-1.4408,-1.4977,-1.503,-1.4114,-1.4057,-1.3891,-1.3281,-1.2175,-1.0981,-0.9991,-0.9139,-0.8756,-0.8582,-0.7855,-0.7523,-0.7565,-0.7252,-0.7259,-0.7621,-0.7112,-0.6641,-0.6343,-0.554,-0.48,-0.4674,-0.4184,-0.36,-0.36,-0.36,-0.36,-0.3644,-0.3707,-0.3946,-0.4228,-0.4853,-0.5852,-0.6407,-0.6931,-0.7211,-2.4199,-2.4199,-2.4199,-2.4199,-2.4199,-2.4199,-2.4199,-2.4199,-2.4199,-2.4151,-2.4036,-2.3806,-2.338,-2.291,-2.2935,-2.3117,-2.3357,-2.3682,-2.3976,-2.418,-2.4199,-2.4199,-2.4199,-2.4199,-2.4199,-2.4218,-2.433,-2.4435,-2.452,-2.47,-2.4876,-2.4991,-2.506,-2.5202,-2.5434,-2.5549,-2.5606,-2.5633,-2.5684,-2.5273,-2.4355,-2.3203,-2.2012,-2.0877,-2.0197,-1.9758,-1.9449,-1.8614,-1.8147,-1.8167,-1.7873,-1.7696,-1.7676,-1.7141,-1.6708,-1.646,-1.5908,-1.5353,-1.4956,-1.4873,-1.4783,-1.467,-1.4513,-1.4455,-1.4483,-1.4563,-1.4858,-1.5341,-1.5029,-1.4634,-1.4074,-1.4296,-1.4347,-1.4148,-1.4677,-1.4977,-1.484,-1.512,-1.4909,-1.389,-1.4041,-1.3589,-1.2502,-1.156,-1.0667,-0.9707,-0.9059,-0.8521,-0.7997,-0.7518,-0.7176,-0.712,-0.6702,-0.6665,-0.7223,-0.6598,-0.605,-0.5766,-0.5065,-0.4474,-0.4365,-0.3943,-0.36,-0.36,-0.36,-0.3622,-0.3644,-0.3667,-0.406,-0.4372,-0.4938,-0.5766,-0.6597,-0.7173,-0.7556,-2.4199,-2.4199,-2.4199,-2.4199,-2.4218,-2.4226,-2.4236,-2.4281,-2.4291,-2.4099,-2.3922,-2.3833,-2.3558,-2.333,-2.3618,-2.366,-2.3703,-2.3986,-2.4151,-2.419,-2.4199,-2.4199,-2.4199,-2.4199,-2.4199,-2.4199,-2.4266,-2.4384,-2.4532,-2.4731,-2.4876,-2.499,-2.5096,-2.5252,-2.5479,-2.5564,-2.5634,-2.5683,-2.5703,-2.5293,-2.4551,-2.4336,-2.3435,-2.1956,-2.1612,-2.1099,-2.0355,-1.9435,-1.8979,-1.9032,-1.8265,-1.7773,-1.7757,-1.7696,-1.7254,-1.6525,-1.6824,-1.6643,-1.5728,-1.5951,-1.6116,-1.5845,-1.5661,-1.5747,-1.5538,-1.5172,-1.5427,-1.6681,-1.6287,-1.5691,-1.4915,-1.4946,-1.4995,-1.4761,-1.5319,-1.5651,-1.5697,-1.5669,-1.5536,-1.498,-1.4491,-1.3642,-1.2112,-1.1356,-1.0564,-0.9723,-0.9053,-0.852,-0.7974,-0.7608,-0.7473,-0.7263,-0.6914,-0.6511,-0.6286,-0.5782,-0.5411,-0.5195,-0.4805,-0.4321,-0.4198,-0.4027,-0.3774,-0.3644,-0.3711,-0.3755,-0.3733,-0.4104,-0.4757,-0.5176,-0.5455,-0.6141,-0.6863,-0.7494,-0.7909,-2.4199,-2.4199,-2.4199,-2.4199,-2.4254,-2.475,-2.497,-2.5016,-2.5511,-2.5662,-2.5559,-2.5549,-2.5477,-2.5354,-2.4941,-2.4379,-2.3761,-2.3827,-2.3996,-2.418,-2.4199,-2.4199,-2.4199,-2.4199,-2.4199,-2.4237,-2.4452,-2.4762,-2.5039,-2.5157,-2.5225,-2.5321,-2.5387,-2.547,-2.5545,-2.5614,-2.5663,-2.5684,-2.5703,-2.5547,-2.5234,-2.5191,-2.4589,-2.3425,-2.2277,-2.1527,-2.1107,-2.0272,-1.9846,-1.9859,-1.9519,-1.9369,-1.9304,-1.8747,-1.7952,-1.7094,-1.7101,-1.6886,-1.629,-1.6281,-1.6244,-1.5956,-1.578,-1.5755,-1.568,-1.5543,-1.574,-1.6271,-1.6216,-1.5853,-1.5816,-1.5658,-1.5383,-1.5003,-1.5394,-1.5814,-1.583,-1.5905,-1.5802,-1.5166,-1.418,-1.3048,-1.2627,-1.1678,-1.0543,-0.9605,-0.9332,-0.8808,-0.7961,-0.7682,-0.7639,-0.7106,-0.6583,-0.5995,-0.5288,-0.4988,-0.4696,-0.457,-0.4308,-0.4008,-0.3792,-0.3858,-0.3689,-0.403,-0.4052,-0.4316,-0.4447,-0.4697,-0.5331,-0.5445,-0.5781,-0.6481,-0.7099,-0.778,-0.8172,-2.475,-2.4924,-2.4695,-2.4575,-2.464,-2.5164,-2.5384,-2.5485,-2.6245,-2.6602,-2.6602,-2.6602,-2.6602,-2.6539,-2.6017,-2.5228,-2.4268,-2.4003,-2.3986,-2.419,-2.4199,-2.4199,-2.4209,-2.4257,-2.4294,-2.4338,-2.4689,-2.5021,-2.5269,-2.5368,-2.5431,-2.5489,-2.5564,-2.5602,-2.5626,-2.5661,-2.5703,-2.5703,-2.5663,-2.5664,-2.5641,-2.5602,-2.529,-2.4559,-2.3247,-2.2313,-2.1936,-2.1119,-2.0692,-2.0677,-2.0462,-2.0288,-2.0223,-1.9613,-1.875,-1.7887,-1.7854,-1.7546,-1.6938,-1.6947,-1.6896,-1.6566,-1.6397,-1.6306,-1.6308,-1.626,-1.6379,-1.6544,-1.6323,-1.626,-1.6461,-1.634,-1.5897,-1.5423,-1.5599,-1.5961,-1.6229,-1.6306,-1.6,-1.5297,-1.41,-1.3219,-1.2778,-1.1829,-1.0731,-0.9596,-0.9585,-0.9058,-0.7721,-0.7714,-0.7796,-0.7114,-0.679,-0.6442,-0.5878,-0.5426,-0.4493,-0.419,-0.4074,-0.3751,-0.3707,-0.3751,-0.3968,-0.4329,-0.47,-0.5026,-0.5263,-0.5439,-0.5569,-0.5667,-0.6168,-0.6919,-0.7497,-0.8104,-0.857,-2.5823,-2.6319,-2.5742,-2.5411,-2.5429,-2.5586,-2.5495,-2.5723,-2.6429,-2.6877,-2.6932,-2.6767,-2.6888,-2.6712,-2.6686,-2.6161,-2.5472,-2.4756,-2.4326,-2.4226,-2.4199,-2.4199,-2.4209,-2.4384,-2.4512,-2.4534,-2.4838,-2.5034,-2.5172,-2.5325,-2.5444,-2.5498,-2.557,-2.5627,-2.5603,-2.5664,-2.5703,-2.5684,-2.5636,-2.5605,-2.5598,-2.5541,-2.544,-2.5249,-2.4503,-2.3721,-2.2893,-2.2004,-2.1519,-2.1427,-2.0788,-2.0327,-2.0296,-2.0025,-1.9549,-1.8844,-1.9158,-1.875,-1.771,-1.8028,-1.8069,-1.7682,-1.7681,-1.7563,-1.7406,-1.7233,-1.7188,-1.7264,-1.6966,-1.6802,-1.6977,-1.6853,-1.6561,-1.6326,-1.6038,-1.6226,-1.6812,-1.6879,-1.6382,-1.5532,-1.4523,-1.3547,-1.2626,-1.1974,-1.1136,-1.0112,-0.9777,-0.9182,-0.7661,-0.783,-0.796,-0.7544,-0.7162,-0.6865,-0.6526,-0.6085,-0.4876,-0.3898,-0.3795,-0.3622,-0.3858,-0.3987,-0.4395,-0.4805,-0.552,-0.5864,-0.6029,-0.622,-0.6476,-0.6672,-0.7109,-0.7545,-0.8234,-0.8876,-0.9248,-2.587,-2.6557,-2.6337,-2.6227,-2.63,-2.6814,-2.7064,-2.7137,-2.7915,-2.8253,-2.8253,-2.8271,-2.8271,-2.8106,-2.7695,-2.7273,-2.6979,-2.6209,-2.5273,-2.4401,-2.4226,-2.4254,-2.4256,-2.441,-2.4628,-2.4824,-2.4949,-2.5134,-2.5353,-2.5443,-2.5509,-2.5631,-2.5664,-2.5681,-2.5662,-2.5703,-2.5703,-2.5703,-2.5634,-2.5602,-2.5597,-2.5479,-2.5418,-2.5367,-2.5103,-2.4811,-2.4466,-2.3139,-2.2432,-2.2393,-2.1581,-2.0885,-2.0395,-2.0026,-1.9739,-1.9465,-1.9239,-1.8978,-1.8376,-1.8245,-1.8198,-1.7889,-1.7789,-1.7681,-1.7467,-1.7163,-1.6939,-1.6825,-1.6367,-1.6177,-1.6294,-1.6579,-1.6754,-1.6641,-1.6355,-1.6258,-1.6626,-1.6457,-1.6382,-1.6359,-1.5036,-1.4017,-1.3674,-1.2948,-1.1546,-1.0443,-1.0293,-0.97,-0.8425,-0.8085,-0.8184,-0.7715,-0.7491,-0.7149,-0.6573,-0.6012,-0.5124,-0.4176,-0.3825,-0.3781,-0.4005,-0.4437,-0.4841,-0.5509,-0.6234,-0.6606,-0.6785,-0.708,-0.7403,-0.7704,-0.8085,-0.8629,-0.9217,-0.9647,-0.9964,-2.6759,-2.7427,-2.7181,-2.7053,-2.709,-2.7603,-2.7805,-2.7915,-2.8656,-2.8987,-2.8987,-2.8987,-2.8987,-2.8895,-2.8455,-2.8062,-2.778,-2.7255,-2.6355,-2.5254,-2.5089,-2.4961,-2.4688,-2.4588,-2.4737,-2.4974,-2.5082,-2.5253,-2.5503,-2.5515,-2.5564,-2.5684,-2.5703,-2.5684,-2.5681,-2.5661,-2.5659,-2.5631,-2.5558,-2.5513,-2.5496,-2.5415,-2.5371,-2.5359,-2.5312,-2.5293,-2.5212,-2.425,-2.3581,-2.3201,-2.2447,-2.1596,-2.083,-2.0458,-2.0141,-1.9769,-1.939,-1.8965,-1.8624,-1.8432,-1.8177,-1.79,-1.7789,-1.7715,-1.7479,-1.7175,-1.6901,-1.6837,-1.6871,-1.6754,-1.6848,-1.7334,-1.7633,-1.7525,-1.6871,-1.6613,-1.6696,-1.6744,-1.6828,-1.6786,-1.5616,-1.4615,-1.3805,-1.3296,-1.193,-1.0925,-1.0664,-1.0087,-0.8813,-0.8383,-0.8182,-0.7887,-0.7554,-0.7063,-0.6457,-0.5867,-0.5296,-0.459,-0.3983,-0.4044,-0.4176,-0.4808,-0.5328,-0.639,-0.7207,-0.7262,-0.7431,-0.8082,-0.849,-0.8806,-0.9036,-0.957,-1.0056,-1.03,-1.0618,-2.8246,-2.8858,-2.8172,-2.786,-2.786,-2.7945,-2.7952,-2.8026,-2.8656,-2.8987,-2.8987,-2.8987,-2.8987,-2.8987,-2.8895,-2.8539,-2.797,-2.7897,-2.7512,-2.6935,-2.6717,-2.6401,-2.5625,-2.5349,-2.5365,-2.5422,-2.546,-2.5518,-2.572,-2.56,-2.5566,-2.5684,-2.5703,-2.5681,-2.5631,-2.5603,-2.559,-2.5529,-2.5453,-2.5411,-2.5404,-2.5348,-2.5298,-2.5298,-2.5293,-2.5308,-2.525,-2.5096,-2.4769,-2.4105,-2.324,-2.2462,-2.1702,-2.1309,-2.0795,-2.0031,-1.9555,-1.9076,-1.8715,-1.8469,-1.8222,-1.78,-1.7704,-1.7788,-1.7694,-1.7522,-1.7498,-1.7801,-1.8069,-1.8251,-1.8286,-1.8737,-1.8949,-1.8644,-1.7607,-1.7196,-1.7562,-1.7715,-1.7583,-1.7211,-1.6241,-1.4936,-1.3521,-1.3088,-1.2322,-1.134,-1.0914,-1.0054,-0.8893,-0.856,-0.8429,-0.8149,-0.783,-0.7474,-0.6996,-0.6262,-0.5694,-0.5002,-0.4458,-0.4427,-0.4619,-0.5235,-0.61,-0.7167,-0.7801,-0.7865,-0.8232,-0.8855,-0.9333,-0.9549,-0.9923,-1.0434,-1.0805,-1.1073,-1.12,-2.8264,-2.895,-2.8767,-2.8693,-2.8675,-2.8675,-2.8675,-2.8693,-2.8877,-2.8987,-2.8987,-2.8987,-2.8987,-2.8987,-2.8987,-2.8877,-2.8675,-2.8638,-2.862,-2.8433,-2.8603,-2.7895,-2.6981,-2.6827,-2.6906,-2.6976,-2.6525,-2.6389,-2.6395,-2.5898,-2.5647,-2.5703,-2.5703,-2.5661,-2.5605,-2.5598,-2.5563,-2.5493,-2.5434,-2.5386,-2.5383,-2.5335,-2.5308,-2.5308,-2.5303,-2.5284,-2.5288,-2.5308,-2.4904,-2.4182,-2.3918,-2.3285,-2.2347,-2.2046,-2.1543,-2.0656,-1.9955,-1.9343,-1.8727,-1.8266,-1.7838,-1.7486,-1.7479,-1.7551,-1.785,-1.7818,-1.8061,-1.8515,-1.8805,-1.872,-1.8576,-1.901,-1.9155,-1.8772,-1.8171,-1.7789,-1.7731,-1.7718,-1.7661,-1.7288,-1.656,-1.5329,-1.4163,-1.3529,-1.2982,-1.1888,-1.1366,-1.0931,-0.9544,-0.898,-0.8959,-0.8651,-0.8326,-0.8027,-0.7567,-0.6808,-0.6085,-0.54,-0.5035,-0.4926,-0.5248,-0.5786,-0.6827,-0.7936,-0.807,-0.8145,-0.888,-0.9588,-0.9926,-1.025,-1.0896,-1.1418,-1.1659,-1.1916,-1.1891,-2.8594,-2.8987,-2.8987,-2.8987,-2.8987,-2.8987,-2.8987,-2.8987,-2.8987,-2.8987,-2.8987,-2.8987,-2.8987,-2.8987,-2.8987,-2.8987,-2.8987,-2.8987,-2.8968,-2.9055,-2.9318,-2.8791,-2.7959,-2.7744,-2.7714,-2.7787,-2.7462,-2.7118,-2.6805,-2.6352,-2.6009,-2.5703,-2.566,-2.5605,-2.552,-2.5524,-2.5473,-2.5415,-2.5368,-2.5354,-2.5365,-2.5327,-2.5298,-2.5274,-2.5243,-2.5152,-2.509,-2.5072,-2.4872,-2.4558,-2.444,-2.4012,-2.3056,-2.2782,-2.2278,-2.1358,-2.048,-1.968,-1.9106,-1.8416,-1.7861,-1.7561,-1.7403,-1.7584,-1.7912,-1.7977,-1.8171,-1.8762,-1.9147,-1.9132,-1.8921,-1.9237,-1.9372,-1.9198,-1.8951,-1.8621,-1.8179,-1.7931,-1.7844,-1.7585,-1.6902,-1.5719,-1.432,-1.3946,-1.3154,-1.2199,-1.174,-1.099,-1.0015,-0.9771,-0.9401,-0.8999,-0.8475,-0.8008,-0.7806,-0.7246,-0.6732,-0.6036,-0.567,-0.5551,-0.6077,-0.6526,-0.7214,-0.8068,-0.827,-0.8664,-0.9402,-1.0115,-1.0586,-1.1048,-1.1765,-1.2187,-1.2378,-1.2403,-1.2427,-2.9078,-2.8987,-2.9078,-2.9078,-2.9023,-2.8987,-2.8987,-2.8987,-2.8987,-2.8987,-2.8987,-2.8987,-2.9125,-2.9161,-2.9308,-2.9175,-2.9221,-2.9278,-2.9152,-2.9296,-2.9504,-2.9352,-2.8865,-2.8487,-2.8362,-2.8293,-2.8259,-2.7883,-2.7506,-2.7206,-2.6659,-2.624,-2.5976,-2.571,-2.5683,-2.5524,-2.5375,-2.5326,-2.5322,-2.5313,-2.5313,-2.5293,-2.5279,-2.5208,-2.5078,-2.4949,-2.4862,-2.484,-2.4805,-2.4924,-2.4974,-2.4467,-2.366,-2.3464,-2.297,-2.2171,-2.1214,-2.0468,-1.9907,-1.9146,-1.8416,-1.8183,-1.7857,-1.7786,-1.8368,-1.843,-1.8578,-1.9282,-1.9651,-1.9736,-1.9477,-1.9628,-1.9682,-1.9626,-1.9641,-1.9434,-1.8902,-1.8376,-1.8237,-1.8441,-1.7335,-1.5988,-1.4744,-1.3933,-1.344,-1.2793,-1.2282,-1.1609,-1.0771,-1.0292,-0.976,-0.9181,-0.8567,-0.7881,-0.777,-0.7665,-0.7235,-0.6781,-0.6413,-0.6376,-0.7053,-0.75,-0.7764,-0.8191,-0.8639,-0.9205,-0.9844,-1.0483,-1.1065,-1.1708,-1.232,-1.2642,-1.2856,-1.2749,-1.2725,-2.9555,-2.906,-2.9684,-2.9574,-2.906,-2.8987,-2.9005,-2.9023,-2.9023,-2.9115,-2.9023,-2.9005,-2.9466,-3.0166,-2.9897,-3.0044,-3.0057,-2.9894,-2.9821,-2.9607,-2.9923,-3.0124,-2.9995,-2.9805,-2.988,-2.9768,-2.9381,-2.9086,-2.8786,-2.8219,-2.787,-2.7535,-2.6835,-2.655,-2.6369,-2.5871,-2.5375,-2.5332,-2.536,-2.5408,-2.5365,-2.5335,-2.525,-2.5065,-2.491,-2.4835,-2.4818,-2.4804,-2.4746,-2.4682,-2.4715,-2.4576,-2.4257,-2.4157,-2.3722,-2.294,-2.2355,-2.1727,-2.1069,-2.034,-1.982,-1.9389,-1.9018,-1.9195,-1.9552,-1.9451,-1.9745,-2.0367,-2.0671,-2.0398,-2.0017,-2.0087,-1.9967,-1.9803,-1.9912,-1.9937,-1.9584,-1.9346,-1.9064,-1.8593,-1.8058,-1.7053,-1.5298,-1.4732,-1.4145,-1.344,-1.2812,-1.227,-1.1584,-1.0847,-1.0192,-0.9543,-0.9032,-0.843,-0.8163,-0.805,-0.77,-0.7416,-0.7138,-0.6934,-0.7635,-0.8067,-0.8177,-0.8612,-0.9212,-0.9747,-1.0261,-1.1015,-1.1616,-1.2246,-1.2749,-1.2832,-1.2915,-1.2915,-1.27,-3.0388,-2.9641,-3.0014,-2.9739,-2.9133,-2.939,-2.9555,-2.9647,-2.9989,-2.9916,-2.961,-2.9555,-2.9758,-3.0006,-2.9765,-2.9758,-2.9965,-2.9901,-2.9827,-2.9848,-3.0107,-3.0307,-3.0533,-3.0581,-3.0606,-3.0566,-3.0331,-2.9991,-2.9508,-2.9081,-2.8575,-2.816,-2.7632,-2.7385,-2.7284,-2.676,-2.6651,-2.6558,-2.6381,-2.6175,-2.5836,-2.5658,-2.5266,-2.4865,-2.4689,-2.4623,-2.452,-2.4501,-2.4461,-2.4428,-2.4461,-2.4486,-2.4393,-2.4357,-2.4035,-2.3621,-2.2898,-2.2391,-2.1728,-2.0987,-2.032,-2.0039,-1.9545,-1.9585,-1.9667,-1.9641,-1.9729,-2.0194,-2.0347,-2.0244,-2.007,-2.0017,-1.9874,-1.9803,-1.9892,-1.9894,-1.9762,-1.9708,-1.946,-1.8912,-1.8554,-1.7504,-1.6443,-1.5431,-1.4584,-1.3771,-1.3074,-1.2535,-1.1956,-1.1241,-1.0644,-1.0038,-0.9588,-0.9131,-0.8751,-0.8435,-0.8104,-0.7925,-0.7818,-0.7643,-0.7829,-0.8159,-0.8402,-0.8909,-0.9451,-1.0005,-1.0542,-1.1341,-1.2055,-1.2535,-1.2856,-1.2881,-1.2915,-1.2915,-1.2559,-3.1322,-3.0281,-3.0344,-2.9916,-2.9354,-2.9904,-3.0234,-3.0485,-3.0944,-3.0643,-3.0299,-3.0159,-2.9871,-2.9741,-2.9556,-2.9482,-2.961,-2.9626,-2.9823,-3.0018,-3.0232,-3.0424,-3.0603,-3.0695,-3.0738,-3.0745,-3.0702,-3.0371,-2.9958,-2.9668,-2.9349,-2.8601,-2.826,-2.8156,-2.8091,-2.7915,-2.7648,-2.7497,-2.7319,-2.7025,-2.6522,-2.6249,-2.5758,-2.4997,-2.4515,-2.442,-2.4294,-2.4247,-2.4218,-2.4199,-2.4199,-2.4199,-2.4199,-2.419,-2.4151,-2.4077,-2.3258,-2.2764,-2.2287,-2.1511,-2.0837,-2.0399,-1.9805,-1.9623,-1.9892,-1.9619,-1.9528,-1.9625,-1.9833,-1.9833,-1.9708,-1.9762,-1.9762,-1.9708,-1.9708,-1.9723,-1.9723,-1.9705,-1.9406,-1.8822,-1.8477,-1.772,-1.6739,-1.5762,-1.4937,-1.4122,-1.3433,-1.2813,-1.2236,-1.1566,-1.0889,-1.021,-0.9658,-0.9211,-0.8831,-0.8725,-0.8401,-0.8321,-0.8315,-0.8335,-0.8256,-0.8672,-0.9021,-0.9152,-0.9614,-1.0269,-1.0948,-1.1717,-1.2329,-1.2783,-1.2915,-1.2915,-1.2915,-1.2915,-1.2452,-3.1916,-3.057,-3.1009,-3.0742,-3.0099,-3.0173,-3.0632,-3.1035,-3.0779,-3.048,-3.0497,-2.9898,-3.0226,-3.0567,-3.0677,-3.0584,-3.0364,-3.0152,-3.0049,-3.0224,-3.0432,-3.0644,-3.0679,-3.077,-3.0858,-3.084,-3.0794,-3.0587,-3.0483,-3.0421,-3.0101,-2.9885,-2.9309,-2.8946,-2.87,-2.8308,-2.798,-2.793,-2.7766,-2.7482,-2.7141,-2.6744,-2.6328,-2.5345,-2.4672,-2.4293,-2.4228,-2.4199,-2.4199,-2.4199,-2.4199,-2.4199,-2.4199,-2.4199,-2.4074,-2.3811,-2.3562,-2.317,-2.2805,-2.2513,-2.2292,-2.2112,-2.1359,-2.082,-2.0671,-2.0263,-1.98,-1.9692,-1.9723,-1.9723,-1.9723,-1.9723,-1.9723,-1.9723,-1.9723,-1.9723,-1.9723,-1.9654,-1.9332,-1.8631,-1.8288,-1.7993,-1.7094,-1.6176,-1.5297,-1.4538,-1.3839,-1.3214,-1.2666,-1.1807,-1.0931,-1.0287,-0.964,-0.9185,-0.8778,-0.8778,-0.8672,-0.8619,-0.8666,-0.8968,-0.904,-0.9425,-0.971,-0.9935,-1.0287,-1.0864,-1.155,-1.2221,-1.2623,-1.3055,-1.3017,-1.2929,-1.2915,-1.2856,-1.2403,-3.3088,-3.1879,-3.198,-3.1568,-3.098,-3.1262,-3.1659,-3.199,-3.2027,-3.1721,-3.1244,-3.082,-3.0547,-3.0601,-3.0394,-3.0375,-3.0443,-3.0343,-3.0262,-3.0416,-3.0606,-3.0695,-3.072,-3.0837,-3.0839,-3.079,-3.0705,-3.0675,-3.0686,-3.0561,-3.0533,-3.0369,-2.9876,-2.9607,-2.95,-2.9124,-2.8755,-2.8589,-2.8474,-2.8185,-2.7585,-2.6934,-2.6015,-2.5495,-2.4754,-2.4264,-2.4199,-2.4199,-2.4199,-2.4199,-2.4199,-2.4199,-2.4199,-2.4161,-2.4026,-2.3735,-2.3544,-2.33,-2.3021,-2.2759,-2.25,-2.2068,-2.1595,-2.1118,-2.0666,-2.0212,-1.9912,-1.9797,-1.9723,-1.9723,-1.9723,-1.9723,-1.9723,-1.9723,-1.9723,-1.9723,-1.9723,-1.9723,-1.9207,-1.8593,-1.8496,-1.8204,-1.7612,-1.6676,-1.5718,-1.4926,-1.4226,-1.3624,-1.3041,-1.2098,-1.1107,-1.0312,-0.9666,-0.9106,-0.8778,-0.8778,-0.8778,-0.8778,-0.891,-0.9185,-0.9588,-0.984,-1.0415,-1.0889,-1.1266,-1.1566,-1.2175,-1.2827,-1.3088,-1.331,-1.331,-1.3248,-1.3027,-1.2749,-1.232,-3.4062,-3.3038,-3.2742,-3.2267,-3.1888,-3.2385,-3.2822,-3.3099,-3.3451,-3.3069,-3.2243,-3.1781,-3.1118,-3.0468,-3.011,-3.0028,-3.0243,-3.0295,-3.0427,-3.0578,-3.0707,-3.0745,-3.079,-3.0818,-3.0837,-3.0738,-3.065,-3.0628,-3.0603,-3.0517,-3.0448,-3.0298,-3.0099,-2.9969,-2.981,-2.9593,-2.9686,-2.9598,-2.9456,-2.8974,-2.8074,-2.6794,-2.5729,-2.5468,-2.4752,-2.4265,-2.3963,-2.4016,-2.4064,-2.4084,-2.4133,-2.4199,-2.419,-2.4141,-2.3955,-2.3621,-2.3328,-2.3021,-2.2699,-2.2459,-2.2141,-2.1744,-2.1181,-2.0715,-2.0382,-2.0052,-1.9726,-1.9723,-1.9723,-1.9723,-1.9723,-1.9723,-1.9723,-1.9723,-1.9723,-1.969,-1.9672,-1.9566,-1.9295,-1.8912,-1.8798,-1.8283,-1.7572,-1.6967,-1.5962,-1.5286,-1.4595,-1.3956,-1.3348,-1.231,-1.1341,-1.044,-0.9684,-0.9061,-0.8778,-0.8778,-0.8778,-0.8778,-0.8929,-0.9185,-0.9666,-1.009,-1.0796,-1.155,-1.1931,-1.2261,-1.2851,-1.3164,-1.3156,-1.3262,-1.3505,-1.3443,-1.3065,-1.2725,-1.2363,-3.4185,-3.3314,-3.2815,-3.2687,-3.2827,-3.2969,-3.3556,-3.4277,-3.378,-3.3545,-3.3302,-3.2137,-3.1542,-3.1296,-3.0663,-3.045,-3.0491,-3.0497,-3.0578,-3.0728,-3.0813,-3.0897,-3.0898,-3.0879,-3.0889,-3.0796,-3.0664,-3.0568,-3.0529,-3.0452,-3.0297,-3.0112,-3.003,-2.9916,-2.972,-2.9624,-2.9616,-2.9464,-2.9394,-2.9204,-2.8728,-2.7824,-2.6892,-2.5978,-2.5145,-2.4291,-2.3618,-2.3649,-2.3756,-2.3834,-2.4054,-2.417,-2.4161,-2.3907,-2.3617,-2.3369,-2.3171,-2.2958,-2.2436,-2.2141,-2.1818,-2.1476,-2.0927,-2.0466,-2.0176,-1.9945,-1.9723,-1.9723,-1.9723,-1.9723,-1.9723,-1.9723,-1.9723,-1.9723,-1.9723,-1.9723,-1.9672,-1.935,-1.908,-1.8708,-1.8438,-1.7947,-1.734,-1.679,-1.6238,-1.5588,-1.4949,-1.4318,-1.3474,-1.237,-1.1291,-1.0312,-0.9588,-0.8982,-0.8778,-0.8778,-0.8778,-0.8778,-0.8929,-0.9185,-0.9917,-1.0542,-1.1359,-1.2015,-1.2403,-1.2632,-1.289,-1.3045,-1.3041,-1.3224,-1.3467,-1.3286,-1.2954,-1.2652,-1.2255,-3.4707,-3.4348,-3.3942,-3.3852,-3.3942,-3.3971,-3.4223,-3.4542,-3.4308,-3.3998,-3.3718,-3.311,-3.2625,-3.2231,-3.1543,-3.124,-3.1192,-3.0903,-3.0728,-3.084,-3.0937,-3.1133,-3.1338,-3.1081,-3.0867,-3.1195,-3.0839,-3.0488,-3.0442,-3.0414,-3.026,-3.0025,-2.9877,-2.9731,-2.9523,-2.9385,-2.9262,-2.9192,-2.9138,-2.8984,-2.8554,-2.7864,-2.6929,-2.5797,-2.498,-2.4129,-2.346,-2.3294,-2.3515,-2.366,-2.3876,-2.4016,-2.4074,-2.3886,-2.3555,-2.3253,-2.3009,-2.2717,-2.2332,-2.2075,-2.1751,-2.1338,-2.0862,-2.0549,-2.0122,-1.9836,-1.9723,-1.9723,-1.9723,-1.969,-1.969,-1.9723,-1.9723,-1.9705,-1.9636,-1.969,-1.9584,-1.9169,-1.8841,-1.8458,-1.8033,-1.7544,-1.7105,-1.6676,-1.6182,-1.5666,-1.5005,-1.4365,-1.3335,-1.2116,-1.1057,-1.0038,-0.9387,-0.8831,-0.8778,-0.8778,-0.8778,-0.8778,-0.8778,-0.9256,-1.0261,-1.1049,-1.1658,-1.2255,-1.2666,-1.2856,-1.2929,-1.3128,-1.331,-1.3372,-1.342,-1.319,-1.292,-1.2295,-1.1758,-3.5179,-3.5174,-3.4851,-3.4724,-3.4793,-3.4812,-3.4841,-3.4908,-3.4907,-3.4655,-3.4249,-3.3941,-3.3508,-3.2966,-3.2382,-3.2159,-3.221,-3.1597,-3.1317,-3.1269,-3.1269,-3.1523,-3.1659,-3.137,-3.1456,-3.2077,-3.1659,-3.1128,-3.0744,-3.0606,-3.0468,-2.9962,-2.9722,-2.9514,-2.9301,-2.9138,-2.901,-2.8845,-2.8833,-2.8627,-2.8234,-2.7738,-2.668,-2.5671,-2.4782,-2.4027,-2.3152,-2.3057,-2.3224,-2.3346,-2.3533,-2.3703,-2.3917,-2.3703,-2.3448,-2.3165,-2.2935,-2.263,-2.2343,-2.2061,-2.1721,-2.1229,-2.0682,-2.0277,-1.9889,-1.9723,-1.9723,-1.9723,-1.9723,-1.9654,-1.953,-1.9475,-1.9424,-1.942,-1.9439,-1.9548,-1.9515,-1.8949,-1.8535,-1.821,-1.7787,-1.7229,-1.6824,-1.6484,-1.6073,-1.5644,-1.5073,-1.4399,-1.3215,-1.1904,-1.1057,-1.009,-0.9309,-0.8857,-0.8778,-0.8778,-0.8778,-0.8778,-0.8778,-0.9309,-1.0338,-1.0965,-1.145,-1.2073,-1.27,-1.2666,-1.2501,-1.3074,-1.3542,-1.3348,-1.3166,-1.3166,-1.2842,-1.212,-1.1291,-3.5479,-3.5432,-3.4926,-3.487,-3.506,-3.507,-3.5215,-3.5369,-3.5398,-3.536,-3.5131,-3.4577,-3.3876,-3.3306,-3.3178,-3.3106,-3.3189,-3.3156,-3.2629,-3.2246,-3.2109,-3.2109,-3.2134,-3.2157,-3.2165,-3.2769,-3.2452,-3.191,-3.1456,-3.1184,-3.0625,-2.9844,-2.9683,-2.9347,-2.9112,-2.8964,-2.8761,-2.8577,-2.8471,-2.8264,-2.802,-2.7628,-2.6891,-2.5582,-2.4983,-2.4268,-2.2569,-2.275,-2.2967,-2.3055,-2.32,-2.3385,-2.3628,-2.3459,-2.3247,-2.3081,-2.2815,-2.2541,-2.2318,-2.2003,-2.1507,-2.0943,-2.0379,-1.9942,-1.9744,-1.9723,-1.9723,-1.9672,-1.9584,-1.9402,-1.9165,-1.8964,-1.8949,-1.8949,-1.9001,-1.9095,-1.8949,-1.8496,-1.8125,-1.7927,-1.7483,-1.6909,-1.6471,-1.6126,-1.5996,-1.5588,-1.4778,-1.412,-1.2938,-1.1724,-1.1116,-1.0287,-0.9387,-0.8936,-0.8804,-0.8778,-0.8778,-0.8778,-0.8778,-0.9491,-1.0389,-1.0872,-1.1049,-1.1758,-1.228,-1.2187,-1.2129,-1.2365,-1.2618,-1.2852,-1.2837,-1.2442,-1.2089,-1.14,-1.0695,-3.55,-3.5467,-3.5281,-3.5239,-3.5354,-3.5354,-3.541,-3.5474,-3.55,-3.55,-3.5475,-3.5173,-3.4925,-3.4579,-3.4163,-3.4046,-3.4033,-3.3547,-3.3241,-3.2812,-3.248,-3.2703,-3.2793,-3.267,-3.2416,-3.3179,-3.3023,-3.2462,-3.1848,-3.1722,-3.1477,-3.0849,-2.9944,-2.9339,-2.9055,-2.8852,-2.8577,-2.8407,-2.8166,-2.7922,-2.7604,-2.748,-2.6846,-2.5584,-2.5401,-2.4844,-2.3808,-2.3303,-2.3295,-2.3319,-2.3277,-2.333,-2.3388,-2.3254,-2.3081,-2.291,-2.2625,-2.244,-2.2335,-2.2063,-2.1751,-2.0959,-2.0258,-1.9708,-1.9726,-1.9723,-1.9723,-1.9599,-1.9299,-1.9001,-1.8968,-1.8645,-1.8419,-1.8419,-1.8477,-1.8574,-1.8438,-1.8027,-1.7666,-1.745,-1.7008,-1.6475,-1.6083,-1.5742,-1.5676,-1.5509,-1.4664,-1.3687,-1.2477,-1.1475,-1.0821,-1.0261,-0.9387,-0.8936,-0.8804,-0.8778,-0.8778,-0.8778,-0.8804,-0.9465,-1.0141,-1.0141,-1.0423,-1.1208,-1.1708,-1.15,-1.14,-1.1475,-1.1658,-1.1891,-1.1692,-1.1334,-1.0956,-1.0652,-1.0123,-3.55,-3.55,-3.55,-3.55,-3.55,-3.55,-3.55,-3.55,-3.55,-3.5521,-3.5528,-3.5588,-3.5645,-3.5531,-3.5249,-3.4992,-3.4908,-3.4549,-3.4101,-3.3686,-3.3396,-3.3517,-3.3619,-3.3505,-3.3179,-3.3772,-3.3557,-3.3033,-3.2378,-3.2227,-3.1875,-3.127,-3.0417,-2.9698,-2.9359,-2.884,-2.8527,-2.8342,-2.8061,-2.7692,-2.7363,-2.7128,-2.6691,-2.5725,-2.5556,-2.5133,-2.4457,-2.396,-2.3879,-2.379,-2.363,-2.337,-2.3258,-2.3122,-2.287,-2.2665,-2.2477,-2.2327,-2.2299,-2.2077,-2.1766,-2.1023,-2.0364,-1.9927,-1.9729,-1.9723,-1.9723,-1.9636,-1.9095,-1.8645,-1.8688,-1.8204,-1.7907,-1.7867,-1.7867,-1.7933,-1.79,-1.7619,-1.7286,-1.6954,-1.6373,-1.5666,-1.5241,-1.479,-1.4333,-1.4045,-1.3151,-1.241,-1.178,-1.0922,-1.0397,-0.984,-0.9283,-0.8982,-0.8778,-0.8778,-0.8778,-0.8778,-0.8857,-0.9185,-0.9614,-0.964,-0.9994,-1.0847,-1.1099,-1.0762,-1.0661,-1.0669,-1.0771,-1.0897,-1.0771,-1.072,-1.0397,-1.0123,-0.9692,-3.5481,-3.55,-3.55,-3.55,-3.55,-3.55,-3.55,-3.5488,-3.5501,-3.5547,-3.5599,-3.5606,-3.571,-3.5812,-3.5689,-3.569,-3.5742,-3.5684,-3.5329,-3.4627,-3.4197,-3.4354,-3.4226,-3.4018,-3.3818,-3.4725,-3.4425,-3.3684,-3.2989,-3.292,-3.2439,-3.1666,-3.09,-3.0073,-3.0081,-2.936,-2.8791,-2.8394,-2.802,-2.7634,-2.7257,-2.6939,-2.6368,-2.5996,-2.5812,-2.5456,-2.5033,-2.4643,-2.4552,-2.446,-2.3827,-2.3584,-2.3625,-2.2876,-2.2588,-2.2608,-2.2494,-2.2395,-2.2338,-2.1919,-2.1542,-2.1023,-2.0398,-1.9982,-1.978,-1.9723,-1.9636,-1.9493,-1.8987,-1.8472,-1.8106,-1.7666,-1.7422,-1.7182,-1.7162,-1.7024,-1.697,-1.681,-1.6378,-1.6154,-1.542,-1.4664,-1.4238,-1.3737,-1.3028,-1.2366,-1.1523,-1.1007,-1.0788,-1.0491,-0.9994,-0.9543,-0.908,-0.8956,-0.8778,-0.8778,-0.8778,-0.8778,-0.8883,-0.9106,-0.9309,-0.9465,-0.9943,-1.0568,-1.044,-1.009,-0.9935,-0.9832,-0.9961,-1.0115,-1.0423,-1.0372,-0.9994,-0.9655,-0.9292,-3.4968,-3.55,-3.55,-3.55,-3.55,-3.55,-3.5481,-3.5501,-3.554,-3.5568,-3.5626,-3.5737,-3.5838,-3.5903,-3.5947,-3.5975,-3.5996,-3.5996,-3.562,-3.5431,-3.4891,-3.492,-3.4772,-3.4408,-3.4257,-3.4586,-3.4492,-3.4167,-3.3517,-3.3481,-3.3412,-3.2774,-3.1462,-3.043,-2.9569,-2.8846,-2.8407,-2.8061,-2.7692,-2.7286,-2.6938,-2.6774,-2.6573,-2.6285,-2.6285,-2.6099,-2.5795,-2.5455,-2.5236,-2.5082,-2.4392,-2.3856,-2.371,-2.296,-2.2637,-2.2692,-2.2665,-2.311,-2.3029,-2.2683,-2.1919,-2.1198,-2.0396,-1.9945,-1.9726,-1.9723,-1.953,-1.9207,-1.8803,-1.8263,-1.768,-1.7118,-1.674,-1.6232,-1.6046,-1.5806,-1.5674,-1.5453,-1.5208,-1.5186,-1.4721,-1.3901,-1.3324,-1.2391,-1.1614,-1.1299,-1.061,-1.0364,-1.0167,-1.0038,-0.971,-0.9263,-0.8883,-0.8831,-0.8778,-0.8778,-0.8778,-0.8778,-0.8778,-0.8883,-0.9061,-0.9237,-0.9316,-0.9666,-0.9536,-0.9413,-0.9276,-0.9171,-0.9237,-0.9394,-0.9565,-0.9706,-0.9439,-0.9234,-0.9118,-3.4545,-3.5064,-3.5385,-3.5502,-3.5528,-3.5534,-3.5546,-3.5571,-3.5621,-3.5657,-3.5721,-3.5836,-3.5911,-3.5945,-3.5974,-3.5994,-3.5954,-3.5952,-3.5864,-3.573,-3.5223,-3.5209,-3.5096,-3.4726,-3.457,-3.459,-3.4375,-3.4043,-3.3768,-3.3802,-3.3433,-3.2789,-3.2137,-3.0661,-2.9494,-2.8639,-2.8277,-2.7922,-2.7577,-2.7224,-2.6988,-2.6825,-2.6691,-2.6657,-2.6657,-2.6623,-2.6539,-2.6285,-2.5964,-2.5655,-2.5088,-2.4391,-2.4047,-2.3638,-2.328,-2.3313,-2.3431,-2.3832,-2.3776,-2.3194,-2.2475,-2.1919,-2.0667,-1.9922,-1.9762,-1.9723,-1.9387,-1.9024,-1.8597,-1.8034,-1.7447,-1.6833,-1.6262,-1.58,-1.5443,-1.5253,-1.4846,-1.4698,-1.4445,-1.4399,-1.376,-1.3004,-1.2147,-1.1124,-1.0167,-0.9969,-0.9769,-0.9692,-0.9588,-0.951,-0.9439,-0.9087,-0.8811,-0.8804,-0.8778,-0.8778,-0.8778,-0.8778,-0.8778,-0.8778,-0.8804,-0.8982,-0.8857,-0.8785,-0.8996,-0.9015,-0.8659,-0.856,-0.8738,-0.8671,-0.857,-0.8671,-0.8718,-0.8758,-0.8748,-3.4167,-3.4321,-3.5103,-3.5495,-3.559,-3.5601,-3.5653,-3.5719,-3.5707,-3.5769,-3.5878,-3.588,-3.5944,-3.5995,-3.6015,-3.5971,-3.591,-3.5905,-3.5791,-3.5685,-3.5461,-3.5516,-3.5379,-3.5092,-3.4793,-3.4569,-3.4334,-3.3999,-3.382,-3.368,-3.313,-3.2441,-3.2011,-3.0801,-2.9654,-2.8852,-2.8361,-2.7862,-2.7502,-2.7225,-2.7019,-2.6858,-2.6725,-2.6708,-2.6708,-2.6708,-2.6657,-2.6556,-2.6556,-2.6319,-2.5879,-2.5625,-2.5304,-2.488,-2.4626,-2.4508,-2.4508,-2.453,-2.4379,-2.3695,-2.3099,-2.2499,-2.1301,-2.0406,-1.9896,-1.9791,-1.9494,-1.8989,-1.8525,-1.7963,-1.7402,-1.6799,-1.6193,-1.578,-1.5387,-1.4983,-1.4491,-1.4167,-1.3862,-1.3403,-1.2541,-1.1706,-1.0754,-0.9769,-0.952,-0.9316,-0.9263,-0.9211,-0.9133,-0.908,-0.9035,-0.9008,-0.8804,-0.8778,-0.8778,-0.8778,-0.8778,-0.8778,-0.8778,-0.8778,-0.8778,-0.8778,-0.8778,-0.8785,-0.8805,-0.8692,-0.8348,-0.8286,-0.8406,-0.8239,-0.7901,-0.8123,-0.8327,-0.8345,-0.8294,-3.3622,-3.4218,-3.4542,-3.5016,-3.5573,-3.5742,-3.5758,-3.5713,-3.5799,-3.5873,-3.5884,-3.5968,-3.5996,-3.6016,-3.5948,-3.5916,-3.5875,-3.5797,-3.5694,-3.564,-3.5604,-3.5558,-3.5362,-3.5069,-3.4813,-3.454,-3.4225,-3.3928,-3.3762,-3.3578,-3.3357,-3.2874,-3.1969,-3.0967,-3.0246,-2.9521,-2.8598,-2.7853,-2.7509,-2.7198,-2.7005,-2.6775,-2.6708,-2.6708,-2.6708,-2.6708,-2.6708,-2.6708,-2.6708,-2.6573,-2.5998,-2.5642,-2.5558,-2.4965,-2.4609,-2.522,-2.5257,-2.5212,-2.4928,-2.4311,-2.3674,-2.3049,-2.1919,-2.1129,-2.052,-2.0038,-1.9734,-1.9219,-1.8903,-1.8552,-1.7735,-1.6983,-1.618,-1.5519,-1.504,-1.4449,-1.4021,-1.3793,-1.3478,-1.2998,-1.209,-1.1167,-1.0102,-0.9556,-0.9315,-0.899,-0.8798,-0.8831,-0.8791,-0.8798,-0.8778,-0.8778,-0.8778,-0.8778,-0.8778,-0.8778,-0.8778,-0.8778,-0.8778,-0.8778,-0.8778,-0.8778,-0.8778,-0.8851,-0.8971,-0.8595,-0.8049,-0.8112,-0.8289,-0.768,-0.7348,-0.7653,-0.7897,-0.7875,-0.7772,-3.2998,-3.373,-3.3834,-3.4376,-3.5145,-3.5369,-3.554,-3.5779,-3.5897,-3.5944,-3.5947,-3.5975,-3.6016,-3.5996,-3.5922,-3.5873,-3.5802,-3.5705,-3.5611,-3.556,-3.5562,-3.5438,-3.5227,-3.4988,-3.4735,-3.4445,-3.4189,-3.3967,-3.373,-3.3404,-3.3133,-3.2769,-3.1868,-3.1287,-3.0647,-2.9972,-2.9145,-2.8338,-2.7705,-2.7214,-2.6961,-2.6759,-2.6708,-2.6725,-2.6725,-2.6708,-2.6708,-2.6708,-2.6708,-2.6691,-2.615,-2.6065,-2.6048,-2.5642,-2.5489,-2.6031,-2.6049,-2.5984,-2.5735,-2.5031,-2.436,-2.3668,-2.2874,-2.2214,-2.1265,-2.0554,-2.0118,-1.9666,-1.9569,-1.929,-1.8206,-1.7173,-1.616,-1.5185,-1.4527,-1.3855,-1.3615,-1.3446,-1.3086,-1.2739,-1.1966,-1.1064,-1.0265,-0.9662,-0.9253,-0.9133,-0.9112,-0.9158,-0.9031,-0.8878,-0.8838,-0.8778,-0.8778,-0.8778,-0.8791,-0.8811,-0.8798,-0.8798,-0.8778,-0.8778,-0.8785,-0.8825,-0.8898,-0.9024,-0.9217,-0.8711,-0.8103,-0.8149,-0.8195,-0.7449,-0.6801,-0.69,-0.7141,-0.7326,-0.7215,-3.2341,-3.3014,-3.3156,-3.3682,-3.4386,-3.4609,-3.5176,-3.5879,-3.5937,-3.6016,-3.5996,-3.6016,-3.5996,-3.5973,-3.5889,-3.5775,-3.5725,-3.5636,-3.556,-3.5481,-3.5422,-3.5327,-3.5179,-3.4988,-3.4605,-3.4315,-3.4099,-3.3941,-3.3721,-3.3317,-3.2825,-3.2484,-3.1916,-3.1352,-3.0815,-3.0489,-2.9815,-2.9102,-2.849,-2.7978,-2.7284,-2.6945,-2.6776,-2.6826,-2.6776,-2.6708,-2.6708,-2.6708,-2.6708,-2.6708,-2.6691,-2.6623,-2.6589,-2.6556,-2.6573,-2.6573,-2.6539,-2.6421,-2.6177,-2.5597,-2.5182,-2.4662,-2.42,-2.3332,-2.2299,-2.155,-2.1134,-2.0415,-2.0247,-1.9761,-1.8808,-1.7722,-1.6657,-1.5715,-1.4933,-1.4274,-1.3779,-1.362,-1.3396,-1.2937,-1.2228,-1.1325,-1.0478,-0.9877,-0.9515,-0.9381,-0.9365,-0.9426,-0.9339,-0.9098,-0.8998,-0.8911,-0.8904,-0.8924,-0.8911,-0.8911,-0.8845,-0.8818,-0.8844,-0.8865,-0.8924,-0.8978,-0.8998,-0.9245,-0.9449,-0.8795,-0.8315,-0.8293,-0.7877,-0.692,-0.6395,-0.6195,-0.6314,-0.6604,-0.656,-3.2007,-3.225,-3.2966,-3.3116,-3.2988,-3.416,-3.4785,-3.5078,-3.5723,-3.5996,-3.6016,-3.5996,-3.5954,-3.5917,-3.5807,-3.5689,-3.5645,-3.5585,-3.5541,-3.542,-3.5327,-3.5198,-3.4999,-3.4686,-3.439,-3.4206,-3.4018,-3.3831,-3.3546,-3.3075,-3.265,-3.2401,-3.1824,-3.1206,-3.1109,-3.0876,-3.0482,-2.9837,-2.9583,-2.9093,-2.8518,-2.7858,-2.7536,-2.7351,-2.7182,-2.6776,-2.6725,-2.6708,-2.6708,-2.6691,-2.6691,-2.6691,-2.6691,-2.6708,-2.6708,-2.6708,-2.6657,-2.6504,-2.6209,-2.5781,-2.5316,-2.4812,-2.4251,-2.3914,-2.3426,-2.2909,-2.2239,-2.1389,-2.0656,-2.0054,-1.9336,-1.824,-1.7185,-1.628,-1.5368,-1.4661,-1.3994,-1.3876,-1.3746,-1.314,-1.2472,-1.1639,-1.0783,-1.0227,-0.986,-0.9672,-0.9628,-0.9633,-0.9639,-0.9492,-0.9365,-0.9264,-0.9151,-0.9131,-0.9104,-0.9098,-0.9098,-0.8991,-0.8965,-0.9018,-0.9084,-0.9279,-0.9432,-0.9586,-0.9597,-0.9118,-0.865,-0.82,-0.7643,-0.6682,-0.5994,-0.5815,-0.5715,-0.5925,-0.5801,-3.1646,-3.2004,-3.2554,-3.2807,-3.291,-3.375,-3.4531,-3.5273,-3.5759,-3.595,-3.597,-3.5949,-3.5922,-3.5867,-3.5726,-3.5638,-3.5585,-3.5547,-3.5508,-3.5412,-3.5215,-3.5053,-3.4755,-3.4405,-3.4183,-3.4006,-3.3876,-3.368,-3.3255,-3.2872,-3.2451,-3.2161,-3.1543,-3.1288,-3.137,-3.1278,-3.1004,-3.0598,-3.0548,-3.0277,-2.9736,-2.9008,-2.8111,-2.7791,-2.7435,-2.7046,-2.6725,-2.6708,-2.6708,-2.6708,-2.6708,-2.6708,-2.6708,-2.6708,-2.6708,-2.6624,-2.6487,-2.6279,-2.5979,-2.5577,-2.5109,-2.4612,-2.4116,-2.3706,-2.3513,-2.2947,-2.2307,-2.1463,-2.0441,-1.9787,-1.9284,-1.8343,-1.7431,-1.6558,-1.5616,-1.4772,-1.4463,-1.4336,-1.3989,-1.3441,-1.2681,-1.1793,-1.1088,-1.0732,-1.0355,-0.9986,-0.9927,-0.9963,-0.995,-0.9909,-0.976,-0.9637,-0.9537,-0.9466,-0.9432,-0.9419,-0.9399,-0.9279,-0.9125,-0.9279,-0.9452,-0.9693,-0.99,-0.996,-0.9939,-0.9772,-0.9259,-0.8553,-0.7695,-0.6772,-0.6054,-0.5474,-0.5395,-0.5395,-0.5448,-3.1285,-3.1841,-3.1971,-3.25,-3.3203,-3.3379,-3.4277,-3.5623,-3.5879,-3.59,-3.5871,-3.5862,-3.5862,-3.5797,-3.569,-3.5626,-3.5566,-3.5522,-3.5488,-3.5335,-3.513,-3.486,-3.4582,-3.4307,-3.3993,-3.3778,-3.3648,-3.3181,-3.2665,-3.2384,-3.2127,-3.1788,-3.1564,-3.137,-3.1526,-3.143,-3.1089,-3.1055,-3.1038,-3.1106,-3.0581,-2.989,-2.889,-2.8246,-2.779,-2.7401,-2.6945,-2.6708,-2.6708,-2.6708,-2.6708,-2.6708,-2.6708,-2.6708,-2.659,-2.6504,-2.6262,-2.6049,-2.5742,-2.5166,-2.4756,-2.4328,-2.39,-2.3623,-2.3471,-2.2854,-2.2202,-2.1435,-2.0395,-1.9504,-1.8995,-1.8405,-1.7542,-1.674,-1.5763,-1.4875,-1.4706,-1.4563,-1.407,-1.3538,-1.2671,-1.1797,-1.1491,-1.1152,-1.083,-1.0458,-1.0353,-1.0335,-1.0329,-1.0238,-1.0157,-1.006,-0.9993,-0.9893,-0.9773,-0.9726,-0.9706,-0.9552,-0.9446,-0.9606,-0.9786,-1.0013,-1.016,-1.0207,-1.0148,-1.0027,-0.9495,-0.8752,-0.7859,-0.6944,-0.6075,-0.5425,-0.5395,-0.5395,-0.5395,-3.0976,-3.1112,-3.1133,-3.166,-3.248,-3.3125,-3.3981,-3.4901,-3.5632,-3.5843,-3.5743,-3.5682,-3.5663,-3.5663,-3.565,-3.5588,-3.5528,-3.5474,-3.532,-3.5147,-3.4889,-3.4603,-3.43,-3.4012,-3.3684,-3.3447,-3.3255,-3.295,-3.24,-3.2109,-3.1897,-3.1751,-3.1389,-3.1269,-3.1252,-3.119,-3.119,-3.119,-3.119,-3.119,-3.1004,-3.0328,-2.9583,-2.8856,-2.8111,-2.7452,-2.6911,-2.6725,-2.6708,-2.6708,-2.6708,-2.6708,-2.6708,-2.6674,-2.6539,-2.6262,-2.6013,-2.5689,-2.5281,-2.4914,-2.4572,-2.4266,-2.3948,-2.3815,-2.3355,-2.2455,-2.1862,-2.1325,-2.0281,-1.9137,-1.8499,-1.8005,-1.7246,-1.6541,-1.5682,-1.4965,-1.4514,-1.4216,-1.3829,-1.3118,-1.2321,-1.1889,-1.1768,-1.1486,-1.1225,-1.0988,-1.1012,-1.0964,-1.0715,-1.0597,-1.0472,-1.0425,-1.0365,-1.0241,-1.0087,-1.004,-0.9993,-0.9833,-0.9789,-0.993,-1.011,-1.0338,-1.0428,-1.0182,-1.0278,-1.0262,-0.962,-0.8549,-0.8091,-0.7177,-0.6108,-0.5458,-0.5428,-0.5423,-0.5446]},{"header":{"parameterUnit":"m.s-1","parameterCategory":1,"la1":31.0,"la2":29.5877,"lo1":-88.7671,"lo2":-86.6584,"dy":0.0162,"dx":0.0185,"nx":115,"ny":88,"refTime":"2023-08-23T06:00:00:Z","depth":0,"parameterNumber":3,"parameterNumberName":"V-component_of_WINDS"},"data":[0.0,0.0,0.0,0.0,0.0,0.0,0.0,0.0,0.0,0.0,0.0,0.0,0.0,0.0,0.0,0.0,0.0,0.0,0.0,0.0,0.0,0.0,0.0,0.0,0.0,0.0,0.0,0.0,0.0,0.0,0.0,0.0,0.0,0.0,0.0,0.0,0.0,0.0,0.0,0.0,0.0,0.0,0.0,0.0,0.0,0.0,0.0,0.0,0.0,0.0,0.0,0.0,0.0,0.0,0.0,0.0,0.0,0.0,0.0,0.0,0.0,0.0,0.0,0.0,0.0,0.0,0.0,0.0,0.0,0.0,0.0,0.0,0.0,0.0,0.0,0.0,0.0,0.0,0.0,0.0,0.0,0.0,0.0,0.0,0.0,0.0,0.0,0.0,0.0,0.0,0.0,0.0,0.0,0.0,0.0,0.0,0.0,0.0,0.0,0.0,0.0,0.0,0.0,0.0,0.0,0.0,0.0,0.0,0.0,0.0,0.0,0.0,0.0,0.0,0.0,0.0,0.0,0.0,0.0,0.0,0.0,0.0,0.0,0.0,0.0,0.0,0.0,0.0,0.0,0.0,0.0,0.0,0.0,0.0,0.0,0.0,0.0,0.0,0.0,0.0,0.0,0.0,0.0,0.0,0.0,0.0,0.0,0.0,0.0,0.0,0.0,0.0,0.0,0.0,0.0,0.0,0.0,0.0,0.0,0.0,0.0,0.0,0.0,0.0,0.0,0.0,0.0,0.0,0.0,0.0,0.0,0.0,0.0,0.0,0.0,0.0,0.0,0.0,0.0,0.0,0.0,0.0,0.0,0.0,0.0,0.0,0.0,0.0,0.0,0.0,0.0,0.0,0.0,0.0,0.0,0.0,0.0,0.0,0.0,0.0,0.0,0.0,0.0,0.0,0.0,0.0,0.0,0.0,0.0,0.0,0.0,0.0,0.0,0.0,0.0,0.0,0.0,0.0,0.0,0.0,0.0,0.0,0.0,0.0,0.0,0.0,0.0,0.0,0.0,0.0,0.0,0.0,0.0,0.0,0.0,0.0,0.0,0.0,0.0,0.0,0.0,0.0,0.0,0.0,0.0,0.0,0.0,0.0,0.0,0.0,0.0,0.0,0.0,0.0,0.0,0.0,0.0,0.0,0.0,0.0,0.0,0.0,0.0,0.0,0.0,0.0,0.0,0.0,0.0,0.0,0.0,0.0,0.0,0.0,0.0,0.0,0.0,0.0,0.0,0.0,0.0,0.0,0.0,0.0,0.0,0.0,0.0,0.0,0.0,0.0,0.0,0.0,0.0,0.0,0.0,0.0,0.0,0.0,0.0,0.0,0.0,0.0,0.0,0.0,0.0,0.0,0.0,0.0,0.0,0.0,0.0,0.0,0.0,0.0,0.0,0.0,0.0,0.0,0.0,0.0,0.0,0.0,0.0,0.0,0.0,0.0,0.0,0.0,0.0,0.0,0.0,0.0,0.0,0.0,0.0,0.0,0.0,0.0,0.0,0.0,0.0,0.0,0.0,0.0,0.0,0.0,0.0,0.0,0.0,0.0,0.0,0.0,0.0,0.0,0.0,0.0,0.0,0.0,0.0,0.0,0.0,0.0,0.0,0.0,0.0,0.0,0.0,0.0,0.0,0.0,0.0,0.0,0.0,0.0,0.0,0.0,0.0,0.0,0.0,0.0,0.0,0.0,0.0,0.0,0.0,0.0,0.0,0.0,0.0,0.0,0.0,0.0,0.0,0.0,0.0,0.0,0.0,0.0,0.0,0.0,0.0,0.0,0.0,0.0,0.0,0.0,0.0,0.0,0.0,0.0,0.0,0.0,0.0,0.0,0.0,0.0,0.0,0.0,0.0,0.0,0.0,0.0,0.0,0.0,0.0,0.0,0.0,0.0,0.0,0.0,0.0,0.0,0.0,0.0,0.0,0.0,0.0,0.0,0.0,0.0,0.0,0.0,0.0,0.0,0.0,0.0,0.0,0.0,0.0,0.0,0.0,0.0,0.0,0.0,0.0,0.0,0.0,0.0,0.0,0.0,0.0,0.0,0.0,0.0,0.0,0.0,0.0,0.0,0.0,0.0,0.0,0.0,0.0,0.0,0.0,0.0,0.0,0.0,0.0,0.0,0.0,0.0,0.0,0.0,0.0,0.0,0.0,0.0,0.0,0.0,0.0,0.0,0.0,0.0,0.0,0.0,0.0,0.0,0.0,0.0,0.0,0.0,0.0,0.0,0.0,0.0,0.0,0.0,0.0,0.0,0.0,0.0,0.0,0.0,0.0,0.0,0.0,0.0,0.0,0.0,0.0,0.0,0.0,0.0,0.0,0.0,0.0,0.0,0.0,0.0,0.0,0.0,0.0,0.0,0.0,0.0,0.0,0.0,0.0,0.0,0.0,0.0,0.0,0.0,0.0,0.0,0.0,0.0,0.0,0.0,0.0,0.0,0.0,0.0,0.0,0.0,0.0,0.0,0.0,0.0,0.0,0.0,0.0,0.0,0.0,0.0,0.0,0.0,0.0,0.0,0.0,0.0,0.0,0.0,0.0,0.0,0.0,0.0,0.0,0.0,0.0,0.0,0.0,0.0,0.0,0.0,0.0,0.0,0.0,0.0,0.0,0.0,0.0,0.0,0.0,0.0,0.0,0.0,0.0,0.0,0.0,0.0,0.0,0.0,0.0,0.0,0.0,0.0,0.0,0.0,0.0,0.0,0.0,0.0,0.0,0.0,0.0,0.0,0.0,0.0,0.0,0.0,0.0,0.0,0.0,0.0,0.0,0.0,0.0,0.0,0.0,0.0,0.0,0.0,0.0,0.0,0.0,0.0,0.0,0.0,0.0,0.0,0.0,0.0,0.0,0.0,0.0,0.0,0.0,0.0,0.0,0.0,0.0,0.0,0.0,0.0,0.0,0.0,0.0,0.0,0.0,0.0,0.0,0.0,0.0,0.0,0.0,0.0,0.0,0.0,0.0,0.0,0.0,0.0,0.0,0.0,0.0,0.0,0.0,0.0,0.0,0.0,0.0,0.0,0.0,0.0,0.0,0.0,0.0,0.0,0.0,0.0,0.0,0.0,0.0,0.0,0.0,0.0,0.0,0.0,0.0,0.0,0.0,0.0,0.0,0.0,0.0,0.0,0.0,0.0,0.0,0.0,0.0,0.0,0.0,0.0,0.0,0.0,0.0,0.0,0.0,0.0,0.0,0.0,0.0,0.0,0.0,0.0,0.0,0.0,0.0,0.0,0.0,0.0,0.0,0.0,0.0,0.0,0.0,0.0,0.0,0.0,0.0,0.0,0.0,0.0,0.0,0.0,0.0,0.0,0.0,0.0,0.0,0.0,0.0,0.0,0.0,0.0,0.0,0.0,0.0,0.0,0.0,0.0,0.0,0.0,0.0,0.0,0.0,0.0,0.0,0.0,0.0,0.0,0.0,0.0,0.0,0.0,0.0,0.0,0.0,0.0,0.0,0.0,0.0,0.0,0.0,0.0,0.0,0.0,0.0,0.0,0.0,0.0,0.0,0.0,0.0,0.0,0.0,0.0,0.0,0.0,0.0,0.0,0.0,0.0,0.0,0.0,0.0,0.0,0.0,0.0,0.0,0.0,0.0,0.0,0.0,0.0,0.0,0.0,0.0,0.0,0.0,0.0,0.0,0.0,0.0,0.0,0.0,0.0,0.0,0.0,0.0,0.0,0.0,0.0,0.0,0.0,0.0,0.0,0.0,0.0,0.0,0.0,0.0,0.0,0.0,0.0,0.0,0.0,0.0,0.0,0.0,0.0,0.0,0.0,0.0,0.0,0.0,0.0,0.0,0.0,0.0,0.0,0.0,0.0,0.0,0.0,0.0,0.0,0.0,0.0,0.0,0.0,0.0,0.0,0.0,0.0,0.0,0.0,0.0,0.0,0.0,0.0,0.0,0.0,0.0,0.0,0.0,0.0,0.0,0.0,0.0,0.0,0.0,0.0,0.0,0.0,0.0,0.0,0.0,0.0,0.0,0.0,0.0,0.0,0.0,0.0,0.0,0.0,0.0,0.0,0.0,0.0,0.0,0.0,0.0,0.0,0.0,0.0,0.0,0.0,0.0,0.0,0.0,0.0,0.0,0.0,0.0,0.0,0.0,0.0,0.0,0.0,0.0,0.0,0.0,0.0,0.0,0.0,0.0,0.0,0.0,0.0,0.0,0.0,0.0,0.0,0.0,0.0,0.0,0.0,0.0,0.0,0.0,0.0,0.0,0.0,0.0,0.0,0.0,0.0,0.0,0.0,0.0,0.0,0.3976,0.0,0.0,0.0,0.0,0.0,0.0,0.0,0.0,0.0,0.0,0.0,0.0,0.0,0.0,0.0,0.0,0.0,0.0,0.0,0.0,0.0,0.0,0.0,0.0,0.0,0.0,0.0,0.0,0.0,0.0,0.0,0.0,0.0,0.0,0.0,0.0,0.0,0.0,0.0,0.0,0.0,0.0,0.0,0.0,0.0,0.0,0.0,0.0,0.0,0.0,0.0,0.0,0.0,0.0,0.0,0.0,0.0,0.0,0.0,0.0,0.0,0.0,0.0,0.0,0.0,0.0,0.0,0.0,0.0,0.0,0.0,0.0,0.0,0.0,0.0,0.0,0.0,0.0,0.0,0.0,0.0,0.0,0.0,0.0,0.0,0.0,0.0,0.0,0.0,0.0,0.0,0.0,0.0,0.0,0.0,0.0,0.0,0.0,0.0,0.0,0.0,0.0,0.0,0.0,0.0,0.0,0.0,0.0,0.0,0.0,0.1759,0.2659,0.2519,0.289,0.3852,0.0,0.0,0.0,0.0,0.0,0.0,0.0,0.0,0.0,0.0,0.0,0.0,0.0,0.0,0.0,0.0,0.0,0.0,0.0,0.0,0.0,0.0,0.0,0.0,0.0,0.0,0.0,0.0,0.0,0.0,0.0,0.0,0.0,0.0,0.0,0.0,0.0,0.0,0.0,0.0,0.0,0.0,0.0,0.0,0.0,0.0,0.0,0.0,0.0,0.0,0.0,0.0,0.0,0.0,0.0,0.0,0.0,0.0,0.0,0.0,0.0,0.0,0.0,0.0,0.0,0.0,0.0,0.0,0.0,0.0,0.0,0.0,0.0,0.0,0.0,0.0,0.0,0.0,0.0,0.0,0.0,0.0,0.0,0.0,0.0,0.0,0.0,0.0,0.0,0.0,0.0,0.0,0.0,0.0,0.0,0.0,0.0,0.0,0.0,0.0,0.0,0.0,0.0,0.0,0.0,0.0,0.0,0.0,0.0,0.0,0.0,0.0,0.2335,0.2705,0.3706,0.0,0.0,0.0,0.0,0.0,0.0,0.0,0.0,0.0,0.0,0.0,0.0,0.0,0.0,0.0,0.0,0.0,0.0,0.0,0.0,0.0,0.0,0.0,0.0,0.0,0.0,0.0,0.0,0.0,0.0,0.0,0.0,0.0,0.0,0.0,0.0,0.0,0.0,0.0,0.0,0.0,0.0,0.0,0.0,0.0,0.0,0.0,0.0,0.0,0.0,0.0,0.0,0.0,0.0,0.0,0.0,0.0,0.0,0.0,0.0,0.0,0.0,0.0,0.0,0.0,0.0,0.0,0.0,0.0,0.0,0.0,0.0,0.0,0.0,0.0,0.0,0.0,0.0,0.0,0.0,0.0,0.0,0.0,0.0,0.0,0.0,0.0,0.0,0.0,0.0,0.0,0.0,0.0,0.0,0.0,0.0,0.0,0.0,0.0,0.0,0.0,0.0,0.0,0.0,0.0,0.0,0.0,0.0,0.0,0.0,0.1244,0.1851,0.2209,0.0,0.3321,0.0,0.0,0.0,0.0,0.0,0.0,0.0,0.0,0.0,0.0,0.0,0.0,0.0,0.0,0.0,0.0,0.0,0.0,0.0,0.0,0.0,0.0,0.0,0.0,0.0,0.0,0.0,0.0,0.0,0.0,0.0,0.0,0.0,0.0,0.0,0.0,0.0,0.0,0.0,0.0,0.0,0.0,0.0,0.0,0.0,0.0,0.0,0.0,0.0,0.0,0.0,0.0,0.0,0.0,0.0,0.0,0.0,0.0,0.0,0.0,0.0,0.0,0.0,0.0,0.0,0.0,0.0,0.0,0.0,0.0,0.0,0.0,0.0,0.0,0.0,0.0,0.0,0.0,0.0,0.0,0.0,0.0,0.0,0.0,0.0,0.0,0.0,0.0,0.0,0.0,0.0,0.0,0.0,0.0,0.0,0.0,0.0,0.0,0.0,0.0,0.0,0.0,0.0,0.0,0.0,0.0,0.0,0.0,0.0,0.0,0.1295,0.1901,0.2349,0.2633,0.0,0.0,0.0,0.0,0.0,0.0,0.0,0.0,0.0,0.0,0.0,0.0,0.0,0.0,0.0,0.0,0.0,0.0,0.0,0.0,0.0,0.0,0.0,0.0,0.0,0.0,0.0,0.0,0.0,0.0,0.0,0.0,0.0,0.0,0.0,0.0,0.0,0.0,0.0,0.0,0.0,0.0,0.0,0.0,0.0,0.0,0.0,0.0,0.0,0.0,0.0,0.0,0.0,0.0,0.0,0.0,0.0,0.0,0.0,0.0,0.0,0.0,0.0,0.0,0.0,0.0,0.0,0.0,0.0,0.0,0.0,0.0,0.0,0.0,0.0,0.0,0.0,0.0,0.0,0.0,0.0,0.0,0.0,0.0,0.0,0.0,0.0,0.0,0.0,0.0,0.0,0.0,0.0,0.0,0.0,0.0,0.0,0.0,0.0,0.0,0.0,0.0,0.0,0.0,0.0,0.0,0.0,0.0,0.0,0.0,0.0745,0.138,0.1981,0.2305,0.2386,0.2249,0.0,0.0,0.0,0.0,0.0,0.0,0.0,0.0,0.0,0.0,0.0,0.0,0.0,0.0,0.0,0.0,0.0,0.0,0.0,0.0,0.0,0.0,0.0,0.0,0.0,0.0,0.0,0.0,0.0,0.0,0.0,0.0,0.0,0.0,0.0,0.0,0.0,0.0,0.0,0.0,0.0,0.0,0.0,0.0,0.0,0.0,0.0,0.0,0.0,0.0,0.0,0.0,0.0,0.0,0.0,0.0,0.0,0.0,0.0,0.0,0.0,0.0,0.0,0.0,0.0,0.0,0.0,0.0,0.0,0.0,0.0,0.0,0.0,0.0,0.0,0.0,0.0,0.0,0.0,0.0,0.0,0.0,0.0,0.0,0.0,0.0,0.0,0.0,0.0,0.0,0.0,0.0,0.0,0.0,0.0,0.0,0.0,0.0,0.0,0.0,0.0,0.0,0.0,0.0,0.0,0.0,0.0,0.0,-0.0154,0.0656,0.1392,0.1967,0.1893,0.1832,0.0,0.0,0.0,0.0,0.0,0.0,0.0,0.0,0.0,0.0,0.0,0.0,0.0,0.0,0.0,0.0,0.0,0.0,0.0,0.0,0.0,0.0,0.0,0.0,0.0,0.0,0.0,0.0,0.0,0.0,0.0,0.0,0.0,0.0,0.0,0.0,0.0,0.0,0.0,0.0,0.0,0.0,0.0,0.0,0.0,0.0,0.0,0.0,0.0,0.0,0.0,0.0,0.0,0.0,0.0,0.0,0.0,0.0,0.0,0.0,0.0,0.0,0.0,0.0,0.0,0.0,0.0,0.0,0.0,0.0,0.0,0.0,0.0,0.0,0.0,0.0,0.0,0.0,0.0,0.0,0.0,0.0,0.0,0.0,0.0,0.0,0.0,0.0,0.0,0.0,0.0,0.0,0.0,0.0,0.0,0.0,0.0,0.0,0.0,0.0,0.0,0.0,0.0,0.0,0.0,0.0,0.0,0.0,0.0,-0.0178,0.0558,0.1264,0.1828,0.1623,0.1575,0.0,0.0,0.0,0.0,0.0,0.0,0.0,0.0,0.0,0.0,0.0,0.0,0.0,0.0,0.0,0.0,0.0,0.0,0.0,0.0,0.0,0.0,0.0,0.0,0.0,0.0,0.0,0.0,0.0,0.0,0.0,0.0,0.0,0.0,0.0,0.0,0.0,0.0,0.0,0.0,0.0,0.0,0.0,0.0,0.0,0.0,0.0,0.0,0.0,0.0,0.0,0.0,0.0,0.0,0.0,0.0,0.0,0.0,0.0,0.0,0.0,0.0,0.0,0.0,0.0,0.0,0.0,0.0,0.0,0.0,0.0,0.0,0.0,0.0,0.0,0.0,0.0,0.0,0.0,0.0,0.0,0.0,0.0,0.0,0.0,0.0,0.0,0.0,0.0,0.0,0.0,0.0,0.0,0.0,0.0,0.0,0.0,0.0,0.0,0.0,0.0,0.0,0.0,0.0,0.0,0.0,0.0,0.0,0.0,-0.0141,0.0,0.0652,0.1458,0.1188,0.1197,0.0,0.0,0.0,0.0,0.0,0.0,0.0,0.0,0.0,0.0,0.0,0.0,0.0,0.0,0.0,0.0,0.0,0.0,0.0,0.0,0.0,0.0,0.0,0.0,0.0,0.0,0.0,0.0,0.0,0.0,0.0,0.0,0.0,0.0,0.0,0.0,0.0,0.0,0.0,0.0,0.0,0.0,0.0,0.0,0.0,0.0,0.0,0.0,0.0,0.0,0.0,0.0,0.0,0.0,0.0,0.0,0.0,0.0,0.0,0.0,0.0,0.0,0.0,0.0,0.0,0.0,0.0,0.0,0.0,0.0,0.0,0.0,0.0,0.0,0.0,0.0,0.0,0.0,0.0,0.0,0.0,0.0,0.0,0.0,0.0,0.0,0.0,0.0,0.0,0.0,0.0,0.0,0.0,0.0,0.0,0.0,0.0,0.0,0.0,0.0,0.0,0.0,0.0,0.0,0.0,0.0,0.0,0.0,-0.0655,-0.0077,-0.0714,-0.0405,0.0817,0.0595,0.0688,0.0,0.0,0.0,0.0,0.0,0.0,0.0,0.0,0.0,0.0,0.0,0.0,0.0,0.0,0.0,0.0,0.0,0.0,0.0,0.0,0.0,0.0,0.0,0.0,0.0,0.0,0.0,0.0,0.0,0.0,0.0,0.0,0.0,0.0,0.0,0.0,0.0,0.0,0.0,0.0,0.0,0.0,0.0,0.0,0.0,0.0,0.0,0.0,0.0,0.0,0.0,0.0,0.0,0.0,0.0,0.0,0.0,0.0,0.0,0.0,0.0,0.0,0.0,0.0,0.0,0.0,0.0,0.0,0.0,0.0,0.0,0.0,0.0,0.0,0.0,0.0,0.0,0.0,0.0,0.0,0.0,0.0,0.0,0.0,0.0,0.0,0.0,0.0,0.0,0.0,0.0,0.0,0.0,0.0,0.0,0.0,0.0,0.0,0.0,0.0,0.0,0.0,0.0,0.0,0.0,0.0,0.0,0.0,0.0,-0.0932,-0.1022,-0.0663,0.0226,0.0366,0.0593,0.0,0.0,0.0,0.0,0.0,0.0,0.0,0.0,0.0,0.0,0.0,0.0,0.0,0.0,0.0,0.0,0.0,0.0,0.0,0.0,0.0,0.0,0.0,0.0,0.0,0.0,0.0,0.0,0.0,0.0,0.0,0.0,0.0,0.0,0.0,0.0,0.0,0.0,0.0,0.0,0.0,0.0,0.0,0.0,0.0,0.0,0.0,0.0,0.0,0.0,0.0,0.0,0.0,0.0,0.0,0.0,0.0,0.0,0.0,0.0,0.0,0.0,0.0,0.0,0.0,0.0,0.0,0.0,0.0,0.0,0.0,0.0,0.0,0.0,0.0,0.0,0.0,0.0,0.0,0.0,0.0,0.0,0.0,0.0,0.0,0.0,0.0,0.0,0.0,0.0,0.0,0.0,0.0,0.0,0.0,0.0,0.0,0.0,0.0,0.0,0.0,0.0,0.0,0.0,0.0,0.0,0.0,0.0,0.0,-0.2465,-0.202,-0.1415,-0.0682,-0.0281,0.0208,0.0803,0.0,0.0,0.0,0.0,0.0,0.0,0.0,0.0,0.0,0.0,0.0,0.0,0.0,0.0,0.0,0.0,0.0,0.0,0.0,0.0,0.0,0.0,0.0,0.0,0.0,0.0,0.0,0.0,0.0,0.0,0.0,0.0,0.0,0.0,0.0,0.0,0.0,0.0,0.0,0.0,0.0,0.0,0.0,0.0,0.0,0.0,0.0,0.0,0.0,0.0,0.0,0.0,0.0,0.0,0.0,0.0,0.0,0.0,0.0,0.0,0.0,0.0,0.0,0.0,0.0,0.0,0.0,0.0,0.0,0.0,0.0,0.0,0.0,0.0,0.0,0.0,0.0,0.0,0.0,0.0,0.0,0.0,0.0,0.0,0.0,0.0,0.0,0.0,0.0,0.0,0.0,0.0,0.0,0.0,0.0,0.0,0.0,0.0,0.0,0.0,0.0,0.0,0.0,0.0,0.0,0.0,0.0,0.0,-0.4441,-0.3472,-0.2623,-0.1877,-0.1269,-0.0455,0.0,0.0,0.0,0.0,0.0,0.0,0.0,0.0,0.0,0.0,0.0,0.0,0.0,0.0,0.0,0.0,0.0,0.0,0.0,0.0,0.0,0.0,0.0,0.0,0.0,0.0,0.0,0.0,0.0,0.0,0.0,0.0,0.0,0.0,0.0,0.0,0.0,0.0,0.0,0.0,0.0,0.0,0.0,0.0,0.0,0.0,0.0,0.0,0.0,0.0,0.0,0.0,0.0,0.0,0.0,0.0,0.0,0.0,0.0,0.0,0.0,0.0,0.0,0.0,0.0,0.0,0.0,0.0,0.0,0.0,0.0,0.0,0.0,0.0,0.0,0.0,0.0,0.0,0.0,0.0,0.0,0.0,0.0,0.0,0.0,0.0,0.0,0.0,0.0,0.0,0.0,0.0,0.0,0.0,0.0,0.0,0.0,0.0,0.0,0.0,0.0,0.0,0.0,0.0,0.0,0.0,0.0,0.0,0.0,-0.4934,-0.4259,-0.3471,-0.263,-0.2136,-0.1209,0.0,0.0,0.0,0.0,0.0,0.0,0.0,0.0,0.0,0.0,0.0,0.0,0.0,0.0,0.0,0.0,0.0,0.0,0.0,0.0,0.0,0.0,0.0,0.0,0.0,0.0,0.0,0.0,0.0,0.0,0.0,0.0,0.0,0.0,0.0,0.0,0.0,0.0,0.0,0.0,0.0,0.0,0.0,0.0,0.0,0.0,0.0,0.0,0.0,0.0,0.0,0.0,0.0,0.0,0.0,0.0,0.0,0.0,0.0,0.0,0.0,0.0,0.0,0.0,0.0,0.0,0.0,0.0,0.0,0.0,0.0,0.0,0.0,0.0,0.0,0.0,0.0,0.0,0.0,0.0,0.0,0.0,0.0,0.0,0.0,0.0,0.0,0.0,0.0,0.0,0.0,0.0,0.0,0.0,0.0,0.0,0.0,0.0,0.0,0.0,0.0,0.0,0.0,0.0,0.0,0.0,0.0,0.0,-0.4987,-0.58,-0.5577,-0.4994,-0.4012,-0.2961,-0.1674,0.0,0.0,0.0,0.0,0.0,0.0,0.0,0.0,0.0,0.0,0.0,0.0,0.0,0.0,0.0,0.0,0.0,0.0,0.0,0.0,0.0,0.0,0.0,0.0,0.0,0.0,0.0,0.0,0.0,0.0,0.0,0.0,0.0,0.0,0.0,0.0,0.0,0.0,0.0,0.0,0.0,0.0,0.0,0.0,0.0,0.0,0.0,0.0,0.0,0.0,0.0,0.0,0.0,0.0,0.0,0.0,0.0,0.0,0.0,0.0,0.0,0.0,0.0,0.0,0.0,0.0,0.0,0.0,0.0,0.0,0.0,0.0,0.0,0.0,0.0,0.0,0.0,0.0,0.0,0.0,0.0,0.0,0.0,0.0,0.0,0.0,0.0,0.0,0.0,0.0,0.0,0.0,0.0,0.0,0.0,0.0,0.0,0.0,0.0,0.0,0.0,0.0,0.0,0.0,0.0,0.0,0.0,0.0,-0.5823,-0.6695,-0.6973,-0.6586,-0.5558,-0.3813,-0.2096,0.0,0.0,0.0,0.0,0.0,0.0,0.0,0.0,0.0,0.0,0.0,0.0,0.0,0.0,0.0,0.0,0.0,0.0,0.0,0.0,0.0,0.0,0.0,0.0,0.0,0.0,0.0,0.0,0.0,0.0,0.0,0.0,0.0,0.0,0.0,0.0,0.0,0.0,0.0,0.0,0.0,0.0,0.0,0.0,0.0,0.0,0.0,0.0,0.0,0.0,0.0,0.0,0.0,0.0,0.0,0.0,0.0,0.0,0.0,0.0,0.0,0.0,0.0,0.0,0.0,0.0,0.0,0.0,0.0,0.0,0.0,0.0,0.0,0.0,0.0,0.0,0.0,0.0,0.0,0.0,0.0,0.0,0.0,0.0,0.0,0.0,0.0,0.0,0.0,0.0,0.0,0.0,0.0,0.0,0.0,0.0,0.0,0.0,0.0,0.0,0.0,0.0,0.0,0.0,0.0,0.0,0.0,0.0,-0.5718,-0.6654,-0.6514,-0.6225,-0.5829,-0.477,-0.3249,0.0,0.0,0.0,0.0,0.0,0.0,0.0,0.0,0.0,0.0,0.0,0.0,0.0,0.0,0.0,0.0,0.0,0.0,0.0,0.0,0.0,0.0,0.0,0.0,0.0,0.0,0.0,0.0,0.0,0.0,0.0,0.0,0.0,0.0,0.0,0.0,0.0,0.0,0.0,0.0,0.0,0.0,0.0,0.0,0.0,0.0,0.0,0.0,0.9457,0.0,0.0,0.0,0.0,0.0,0.0,0.0,0.0,0.0,0.0,0.0,0.0,0.0,0.0,0.0,0.0,0.0,0.0,0.0,0.0,0.0,0.0,0.0,0.0,0.0,0.0,0.0,0.0,0.0,0.0,0.0,0.0,0.0,0.0,0.0,0.0,0.0,0.0,0.0,0.0,0.0,0.0,0.0,0.0,0.0,0.0,0.0,0.0,0.0,0.0,0.0,0.0,0.0,0.0,0.0,0.0,0.0,0.0,0.0,-0.5942,-0.6989,-0.673,-0.6475,-0.6211,-0.5267,-0.3793,0.0,0.0,0.0,0.0,0.0,0.0,0.0,0.0,0.0,0.0,0.0,0.0,0.0,0.0,0.0,0.0,0.0,0.0,0.0,0.0,0.0,0.0,0.0,0.0,0.0,0.0,0.0,0.0,0.0,0.0,0.0,0.0,0.0,0.0,0.0,0.0,0.0,0.0,0.0,0.0,0.0,0.0,0.0,0.0,0.0,0.0,0.0,0.0,0.0,0.0,0.0,0.0,0.0,0.0,0.0,0.0,0.0,0.0,0.0,0.0,0.0,0.0,0.0,0.0,0.0,0.0,0.0,0.0,0.0,0.0,0.0,0.0,0.0,0.0,0.0,0.0,0.0,0.0,0.0,0.0,0.0,0.0,0.0,0.0,0.0,0.0,0.0,0.0,0.0,0.0,0.0,0.0,0.0,0.0,0.0,0.0,0.0,0.0,0.0,0.0,0.0,0.0,0.0,0.0,0.0,0.0,0.0,-0.5728,-0.6293,-0.7326,-0.7141,-0.688,-0.666,-0.5518,-0.408,-0.2371,0.0,0.0,0.0,0.0,0.0,0.0,0.0,0.0,0.0,0.0,0.0,0.0,0.0,0.0,0.0,0.0,0.0,0.0,0.0,0.0,0.0,0.0,0.0,0.0,0.0,0.0,0.0,0.0,0.0,0.0,0.0,0.0,0.0,0.0,0.0,0.0,0.0,0.0,0.6742,0.7548,0.0,0.0,0.0,0.0,0.0,0.0,0.0,0.0,0.9138,0.0,0.0,0.0,0.0,0.0,0.0,0.0,0.0,0.0,0.0,0.0,0.0,0.0,0.0,0.0,0.0,0.0,0.0,0.0,0.0,0.0,0.0,0.0,0.0,0.0,0.0,0.0,0.0,0.0,0.0,0.0,0.0,0.0,0.0,0.0,0.0,0.0,0.0,0.0,0.0,0.0,0.0,0.0,0.0,0.0,0.0,0.0,0.0,0.0,0.0,0.0,0.0,0.0,0.0,0.0,0.0,-0.5901,-0.601,-0.6464,-0.7362,-0.7141,-0.6973,-0.6899,-0.5611,-0.4508,-0.3641,0.0,0.0,0.0,0.0,0.0,0.0,0.0,0.0,0.0,0.0,0.0,0.0,0.0,0.0,0.0,0.0,0.0,0.0,0.0,0.0,0.0,0.0,0.0,0.0,0.0,0.0,0.0,0.0,0.0,0.0,0.0,0.0,0.0,0.0,0.0,0.0,0.0,0.0,0.0,0.8108,0.865,0.0,0.0,0.0,0.0,0.0,0.0,0.0,0.0,0.9055,0.0,0.0,0.0,0.0,0.0,0.0,0.0,0.0,0.0,0.0,0.0,0.0,0.0,0.0,0.0,0.0,0.0,0.0,0.0,0.0,0.0,0.0,0.0,0.0,0.0,0.0,0.0,0.0,0.0,0.0,0.0,0.0,0.0,0.0,0.0,0.0,0.0,0.0,0.0,0.0,0.0,0.0,0.0,0.0,0.0,0.0,0.0,0.0,0.0,0.0,0.0,0.0,0.0,0.0,0.0,-0.5445,-0.6091,-0.6619,-0.7067,-0.7034,-0.6947,-0.6767,-0.5474,-0.4417,0.0,0.0,0.0,0.0,0.0,0.0,0.0,0.0,0.0,0.0,0.0,0.0,0.0,0.0,0.0,0.0,0.0,0.0,0.0,0.0,0.0,0.0,0.0,0.0,0.0,0.0,0.0,0.0,0.0,0.0,0.0,0.0,0.0,0.0,0.0,0.0,0.0,0.0,0.0,0.0,0.7832,0.8249,0.8107,0.0,0.0,0.0,0.0,0.0,0.0,0.9457,0.9408,0.0,0.0,0.0,0.0,0.0,0.0,0.0,0.0,0.0,0.0,0.0,0.0,0.0,0.0,0.0,0.0,0.0,0.0,0.0,0.0,0.0,0.0,0.0,0.0,0.0,0.0,0.0,0.0,0.0,0.0,0.0,0.0,0.0,0.0,0.0,0.0,0.0,0.0,0.0,0.0,0.0,0.0,0.0,0.0,0.0,0.0,0.0,0.0,0.0,0.0,0.0,0.0,0.0,0.0,0.0,-0.5004,-0.5988,-0.6561,-0.6693,-0.6783,-0.6734,-0.6506,-0.5256,-0.4233,0.0,0.0,0.0,0.0,0.0,0.0,0.0,0.0,0.0,0.0,0.0,0.0,0.0,0.0,0.0,0.0,0.0,0.0,0.0,0.0,0.0,0.0,0.0,0.0,0.0,0.0,0.0,0.0,0.0,0.0,0.0,0.0,0.0,0.0,0.0,0.0,0.0,0.0,0.0,0.0,0.0,0.7937,0.7794,0.8637,0.0,0.0,0.0,0.0,0.9557,0.9862,0.0,0.0,0.0,0.0,0.0,0.0,0.0,0.0,0.0,0.0,0.0,0.0,0.0,0.0,0.0,0.0,0.0,0.0,0.0,0.0,0.0,0.0,0.0,0.0,0.0,0.0,0.0,0.0,0.0,0.0,0.0,0.0,0.0,0.0,0.0,0.0,0.0,0.0,0.0,0.0,0.0,0.0,0.0,0.0,0.0,0.0,0.0,0.0,0.0,0.0,0.0,0.0,0.0,0.0,0.0,0.0,-0.4981,-0.5536,-0.6006,-0.6338,-0.6297,-0.6283,-0.6243,-0.5061,-0.4121,0.0,0.0,0.0,0.0,0.0,0.0,0.0,0.0,0.0,0.0,0.0,0.0,0.0,0.0,0.0,0.0,0.0,0.0,0.0,0.0,0.0,0.0,0.0,0.0,0.0,0.0,0.0,0.0,0.0,0.0,0.0,0.0,0.0,0.0,0.0,0.0,0.0,0.0,0.0,0.0,0.0,0.8444,0.8035,0.9031,0.9813,0.0,0.0,0.9964,1.0736,1.0784,0.0,0.0,0.0,0.0,0.0,0.0,0.0,0.0,0.0,0.0,0.0,0.0,0.0,0.0,0.0,0.0,0.0,0.0,0.0,0.0,0.0,0.0,0.0,0.0,0.0,0.0,0.0,0.0,0.0,0.0,0.0,0.0,0.0,0.0,0.0,0.0,0.0,0.0,0.0,0.0,0.0,0.0,0.0,0.0,0.0,0.0,0.0,0.0,0.0,0.0,0.0,0.0,0.0,0.0,0.0,-0.4108,-0.4669,-0.5582,-0.6021,-0.597,-0.6113,-0.6109,-0.5923,-0.4787,-0.3894,0.0,0.0,0.0,0.0,0.0,0.0,0.0,0.0,0.0,0.0,0.0,0.0,0.0,0.0,0.0,0.0,0.0,0.0,0.0,0.0,0.0,0.0,0.0,0.0,0.0,0.0,0.0,0.0,0.0,0.0,0.0,0.0,0.0,0.0,0.0,0.0,0.0,0.0,0.0,0.0,0.0,0.0,0.8336,0.9432,0.0,0.0,0.0,1.0864,1.0708,0.0,0.0,0.0,0.0,0.0,0.0,0.0,0.0,0.0,0.0,0.0,0.0,0.0,0.0,0.0,0.0,0.0,0.0,0.0,0.0,0.0,0.0,0.0,0.0,0.0,0.0,0.0,0.0,0.0,0.0,0.0,0.0,0.0,0.0,0.0,0.0,0.0,0.0,0.0,0.0,0.0,0.0,0.0,0.0,0.0,0.0,0.0,0.0,0.0,0.0,0.0,0.0,0.0,0.0,0.0,0.0,0.0,-0.4316,-0.5375,-0.5822,-0.5608,-0.5836,-0.579,-0.5413,-0.446,0.0,0.0,0.0,0.0,0.0,0.0,0.0,0.0,0.0,0.0,0.0,0.0,0.0,0.0,0.0,0.0,0.0,0.0,0.0,0.0,0.0,0.0,0.0,0.0,0.0,0.0,0.0,0.2079,0.0,0.0,0.0,0.0,0.0,0.0,0.0,0.0,0.0,0.0,0.0,0.0,0.0,0.0,0.8401,0.8673,0.9692,1.0277,0.0,0.0,1.1491,1.0845,1.0861,1.0671,0.0,0.0,0.0,0.0,0.0,0.0,0.0,0.0,0.0,0.0,0.0,0.0,0.0,0.0,0.0,0.0,0.0,0.0,0.0,0.0,0.0,0.0,0.0,0.0,0.0,0.0,0.0,0.0,0.0,0.0,0.0,0.0,0.0,0.0,0.0,0.0,0.0,0.0,0.0,0.0,0.0,0.0,0.0,0.0,0.0,0.0,0.0,0.0,0.0,0.0,0.0,0.0,0.0,0.0,-0.339,-0.4015,-0.4614,-0.5061,-0.5316,-0.534,-0.5148,-0.4684,-0.4113,-0.3264,0.0,0.0,0.0,0.0,0.0,0.0,0.0,0.0,0.0,0.0,0.0,0.0,0.0,0.0,0.0,0.0,0.0,0.0,0.0,0.0,0.0,0.0,0.0,0.0,0.0,0.0,0.0,0.0,0.0,0.0,0.0,0.0,0.0,0.0,0.0,0.0,0.0,0.0,0.0,0.0,0.0,0.8509,0.901,0.9684,1.0295,0.0,1.1002,1.1283,1.1665,1.1902,1.1679,1.054,0.0,0.0,0.0,0.0,0.0,0.0,0.0,0.0,0.0,0.0,0.0,0.0,0.0,0.0,0.0,0.0,0.0,0.0,0.0,0.0,0.0,0.0,0.0,0.0,0.0,0.0,0.0,0.0,0.0,0.0,0.0,0.0,0.0,0.0,0.0,0.0,0.0,0.0,0.0,0.0,0.0,0.0,0.0,0.0,0.0,0.0,0.0,0.0,0.0,0.0,0.0,0.0,0.0,-0.3254,-0.4,-0.4533,-0.4969,-0.5298,-0.5309,-0.5065,-0.4618,-0.4077,-0.3293,0.0,0.0,0.0,0.0,0.0,0.0,0.0,0.0,0.0,0.0,0.0,0.0,0.0,0.0,0.0,0.0,0.0,0.0,0.0,0.0,0.0,0.0,0.0,0.0,0.0,0.0,0.0,0.0,0.2564,0.2729,0.2692,0.0,0.0,0.0,0.0,0.0,0.0,0.0,0.0,0.0,0.0,0.9288,0.982,1.0579,0.0,0.0,1.1497,1.1785,1.1803,1.1238,1.0697,1.0435,0.9811,0.0,0.0,0.0,0.0,0.0,0.0,0.0,0.0,0.0,0.0,0.0,0.0,0.0,0.0,0.0,0.0,0.0,0.0,0.0,0.0,0.0,0.0,0.0,0.0,0.0,0.0,0.0,0.0,0.0,0.0,0.0,0.0,0.0,0.0,0.0,0.0,0.0,0.0,0.0,0.0,0.0,0.0,0.0,0.0,0.0,0.0,0.0,0.0,0.0,0.0,0.0,0.0,-0.3158,-0.3828,-0.4348,-0.4848,-0.528,-0.5039,-0.4762,-0.4419,-0.3878,-0.3167,0.0,0.0,0.0,0.0,0.0,0.0,0.0,0.0,0.0,0.0,0.0,0.0,0.0,0.0,0.0,0.0,0.0,0.0,0.0,0.0,0.0,0.0,0.0,0.0,0.0,0.0,0.0,0.0,0.2848,0.2982,0.2893,0.0,0.0,0.0,0.0,0.0,0.0,0.0,0.0,0.0,0.0,1.0262,1.0595,1.1421,1.1848,1.1464,1.1856,1.2128,1.194,1.1102,1.0521,1.0584,0.0,0.0,0.0,0.0,0.0,0.0,0.0,0.0,0.0,0.0,0.0,0.0,0.0,0.0,0.0,0.0,0.0,0.0,0.0,0.0,0.0,0.0,0.0,0.0,0.0,0.0,0.0,-0.0672,0.0,0.0,-0.0396,0.0,0.0,0.0,0.0,0.0,0.0,0.0,0.0,0.0,0.0,0.0,0.0,0.0,0.0,0.0,0.0,0.0,0.0,0.0,0.0,0.0,0.0,-0.3093,-0.3497,-0.3992,-0.4587,-0.5246,-0.4463,-0.4064,-0.401,-0.3426,-0.2708,-0.1827,0.0,0.0,0.0,0.0,0.0,0.0,0.0,0.0,0.0,0.0,0.0,0.0,0.0,0.0,0.0,0.0,0.0,0.0,0.0,0.0,0.0,0.0,0.0,0.0,0.0,0.0,0.2585,0.2739,0.2773,0.0,0.0,0.0,0.0,0.0,0.0,0.0,0.0,0.0,0.9666,1.0717,1.1309,1.1202,1.2037,1.2433,1.1794,1.1998,1.2205,1.2195,1.1915,1.1609,0.0,0.0,0.0,0.0,0.0,0.0,0.0,0.0,0.0,0.0,0.0,0.0,0.0,0.0,0.0,0.0,0.0,0.0,0.0,0.0,0.0,0.0,0.0,0.0,0.0,0.0,0.0,-0.1472,-0.1435,0.0,0.0,0.0,0.0,0.0,0.0,0.0,0.0,0.0,0.0,0.0,-0.3804,-0.4284,0.0,0.0,0.0,0.0,0.0,0.0,0.0,0.0,0.0,0.0,0.0,0.0,-0.2966,-0.3158,-0.4311,-0.4804,-0.4565,-0.4683,-0.4394,-0.3742,-0.3401,-0.2686,-0.1492,0.0,0.0,0.0,0.0,0.0,0.0,0.0,0.0,0.0,0.0,0.0,0.0,0.0,0.0,0.0,0.0,0.0,0.0,0.0,0.0,0.0,0.0,0.0,0.0,0.0,0.3078,0.0,0.0,0.0,0.0,0.0,0.0,0.0,0.0,0.0,0.0,0.0,0.9274,1.0303,1.111,1.1736,1.2143,1.2709,1.2943,0.0,0.0,0.0,0.0,0.0,0.0,0.0,0.0,0.0,0.0,0.0,0.0,0.0,0.0,1.2205,1.1334,1.1278,1.1347,1.1231,0.0,0.0,0.0,0.0,0.0,0.0,0.0,0.0,0.0,0.0,0.0,0.0,0.0,0.0,-0.2374,-0.2325,-0.2314,0.0,0.0,0.0,0.0,0.0,0.0,0.0,0.0,-0.3428,-0.4135,-0.5003,-0.5566,-0.6105,0.0,-0.6605,-0.583,0.0,0.0,0.0,0.0,0.0,0.0,0.0,0.0,-0.3219,-0.3327,-0.4351,-0.4711,-0.4287,-0.4299,-0.4088,-0.3606,-0.3216,-0.2481,-0.1327,-0.079,-0.0182,0.0,0.0,0.0,0.0,0.0,0.0,0.0,0.0,0.0,0.0,0.0,0.0,0.0,0.0,0.0,0.0,0.0,0.0,0.0,0.0,0.0,0.0,0.0,0.3469,0.0,0.0,0.0,0.0,0.0,0.0,0.0,0.0,0.0,0.8754,0.9563,1.0432,1.1388,1.2101,1.273,1.3316,0.0,0.0,0.0,0.0,0.0,0.0,0.0,1.2337,1.2829,1.2817,1.2586,1.2214,1.2715,1.3118,1.2917,0.0,0.0,1.2589,1.2369,1.2386,1.2452,1.2745,1.302,1.3068,1.3925,1.4648,0.0,0.0,0.0,0.0,0.0,0.0,0.0,0.0,-0.3537,-0.3452,0.0,-0.3324,0.0,0.0,0.0,0.0,-0.2534,-0.3433,0.0,0.0,-0.512,-0.5517,-0.5564,-0.6629,-0.7147,-0.7199,-0.7932,-0.7973,-0.733,-0.5377,0.0,0.0,0.0,0.0,0.0,0.0,-0.3823,-0.3978,-0.4204,-0.4294,-0.4319,-0.3445,-0.3158,-0.354,-0.2889,-0.2133,-0.1338,-0.0915,-0.0265,0.0648,0.0962,0.0,0.0,0.0,0.0,0.0,0.0,0.0,0.0,0.0,0.0,0.0,0.0,0.0,0.0,0.0,0.0,0.0,0.0,0.0,0.0,0.3253,0.0,0.0,0.0,0.0,0.0,0.0,0.0,0.0,0.0,0.0,0.993,1.0596,1.1552,1.2858,0.0,0.0,0.0,0.0,1.4483,1.5081,1.4924,1.4831,1.5128,1.4957,1.4772,1.4794,0.0,0.0,1.4252,1.4963,1.5154,1.3948,1.4648,1.5141,1.4183,1.3582,1.3298,1.3327,1.4068,1.4747,1.5036,1.609,1.7109,-0.3091,0.0,0.0,0.0,0.0,-0.2946,-0.3474,-0.4155,-0.4347,-0.4317,-0.4079,-0.4079,0.0,0.0,0.0,0.0,0.0,0.0,-0.5614,-0.6115,-0.6893,-0.7684,-0.8462,-0.9304,-0.9903,-1.0275,-1.0134,-0.9988,-0.9799,-0.859,-0.6768,-0.4405,0.0,0.0,0.0,0.0,-0.4285,-0.3941,-0.4777,-0.4739,-0.3644,-0.3656,-0.345,-0.2968,-0.2761,-0.2214,-0.1321,-0.1005,-0.0318,0.0774,0.0996,0.0,0.0,0.0,0.0,0.0,0.0,0.0,0.0,0.0,0.0,0.0,0.0,0.0,0.0,0.0,0.0,0.0,0.0,0.0,0.411,0.4101,0.4133,0.0,0.0,0.0,0.0,0.0,0.0,0.0,0.0,0.0,1.0983,1.1893,1.2811,0.0,0.0,1.4719,1.5262,1.534,1.5332,1.5304,1.5408,0.0,1.5237,1.512,1.5156,1.5335,1.5362,1.5492,1.5883,1.5921,1.5801,1.5552,1.5921,1.6193,1.6023,1.5055,1.4534,1.5011,1.545,1.5909,1.6583,1.7512,1.8159,-0.4142,-0.3256,-0.3136,-0.3378,-0.3857,-0.404,-0.4471,-0.5116,-0.5288,-0.5263,-0.5109,-0.5109,-0.484,-0.4373,-0.4263,0.0,0.0,0.0,-0.7021,-0.7719,-0.8419,-0.9113,-0.9819,-1.0478,-1.0981,-1.1268,-1.117,-1.1125,-1.1162,-1.0222,-0.8664,-0.6567,0.0,0.0,-0.4418,-0.4893,-0.4951,-0.4588,-0.5099,-0.4856,-0.3764,-0.3683,-0.3345,-0.2726,-0.2679,-0.2251,-0.134,-0.1142,-0.0507,0.0652,0.0902,0.1042,0.0,0.0,0.0,0.0,0.0,0.0,0.0,0.0,0.0,0.0,0.0,0.1743,0.1862,0.0,0.0,0.0,0.3462,0.44,0.4793,0.4967,0.0,0.0,0.0,0.0,0.0,0.0,0.0,0.7505,0.9329,1.098,1.203,1.2995,1.386,1.455,1.4673,1.5078,1.6124,0.0,1.5907,1.6221,1.6342,1.6362,1.6243,1.6334,1.6445,1.6611,1.6621,1.6717,1.7031,1.7055,1.6957,1.6808,1.6982,1.7023,1.651,1.6001,1.5863,1.6356,1.6569,1.6965,1.7849,1.8617,1.9114,-0.505,-0.4969,-0.4717,-0.4874,-0.5306,-0.5325,-0.5663,-0.6189,-0.6216,-0.6216,-0.6196,-0.6196,-0.6023,-0.5731,-0.554,0.0,-0.6282,-0.7277,-0.8194,-0.9049,-0.9711,-1.0032,-1.0109,-1.071,-1.0961,-1.0984,-1.1452,-1.1692,-1.1672,-1.0708,-0.9919,-0.9282,-0.7967,-0.6805,-0.5844,-0.5772,-0.5767,-0.5714,-0.5208,-0.4716,-0.4314,-0.3528,-0.2966,-0.271,-0.2692,-0.2255,-0.1365,-0.1297,-0.0757,0.0342,0.0726,0.0881,0.091,0.0,0.0,0.0,0.0,0.0,0.0,0.0,0.0,0.0,0.0,0.0,0.0,0.0,0.0,0.0,0.4385,0.0,0.517,0.5838,0.0,0.0,0.0,0.7001,0.6629,0.8272,0.9027,0.7986,0.0,0.0,1.2994,1.3876,1.4615,1.5049,1.4958,1.5472,1.7072,1.6507,1.6371,1.7478,1.7474,1.7399,1.758,1.7866,1.8031,1.809,1.8236,1.8024,1.7876,1.8169,1.8221,1.7666,1.7888,1.7796,1.6261,1.6826,1.7403,1.7502,1.7572,1.7935,1.8842,1.9509,1.9858,-0.6259,-0.5923,-0.6239,-0.6034,-0.5474,-0.5667,-0.5933,-0.6216,-0.6412,-0.6404,-0.6196,-0.6196,-0.6149,-0.6113,-0.6661,-0.7088,-0.7527,-0.8359,-0.9274,-1.0202,-1.0671,-1.1181,-1.1657,-1.2167,-1.2392,-1.2426,-1.2521,-1.2592,-1.2549,-1.1584,-1.0871,-1.0364,-0.8934,-0.7679,-0.6733,-0.6484,-0.6284,-0.609,-0.5508,-0.4664,-0.3605,-0.3255,-0.3035,-0.2859,-0.2661,-0.2157,-0.1357,-0.1214,-0.0665,0.0343,0.0729,0.0885,0.0897,0.1528,0.0,0.0,0.0,0.0,0.0,0.0,0.0,0.0,0.0,0.2018,0.2096,0.0,0.3215,0.0,0.5523,0.6825,0.6541,0.6742,0.0,0.0,0.7514,0.7628,0.8183,0.8148,0.861,1.0041,1.0654,1.1644,1.3469,1.3896,1.4523,1.5719,1.6138,1.6556,1.7203,1.7128,1.7034,1.7358,1.7368,1.7432,1.776,1.8035,1.8262,1.8487,1.8341,1.8177,1.8103,1.8371,1.8589,1.861,1.8834,1.8816,1.8434,1.8269,1.8391,1.8987,1.8906,1.8874,1.9604,1.9893,1.9943,-0.7228,-0.6981,-0.7294,-0.7004,-0.6383,-0.6394,-0.6439,-0.6573,-0.6713,-0.6687,-0.654,-0.6559,-0.654,-0.6599,-0.716,-0.7671,-0.8117,-0.888,-0.966,-1.0447,-1.1143,-1.1667,-1.2039,-1.2609,-1.2915,-1.2915,-1.2915,-1.2915,-1.2861,-1.1836,-1.1199,-1.0935,-0.9361,-0.8311,-0.7766,-0.7113,-0.6696,-0.6562,-0.5739,-0.4649,-0.3351,-0.3226,-0.3101,-0.2917,-0.2554,-0.2028,-0.1337,-0.1042,-0.0517,0.036,0.0719,0.0881,0.0901,0.1472,0.1573,0.0,0.0,0.0,0.0,0.0,0.0,0.0,0.0,0.0,0.0,0.0,0.4095,0.4991,0.6902,0.7933,0.7562,0.7888,0.8276,0.8653,0.8832,0.8951,0.9018,0.9239,0.9646,1.0283,1.0947,1.2032,1.3736,1.4084,1.4679,1.6013,1.6546,1.698,1.742,1.7509,1.7509,1.7526,1.7526,1.767,1.8082,1.8381,1.8556,1.8585,1.8576,1.8489,1.8259,1.8518,1.8825,1.8984,1.9166,1.9161,1.8845,1.8883,1.9001,1.9069,1.9273,1.9549,2.0024,2.0022,1.9858,-0.7865,-0.7786,-0.7858,-0.7782,-0.7553,-0.7226,-0.7093,-0.706,-0.706,-0.706,-0.706,-0.7013,-0.704,-0.7133,-0.7383,-0.78,-0.8341,-0.8985,-0.9596,-1.0181,-1.112,-1.1591,-1.1681,-1.2329,-1.2691,-1.274,-1.2774,-1.2764,-1.2706,-1.166,-1.1087,-1.1007,-0.9408,-0.8632,-0.8649,-0.7638,-0.7036,-0.6819,-0.5863,-0.4681,-0.3381,-0.3319,-0.3179,-0.2914,-0.2439,-0.1907,-0.1324,-0.0878,-0.0349,0.0307,0.0713,0.0885,0.0906,0.1402,0.1535,0.0,0.1745,0.0,0.0,0.0,0.0,0.0,0.0,0.0,0.0,0.4078,0.5322,0.6934,0.8199,0.8783,0.8387,0.903,0.9451,0.9455,1.0121,1.0285,0.9604,1.0564,1.0945,0.9965,1.126,1.2682,1.3877,1.431,1.491,1.5916,1.6507,1.7018,1.7589,1.7738,1.7777,1.7789,1.7789,1.7921,1.844,1.8744,1.8861,1.8715,1.8816,1.8825,1.84,1.8697,1.9019,1.907,1.919,1.9069,1.8372,1.8987,1.9283,1.8802,1.922,1.9756,2.0041,1.996,1.9767,-0.7631,-0.729,-0.7708,-0.7872,-0.7819,-0.7759,-0.7592,-0.7404,-0.7404,-0.7404,-0.7383,-0.7128,-0.7273,-0.7706,-0.7571,-0.7805,-0.8375,-0.8516,-0.9066,-0.9895,-1.0092,-1.0466,-1.099,-1.1116,-1.1475,-1.1981,-1.1996,-1.1996,-1.1996,-1.1042,-1.0501,-1.0349,-0.8816,-0.8271,-0.8648,0.0,0.0,0.0,-0.5729,-0.4956,-0.3603,-0.3394,-0.3219,-0.3064,-0.2384,0.0,-0.131,-0.0755,-0.0293,0.007,0.0595,0.0,0.0,0.0,0.0,0.0,0.0,0.0,0.0,0.0,0.0,0.0,0.444,0.429,0.3827,0.476,0.5977,0.7358,0.8833,0.9545,0.9212,0.9546,0.9906,1.016,1.011,1.0071,1.016,1.0002,1.0121,1.1148,1.1262,1.1964,1.3638,1.4262,1.4817,1.5619,1.6345,1.6926,1.7356,1.7641,1.7789,1.7789,1.7811,1.7997,1.8508,1.8651,1.8807,1.8878,1.8958,1.8958,1.8878,1.8905,1.9077,1.9198,1.9285,1.926,1.9077,1.9243,1.9379,1.9364,1.9383,1.9455,1.9694,1.9688,1.9603,-0.8181,-0.7974,-0.8231,-0.8283,0.0,-0.8303,-0.8196,-0.7926,-0.7756,-0.7702,-0.7689,-0.7519,-0.7619,-0.7905,-0.7923,-0.81,-0.8402,-0.8549,-0.8865,-0.9335,-0.964,-0.9994,-1.032,-1.0644,-1.099,-1.1291,-1.1316,-1.1316,-1.1249,-1.0507,-1.0086,-0.9986,-0.8869,-0.8482,-0.8717,-0.8118,-0.7102,-0.5705,-0.5384,-0.4674,-0.3674,-0.3503,-0.3241,-0.2811,-0.2224,0.0,0.0,0.0,0.0,0.0,0.0,0.0,0.0,0.1852,0.0,0.2028,0.2597,0.2942,0.297,0.3577,0.4159,0.4649,0.5179,0.5414,0.5283,0.5493,0.6266,0.7806,0.9149,0.9828,0.9636,0.9777,1.0135,1.0712,1.0508,1.0391,1.0591,1.0556,1.0876,1.1684,1.177,1.2275,1.373,1.4246,1.4773,1.5475,1.6273,1.7027,1.7596,1.7766,1.7789,1.7811,1.805,1.8262,1.8574,1.8816,1.8948,1.9009,1.9067,1.9111,1.9036,1.9086,1.919,1.9263,1.9279,1.9301,1.9409,1.9383,1.9357,1.952,1.9449,1.9327,1.9442,1.9456,1.9445,-0.8778,-0.8778,-0.8778,-0.8671,-0.8496,-0.8704,-0.8671,-0.8456,-0.8136,0.0,0.0,-0.7932,-0.7965,-0.8072,-0.829,-0.8429,-0.8496,-0.8697,-0.8778,-0.8831,-0.9387,-0.964,-0.964,-1.0185,-1.0491,-1.061,-1.0644,-1.0618,-1.0585,-1.0072,-0.9736,-0.9588,-0.908,-0.8732,-0.856,-0.7883,-0.6808,-0.549,-0.4993,-0.4411,-0.3667,-0.3614,-0.3243,-0.2516,-0.2041,-0.1451,-0.0712,-0.0248,0.0141,0.0453,0.0855,0.1265,0.163,0.1984,0.2197,0.2225,0.2887,0.3289,0.3321,0.4047,0.4637,0.4954,0.5628,0.6177,0.6541,0.6105,0.6492,0.8062,0.9157,0.9765,0.974,0.9842,1.026,1.1138,1.0925,1.0778,1.1028,1.1355,1.1755,1.2251,1.243,1.2852,1.3759,1.4379,1.485,1.5402,1.6285,1.7175,1.7899,1.7971,1.7861,1.7845,1.8135,1.8508,1.8642,1.893,1.9174,1.9094,1.9212,1.9292,1.9182,1.9259,1.9369,1.9394,1.939,1.9474,1.9596,1.9488,1.9409,1.9562,1.9431,1.9279,1.9279,1.9279,1.935,-0.8778,-0.8778,-0.8778,-0.8784,-0.8751,-0.8791,-0.8791,-0.8717,-0.8437,-0.8335,-0.8322,-0.8019,-0.8185,-0.8671,-0.847,-0.8536,-0.8744,-0.8784,-0.8778,-0.8811,-0.8883,-0.8936,-0.8956,-0.9035,-0.9387,-0.9917,-0.9943,-0.9943,-0.9943,-0.984,-0.9517,-0.9008,-0.8831,-0.848,-0.7836,-0.7128,-0.5983,-0.4459,-0.4828,-0.463,-0.3811,-0.3643,-0.3243,-0.2537,-0.2041,-0.1451,-0.073,-0.024,0.0199,0.0646,0.0925,0.1316,0.1755,0.2049,0.2197,0.2235,0.2905,0.3289,0.3313,0.4205,0.5044,0.5688,0.6164,0.6308,0.6051,0.643,0.703,0.7763,0.8709,0.9344,0.9437,0.9712,1.0173,1.0854,1.0808,1.0945,1.153,1.1615,1.1991,1.2822,1.2905,1.3161,1.3899,1.4805,1.5301,1.5359,1.6425,1.7427,1.78,1.8035,1.8018,1.7883,1.8057,1.8348,1.8593,1.8843,1.9084,1.9235,1.9394,1.952,1.9478,1.9585,1.9682,1.9713,1.9688,1.9732,1.9768,1.9656,1.9584,1.9616,1.9474,1.9327,1.932,1.9294,1.9312,-0.8778,-0.8778,-0.8778,-0.8778,-0.8778,-0.8778,-0.8778,-0.8798,-0.8664,-0.8636,-0.8649,-0.8822,-0.909,-0.9313,-0.9219,-0.9226,-0.9316,-0.8962,-0.8778,-0.8778,-0.8778,-0.8778,-0.8778,-0.8778,-0.8956,-0.9263,-0.9263,-0.9263,-0.9263,-0.9263,-0.9113,-0.8778,-0.8427,-0.7643,-0.6519,-0.5778,-0.4837,-0.3743,-0.3913,-0.3739,-0.3201,-0.2826,-0.2453,-0.2126,-0.1602,-0.1007,-0.0342,0.0123,0.0487,0.069,0.126,0.1674,0.1903,0.228,0.2464,0.2479,0.2987,0.3425,0.3655,0.456,0.5207,0.5555,0.5944,0.6006,0.5601,0.6381,0.7035,0.7369,0.8273,0.8953,0.9307,0.9516,1.0071,1.1228,1.0977,1.1211,1.2209,1.2203,1.2557,1.3668,1.3686,1.3776,1.446,1.5168,1.5648,1.5746,1.6995,1.7973,1.8018,1.8371,1.843,1.796,1.8146,1.842,1.8595,1.8922,1.9182,1.9282,1.9471,1.9576,1.9603,1.972,1.9797,1.9809,1.9809,1.983,1.9871,1.979,1.9756,1.9778,1.9612,1.9481,1.9445,1.938,1.9305,-0.8778,-0.8778,-0.8778,-0.8778,-0.8778,-0.8778,-0.8778,-0.8778,-0.8778,-0.8883,-0.9087,-0.9588,-0.9795,-0.9795,-0.9795,-0.9795,-0.9718,-0.9106,-0.8778,-0.8778,-0.8778,-0.8778,-0.8778,-0.8778,-0.8778,-0.8778,-0.8778,-0.8778,-0.8778,-0.8778,-0.8692,-0.8507,-0.7969,-0.6875,-0.5261,-0.4676,-0.3883,-0.2888,-0.2704,-0.2623,-0.2546,-0.2035,-0.1758,-0.1555,-0.1014,-0.0477,0.0,0.058,0.089,0.0872,0.1587,0.2047,0.2164,0.2497,0.2679,0.2729,0.3081,0.3539,0.4118,0.4858,0.534,0.5428,0.5719,0.5765,0.5554,0.6328,0.691,0.7059,0.7797,0.8551,0.9091,0.9463,1.0124,1.1388,1.1312,1.1665,1.283,1.2797,1.3072,1.4299,1.4261,1.428,1.4891,1.5491,1.6068,1.6677,1.7758,1.8432,1.8338,1.8651,1.8678,1.831,1.8391,1.866,1.8715,1.9024,1.9259,1.9279,1.9502,1.9624,1.9682,1.9786,1.9899,1.995,1.9944,1.9986,2.0036,1.9943,1.9901,1.9924,1.9749,1.9594,1.9506,1.9394,1.9286,-0.8778,-0.8778,-0.8778,-0.8778,-0.8778,-0.8778,-0.8778,-0.8778,-0.8778,-0.9133,-0.9614,-0.9762,-0.9814,-0.9795,-0.984,-0.9865,-0.9762,-0.9113,-0.8804,-0.8778,-0.8778,-0.8778,-0.8778,-0.8778,-0.8778,-0.8778,-0.8778,-0.8725,-0.8725,-0.8725,-0.8454,-0.7889,-0.7723,-0.6563,-0.473,-0.4395,-0.3352,-0.1367,-0.1292,-0.153,-0.2027,-0.1903,-0.1556,-0.0984,-0.0405,-0.0062,0.0104,0.0991,0.1442,0.1311,0.1742,0.2203,0.257,0.2683,0.2699,0.2699,0.3085,0.3649,0.4468,0.5023,0.5467,0.5797,0.5867,0.5921,0.5867,0.6457,0.6781,0.6807,0.7348,0.8204,0.8798,0.9629,1.0435,1.1213,1.1812,1.244,1.2898,1.307,1.3353,1.389,1.4337,1.4485,1.4831,1.5836,1.6856,1.7446,1.8094,1.8537,1.8391,1.8698,1.894,1.8688,1.8798,1.8922,1.8984,1.915,1.9305,1.9324,1.9567,1.9731,1.9813,2.0011,2.0252,2.0153,2.0212,2.022,2.0212,2.0115,1.9998,1.9993,1.9832,1.9574,1.9405,1.9393,1.9396,-0.8778,-0.8778,-0.8778,-0.8778,-0.8778,-0.8778,-0.8778,-0.8778,-0.8778,-0.8962,-0.9237,-0.9614,-1.0218,-1.0956,-1.0956,-1.0788,-1.0372,-0.9692,-0.9159,-0.8831,-0.8778,-0.8778,-0.8778,-0.8778,-0.8778,-0.8752,-0.8374,-0.8129,-0.8076,-0.7723,-0.7122,-0.6406,-0.5991,-0.5058,-0.3776,-0.289,-0.1977,-0.1145,-0.0662,-0.0566,-0.0778,-0.0761,-0.0629,-0.0335,0.0214,0.0711,0.1083,0.1769,0.2088,0.2045,0.2437,0.2737,0.2904,0.2866,0.2815,0.2864,0.3374,0.3967,0.457,0.5248,0.5711,0.5882,0.6129,0.6259,0.6229,0.6098,0.6269,0.7195,0.8175,0.8974,0.9262,1.009,1.0887,1.14,1.2017,1.2746,1.3702,1.3664,1.3924,1.4744,1.4878,1.506,1.555,1.6454,1.732,1.7932,1.8381,1.8566,1.8669,1.8965,1.9099,1.9082,1.9204,1.9222,1.9102,1.9277,1.9423,1.9523,1.9725,1.9898,1.9948,2.0116,2.0288,2.0288,2.0288,2.0288,2.0281,2.0249,2.0184,2.0107,1.9925,1.9676,1.9502,1.9778,1.9947,-0.8778,-0.8778,-0.8778,-0.8778,-0.8778,-0.8778,-0.8778,-0.8778,-0.8778,-0.891,-0.9106,-0.9588,-1.044,-1.1391,-1.1341,-1.0965,-1.0491,-0.984,-0.9263,-0.8831,-0.8778,-0.8778,-0.8778,-0.8778,-0.8778,-0.8725,-0.8289,-0.791,-0.7643,-0.6966,-0.6231,-0.5483,-0.4758,-0.3935,-0.2954,-0.1703,-0.0978,-0.0755,0.0,0.0,0.0,0.0,0.0072,0.0273,0.0838,0.136,0.1787,0.2409,0.2651,0.2513,0.2891,0.312,0.3117,0.3003,0.2984,0.3144,0.3764,0.442,0.4914,0.5728,0.6313,0.657,0.6864,0.7031,0.6928,0.6522,0.6771,0.7922,0.9414,1.0223,0.9832,1.0626,1.1361,1.1793,1.2316,1.3048,1.3869,1.3855,1.4025,1.4928,1.4894,1.5359,1.6256,1.6939,1.7492,1.8065,1.842,1.8697,1.9012,1.9332,1.9649,1.9627,1.9815,1.9704,1.9319,1.9438,1.9636,1.9701,1.9852,1.9974,1.9998,2.0165,2.0288,2.0288,2.0288,2.0285,2.0281,2.0277,2.0182,2.0136,2.0085,2.0026,1.9933,2.0397,2.0903,-0.8778,-0.8778,-0.8778,-0.8778,-0.8785,-0.8818,-0.8791,-0.8838,-0.8811,-0.916,-0.9665,-0.9781,-1.0182,-1.0786,-1.0239,-0.9891,-0.9788,-0.9237,-0.891,-0.8804,-0.8778,-0.8778,-0.8778,-0.8778,-0.8778,-0.8778,-0.8533,-0.8129,-0.7471,-0.6858,-0.6231,-0.5397,-0.4566,-0.3605,-0.2341,-0.1452,-0.0727,-0.0196,0.0,0.0,0.0,0.0,0.0307,0.0863,0.144,0.1753,0.196,0.2753,0.3027,0.2527,0.2913,0.3134,0.3111,0.312,0.3256,0.3607,0.4214,0.495,0.5783,0.6505,0.726,0.8052,0.8153,0.8285,0.8219,0.8281,0.8507,0.894,1.078,1.1531,1.0639,1.1289,1.1927,1.2277,1.2797,1.3162,1.3288,1.3472,1.3476,1.4092,1.4649,1.5521,1.667,1.7076,1.7669,1.819,1.851,1.8804,1.9191,1.9883,2.0393,2.051,2.0589,2.0494,1.9787,1.9676,1.9761,1.9819,1.9917,2.0007,2.0073,2.0128,2.0237,2.0281,2.0269,2.026,2.0264,2.0173,2.0009,2.0106,2.0538,2.0568,2.0585,2.1236,2.173,-0.8778,-0.8778,-0.8778,-0.8778,-0.8798,-0.8978,-0.9058,-0.9105,-0.9285,-0.9499,-0.9716,-0.9743,-0.9876,-1.0083,-0.9637,-0.9573,-0.9751,-0.9536,-0.9211,-0.8831,-0.8778,-0.8778,-0.8778,-0.8778,-0.8778,-0.8672,-0.7857,-0.6519,-0.5066,-0.4663,-0.4165,-0.339,-0.2668,-0.1977,-0.1451,-0.0755,-0.0252,0.0,0.0,0.0,0.0,0.0467,0.0993,0.1561,0.1729,0.2215,0.306,0.3347,0.341,0.3212,0.3354,0.3415,0.3447,0.3665,0.3939,0.4262,0.4843,0.5609,0.6499,0.7079,0.7683,0.8306,0.8635,0.8801,0.8894,0.9362,0.9788,1.0192,1.1674,1.2385,1.2081,1.2316,1.2597,1.2505,1.286,1.321,1.3342,1.3766,1.4353,1.4968,1.5853,1.7043,1.7743,1.8243,1.854,1.9108,1.9676,1.9959,2.0081,2.0753,2.135,2.1472,2.1617,2.1525,2.0823,2.0194,1.9943,1.9992,2.005,2.0152,2.0214,2.0201,2.0273,2.0148,2.0143,2.0088,2.006,2.0143,1.9985,2.05,2.0935,2.1199,2.1371,2.2046,2.2528,-0.8978,-0.9072,-0.8958,-0.8945,-0.8938,-0.9097,-0.9176,-0.9244,-0.9552,-0.9715,-0.9715,-0.9715,-0.9715,-0.9659,-0.9437,-0.9432,-0.959,-0.9516,-0.9237,-0.8804,-0.8778,-0.8778,-0.8752,-0.856,-0.8454,-0.8203,-0.6934,-0.5347,-0.3889,-0.3481,-0.2982,-0.223,-0.1452,-0.109,-0.0979,-0.0364,0.0,0.0,0.0224,0.0,0.0448,0.109,0.1768,0.2311,0.229,0.274,0.3819,0.3724,0.3672,0.3646,0.3631,0.36,0.3634,0.4013,0.4393,0.4709,0.5331,0.6213,0.7233,0.7745,0.8264,0.8948,0.9254,0.9414,0.9487,1.0136,1.046,1.0744,1.1724,1.2561,1.2264,1.2425,1.2645,1.2517,1.2888,1.3216,1.326,1.3989,1.4888,1.5909,1.7029,1.8111,1.8945,1.9162,1.9509,2.0005,2.0615,2.0831,2.1071,2.1634,2.2248,2.2393,2.2473,2.2372,2.184,2.1171,2.037,2.0255,2.0139,2.0241,2.0249,2.0241,2.018,2.0046,1.9962,1.9882,1.9902,2.0037,2.0426,2.0966,2.1333,2.1615,2.2165,2.2885,2.3152,-0.9399,-0.9579,-0.9337,-0.9217,-0.9224,-0.925,-0.9216,-0.9331,-0.9619,-0.9816,-0.9836,-0.9775,-0.9786,-0.9755,-0.9713,-0.9554,-0.9334,-0.9133,-0.8944,-0.8818,-0.8778,-0.8778,-0.8752,-0.8129,-0.767,-0.753,-0.6222,-0.5093,-0.4128,-0.3503,-0.2871,-0.2119,-0.134,-0.0951,-0.1062,0.0,0.0,0.0,0.0643,0.1006,0.1174,0.1814,0.2534,0.3184,0.3171,0.3413,0.4011,0.388,0.3819,0.3778,0.3689,0.3607,0.367,0.4142,0.4581,0.4983,0.5743,0.6847,0.8001,0.8478,0.9107,0.9877,1.0234,1.0166,1.0279,1.0716,1.0897,1.0814,1.1417,1.1792,1.1505,1.1856,1.2227,1.2443,1.2843,1.3139,1.3313,1.3791,1.4848,1.6548,1.7618,1.8476,1.9304,1.9829,2.0245,2.0732,2.1086,2.1373,2.1861,2.2422,2.2956,2.3219,2.3156,2.2899,2.2572,2.2128,2.1224,2.0532,2.0352,2.0285,2.0201,2.0156,2.0031,1.9917,2.0075,2.0038,2.0519,2.0666,2.0935,2.1406,2.1718,2.2148,2.2776,2.335,2.3478,-0.9384,-0.9666,-0.9586,-0.9546,-0.9573,-0.976,-0.9817,-0.9844,-1.016,-1.0318,-1.0318,-1.0325,-1.0325,-1.0265,-1.008,-0.9927,-0.982,-0.9539,-0.9198,-0.8851,-0.8818,-0.8798,-0.8679,-0.8049,-0.7149,-0.6276,-0.576,-0.4573,-0.3141,-0.2702,-0.198,-0.0839,0.0,-0.0336,-0.0336,0.0,0.0,0.0,0.0727,0.109,0.1202,0.2341,0.3093,0.334,0.3808,0.4152,0.4314,0.408,0.393,0.3923,0.3805,0.3706,0.378,0.4508,0.5036,0.5307,0.6577,0.7668,0.8423,0.8973,0.9498,1.0147,1.0322,1.0467,1.0783,1.1226,1.156,1.1726,1.2389,1.2668,1.2645,1.3041,1.2943,1.2118,1.2437,1.2817,1.3077,1.3901,1.531,1.6866,1.78,1.8857,2.0131,2.0721,2.1045,2.1591,2.2074,2.2511,2.2685,2.2912,2.3354,2.3923,2.3667,2.3385,2.3208,2.2734,2.1869,2.1114,2.0764,2.0275,2.0133,2.0222,2.0069,2.0119,2.0233,2.0484,2.096,2.1316,2.1578,2.1907,2.229,2.2776,2.3323,2.3508,2.3545,-0.974,-1.0017,-0.9893,-0.9846,-0.986,-1.0047,-1.012,-1.016,-1.0466,-1.0586,-1.0586,-1.0586,-1.0586,-1.0553,-1.0392,-1.0214,-1.0077,-0.992,-0.9593,-0.9192,-0.9132,-0.9085,-0.8803,-0.7753,-0.6686,-0.5651,-0.5246,-0.4113,-0.2287,-0.2148,-0.1452,0.0,0.0,0.0,0.0364,0.042,0.0504,0.0839,0.1563,0.1924,0.2147,0.3121,0.3735,0.3818,0.4236,0.446,0.4474,0.4303,0.4158,0.4065,0.3958,0.3832,0.379,0.4723,0.535,0.5599,0.6677,0.7855,0.8586,0.899,0.9538,1.0127,1.0322,1.0409,1.0764,1.1207,1.1616,1.1708,1.2201,1.2654,1.2725,1.3151,1.3077,1.2529,1.2887,1.3156,1.349,1.4587,1.6004,1.7458,1.8487,1.9751,2.1006,2.1539,2.1859,2.24,2.287,2.3407,2.3416,2.3511,2.3933,2.4094,2.3688,2.3655,2.3889,2.3316,2.249,2.1827,2.1231,2.0563,2.0078,2.0418,2.0511,2.0819,2.1005,2.1089,2.1506,2.1833,2.2118,2.2498,2.2722,2.2821,2.3059,2.3271,2.33,-1.0281,-1.0539,-1.0254,-1.014,-1.014,-1.0137,-1.0174,-1.02,-1.0466,-1.0586,-1.0586,-1.0586,-1.0586,-1.0586,-1.0553,-1.0388,-1.018,-1.0154,-1.0013,-0.977,-0.9625,-0.9349,-0.8667,-0.7328,-0.6207,-0.5433,-0.4747,-0.3672,-0.2278,-0.2071,-0.1424,0.0,0.0,0.0364,0.0839,0.1062,0.1341,0.1981,0.2788,0.3148,0.3204,0.4015,0.4432,0.4432,0.446,0.4491,0.4481,0.4453,0.4395,0.4223,0.4072,0.3986,0.412,0.4944,0.5475,0.5532,0.6496,0.7635,0.848,0.8958,0.941,1.0303,1.0428,1.04,1.0711,1.1136,1.1282,1.1096,1.1622,1.2023,1.2218,1.2668,1.3084,1.3515,1.3787,1.4144,1.4834,1.5672,1.6541,1.7862,1.9313,2.0605,2.1744,2.2053,2.2401,2.287,2.3076,2.34,2.3866,2.3925,2.4137,2.4006,2.366,2.3795,2.4001,2.3577,2.2836,2.2678,2.2034,2.1283,2.0622,2.0897,2.1272,2.1575,2.1728,2.183,2.209,2.2479,2.2602,2.2702,2.2754,2.2633,2.2717,2.2957,2.3026,-1.0287,-1.0573,-1.0506,-1.0479,-1.0472,-1.0472,-1.0472,-1.0479,-1.0546,-1.0586,-1.0586,-1.0586,-1.0586,-1.0586,-1.0586,-1.0546,-1.0472,-1.0459,-1.0452,-1.0279,-0.9675,-0.8762,-0.78,-0.672,-0.578,-0.503,-0.4201,-0.3357,-0.2396,-0.1754,-0.0924,0.0,0.0,0.042,0.1006,0.1174,0.148,0.2174,0.2954,0.3342,0.3511,0.4098,0.4491,0.4491,0.4519,0.4515,0.4487,0.4491,0.4419,0.4237,0.4164,0.4368,0.4775,0.5471,0.6,0.6389,0.7585,0.8511,0.8782,0.9408,1.0118,1.0715,1.0764,1.1127,1.1815,1.1934,1.2097,1.2226,1.2565,1.2866,1.3342,1.3875,1.4434,1.4865,1.4617,1.4437,1.4845,1.5133,1.5763,1.6878,1.7993,1.9576,2.1097,2.1809,2.2093,2.2656,2.2923,2.3112,2.3697,2.3624,2.3569,2.385,2.3759,2.3903,2.3909,2.3547,2.3321,2.3389,2.295,2.2334,2.1859,2.1784,2.2156,2.2488,2.2399,2.2455,2.2909,2.3363,2.3243,2.2888,2.2717,2.2591,2.2577,2.2708,2.2721,-1.0408,-1.0586,-1.0586,-1.0586,-1.0586,-1.0586,-1.0586,-1.0586,-1.0586,-1.0586,-1.0586,-1.0586,-1.0586,-1.0586,-1.0586,-1.0586,-1.0586,-1.0586,-1.0579,-1.0396,-0.9314,-0.829,-0.7263,-0.6151,-0.523,-0.4712,-0.3585,-0.2641,-0.1933,-0.1352,-0.0568,0.0,0.0448,0.1006,0.2093,0.2037,0.2397,0.3121,0.3622,0.3846,0.3904,0.4267,0.4432,0.457,0.4736,0.5003,0.5304,0.5386,0.5202,0.4885,0.4778,0.5022,0.5615,0.6211,0.6625,0.6888,0.8067,0.8762,0.8985,0.9587,1.0157,1.063,1.0848,1.1365,1.1969,1.2326,1.2664,1.3046,1.3313,1.3773,1.4388,1.5064,1.5617,1.5861,1.5484,1.5147,1.5254,1.5484,1.5997,1.6908,1.7967,1.9239,2.118,2.1475,2.1946,2.2468,2.2733,2.3105,2.3523,2.316,2.3123,2.3596,2.3768,2.3847,2.3935,2.3702,2.3772,2.3878,2.3847,2.3233,2.2778,2.2572,2.2792,2.3022,2.3033,2.3096,2.3417,2.3544,2.3229,2.2904,2.2721,2.2563,2.2504,2.249,2.2477,-1.062,-1.0586,-1.062,-1.062,-1.06,-1.0586,-1.0586,-1.0586,-1.0586,-1.0586,-1.0586,-1.0586,-1.0493,-1.0506,-1.0559,-1.0583,-1.0455,-1.0584,-1.0359,-0.9696,-0.8495,-0.725,-0.6598,-0.5344,-0.4587,-0.4134,-0.2814,-0.1919,-0.1351,-0.1069,-0.0204,0.0716,0.1021,0.1911,0.2841,0.319,0.3707,0.4153,0.4294,0.4349,0.4349,0.446,0.4543,0.4814,0.5359,0.5846,0.6285,0.6453,0.6271,0.5783,0.5651,0.5931,0.6478,0.709,0.7298,0.7418,0.8064,0.8715,0.902,0.9442,0.9921,1.0498,1.0969,1.1413,1.2129,1.2667,1.3069,1.3596,1.392,1.4372,1.4979,1.5859,1.6225,1.6323,1.6336,1.6127,1.6002,1.6222,1.6784,1.7538,1.8712,1.9876,2.0911,2.1506,2.1772,2.2158,2.2445,2.2845,2.323,2.3254,2.3419,2.384,2.386,2.3725,2.3824,2.3857,2.4134,2.4347,2.4466,2.4112,2.3434,2.3254,2.3373,2.3455,2.3418,2.3369,2.3404,2.334,2.3069,2.2794,2.2514,2.2402,2.2324,2.2363,2.2377,-1.0794,-1.0613,-1.0841,-1.0801,-1.0613,-1.0586,-1.0593,-1.06,-1.06,-1.0633,-1.06,-1.0593,-1.029,-0.9802,-1.0477,-1.0529,-0.9948,-1.0366,-1.0159,-0.835,-0.6702,-0.5515,-0.4885,-0.4189,-0.3768,-0.303,-0.2055,-0.1429,-0.1131,-0.0462,0.0274,0.1142,0.1465,0.1944,0.3355,0.355,0.3707,0.4353,0.4529,0.4595,0.4615,0.4667,0.4908,0.5328,0.6009,0.6394,0.6534,0.6588,0.6804,0.6961,0.6767,0.6758,0.7301,0.7559,0.7765,0.8123,0.8581,0.8944,0.8998,0.9756,1.0566,1.1026,1.1654,1.2436,1.3344,1.3525,1.389,1.4294,1.4541,1.4922,1.5429,1.5658,1.6061,1.6324,1.616,1.6037,1.6252,1.6414,1.6829,1.7491,1.8098,1.9022,2.0533,2.0943,2.132,2.1772,2.2192,2.2541,2.2857,2.3195,2.3511,2.3845,2.3918,2.3805,2.396,2.406,2.4236,2.4447,2.459,2.4689,2.4031,2.3766,2.3832,2.3823,2.3765,2.3678,2.3459,2.3093,2.2797,2.2554,2.2363,2.2338,2.2313,2.2313,2.2391,-1.0612,-1.0788,-1.0961,-1.0861,-1.064,-1.0734,-1.0794,-1.0827,-1.0915,-1.0889,-1.0814,-1.0794,-1.0283,-0.9533,-1.0322,-1.0283,-0.9664,-0.986,-0.919,-0.7442,-0.592,-0.4665,-0.3411,-0.2945,-0.2442,-0.1903,-0.1125,-0.072,-0.0451,0.019,0.1029,0.1877,0.2144,0.309,0.4017,0.4089,0.4281,0.4713,0.5128,0.5266,0.5168,0.5542,0.5949,0.6431,0.6934,0.7235,0.7643,0.7637,0.783,0.7996,0.783,0.775,0.8103,0.8209,0.8364,0.8597,0.8962,0.9332,0.9589,1.0123,1.0833,1.1424,1.2213,1.3086,1.3932,1.4402,1.5002,1.5391,1.5577,1.571,1.5964,1.603,1.6238,1.6324,1.6216,1.6182,1.6436,1.65,1.6731,1.7291,1.7646,1.8608,1.9552,2.0385,2.1023,2.1564,2.2084,2.244,2.2665,2.2984,2.3288,2.3577,2.3806,2.3943,2.4126,2.4238,2.431,2.4389,2.4424,2.452,2.4276,2.4209,2.4229,2.4068,2.384,2.357,2.3335,2.2935,2.2612,2.244,2.2324,2.231,2.2313,2.2313,2.2426,-1.029,-1.0797,-1.0969,-1.0889,-1.072,-1.0921,-1.1042,-1.1096,-1.1263,-1.1002,-1.0804,-1.0791,-0.9886,-0.927,-0.9782,-0.9757,-0.923,-0.8495,-0.754,-0.6449,-0.489,-0.3668,-0.2476,-0.1709,-0.1208,-0.1006,-0.0234,0.0166,0.0425,0.1068,0.1956,0.2722,0.3345,0.3988,0.4669,0.4891,0.4937,0.522,0.5713,0.6146,0.6154,0.6697,0.7174,0.7553,0.7788,0.8082,0.8454,0.8586,0.8725,0.8778,0.8778,0.8778,0.8778,0.8804,0.891,0.8942,0.922,0.9604,1.0157,1.0608,1.1108,1.1659,1.2678,1.3518,1.4222,1.4986,1.5673,1.6141,1.6349,1.6349,1.65,1.6436,1.6436,1.65,1.65,1.6513,1.6513,1.6534,1.6795,1.736,1.7727,1.843,1.9299,2.0129,2.0749,2.1336,2.1868,2.2304,2.2537,2.2822,2.3153,2.3482,2.3756,2.3996,2.418,2.4218,2.4312,2.4339,2.4321,2.4293,2.4321,2.4154,2.4047,2.3998,2.3795,2.3477,2.3147,2.2811,2.2531,2.2366,2.2313,2.2313,2.2313,2.2313,2.2463,-1.0101,-0.9822,-1.0905,-1.1189,-1.0955,-1.0982,-1.1149,-1.1296,-1.1202,-1.0644,-0.9983,-0.9678,-0.8882,-0.7941,-0.8364,-0.8626,-0.81,-0.71,-0.6011,-0.5058,-0.3434,-0.1908,-0.1641,-0.0839,-0.0303,0.0,0.0638,0.1068,0.1231,0.2027,0.2832,0.357,0.3924,0.4391,0.4932,0.5023,0.5502,0.6032,0.641,0.6757,0.7146,0.7417,0.7736,0.8143,0.8375,0.8573,0.8699,0.8778,0.8778,0.8778,0.8778,0.8778,0.8778,0.8778,0.9061,0.947,0.9669,1.0045,1.0665,1.1225,1.1573,1.2037,1.2993,1.3944,1.4609,1.5235,1.5926,1.6305,1.6513,1.6513,1.6513,1.6513,1.6513,1.6513,1.6513,1.6513,1.6513,1.6565,1.6879,1.7565,1.7894,1.819,1.8985,1.9798,2.0485,2.1054,2.1567,2.2046,2.2388,2.2742,2.3112,2.3448,2.3785,2.4006,2.4199,2.4199,2.4237,2.4256,2.4219,2.4067,2.4019,2.385,2.3735,2.3621,2.3448,2.3165,2.2853,2.2567,2.2368,2.2163,2.2209,2.2282,2.2313,2.2324,2.249,-0.988,-1.009,-1.1207,-1.149,-1.1276,-1.1417,-1.1523,-1.1643,-1.1657,-1.1,-1.0152,-0.9681,-0.8615,-0.7488,-0.7754,-0.7749,-0.661,-0.5933,-0.4827,-0.3735,-0.2174,-0.1307,-0.1173,-0.0404,0.0235,0.0806,0.1508,0.1708,0.1507,0.2741,0.358,0.4099,0.4765,0.5521,0.5968,0.6423,0.6639,0.7161,0.753,0.785,0.8171,0.8299,0.8547,0.8685,0.8735,0.8771,0.8778,0.8778,0.8778,0.8778,0.8778,0.8778,0.8778,0.8883,0.9133,0.971,1.0115,1.0618,1.1166,1.169,1.2058,1.287,1.3758,1.448,1.5118,1.572,1.616,1.6392,1.6513,1.6513,1.6513,1.6513,1.6513,1.6513,1.6513,1.6513,1.6513,1.6513,1.6993,1.7605,1.7706,1.8007,1.8559,1.9353,2.0164,2.0781,2.129,2.1749,2.2194,2.2634,2.3028,2.3437,2.3774,2.4036,2.4199,2.4199,2.4199,2.4199,2.4151,2.4006,2.3806,2.3682,2.3392,2.3153,2.2972,2.2822,2.2481,2.2161,2.2053,2.1988,2.1988,2.2049,2.2225,2.2363,2.2514,-0.9606,-1.0179,-1.1394,-1.1625,-1.1292,-1.1468,-1.1462,-1.1437,-1.1436,-1.0665,-0.9704,-0.9339,-0.8229,-0.7034,-0.6848,-0.6588,-0.5061,-0.4866,-0.3803,-0.2541,-0.1475,-0.1006,-0.0806,-0.0336,0.0404,0.1208,0.211,0.241,0.2476,0.3544,0.4245,0.4968,0.6158,0.685,0.7019,0.7413,0.7989,0.8452,0.8865,0.917,0.9224,0.9291,0.9428,0.9459,0.9254,0.9163,0.9349,0.9159,0.9087,0.9035,0.8903,0.8778,0.8804,0.8936,0.9316,0.9935,1.0509,1.1166,1.1848,1.2258,1.2783,1.3521,1.4422,1.505,1.5499,1.5986,1.6479,1.6513,1.6513,1.6513,1.6513,1.6513,1.6513,1.6513,1.6513,1.6522,1.6543,1.6637,1.6921,1.7291,1.7415,1.7927,1.8598,1.9177,2.0022,2.0517,2.1039,2.1491,2.1943,2.2497,2.2935,2.338,2.3746,2.4074,2.4199,2.4199,2.4199,2.4199,2.4123,2.4006,2.3774,2.3555,2.3218,2.2853,2.2678,2.2523,2.2147,2.1962,2.2058,2.2017,2.1823,2.1884,2.218,2.2377,2.2535,-0.916,-0.9161,-1.106,-1.1375,-1.0587,-1.0593,-1.0219,-0.9707,-0.9527,-0.8675,-0.8034,-0.753,-0.6885,-0.6048,-0.5718,-0.513,-0.4217,-0.3374,-0.2541,-0.1442,-0.0672,-0.0236,-0.0135,-0.0101,0.0775,0.1648,0.2447,0.3078,0.3613,0.4619,0.5547,0.6195,0.6486,0.7079,0.7859,0.8215,0.8388,0.9043,0.9268,0.9665,1.0209,1.0127,1.0222,1.0364,1.0287,1.0155,1.0239,0.9917,0.9658,0.9569,0.9113,0.8857,0.8883,0.9387,0.9994,1.0466,1.0897,1.1384,1.2501,1.2977,1.3403,1.398,1.4755,1.5387,1.5798,1.6151,1.6513,1.6513,1.6513,1.6513,1.6513,1.6513,1.6513,1.6513,1.6513,1.6513,1.6543,1.6858,1.7105,1.7483,1.7767,1.8263,1.8841,1.9358,1.9874,2.0314,2.0765,2.1228,2.1774,2.2374,2.296,2.3437,2.3806,2.4103,2.4199,2.4199,2.4199,2.4199,2.4123,2.4006,2.3649,2.3335,2.297,2.2656,2.249,2.2385,2.2215,2.2147,2.2194,2.2063,2.1869,2.2003,2.2268,2.2419,2.2571,-0.8373,-0.8365,-0.9813,-1.0188,-0.9813,-0.9781,-0.9612,-0.9336,-0.9153,-0.8477,-0.763,-0.7303,-0.6675,-0.5719,-0.5102,-0.4217,-0.3313,-0.2398,-0.1442,0.0,0.0,0.0,0.0786,0.0882,0.1381,0.2661,0.3309,0.3946,0.4686,0.5226,0.5848,0.6691,0.7242,0.7897,0.871,0.923,0.9614,0.9945,1.0104,1.0478,1.0961,1.1011,1.0982,1.1351,1.1122,1.0965,1.0784,1.0585,1.0133,0.9891,0.9465,0.9159,0.9061,0.9439,1.009,1.072,1.1191,1.1857,1.2764,1.3166,1.3658,1.4224,1.488,1.531,1.5898,1.6315,1.6513,1.6513,1.6513,1.6522,1.6522,1.6513,1.6513,1.6534,1.6586,1.6522,1.6616,1.7034,1.734,1.7747,1.8151,1.865,1.908,1.9482,1.9894,2.0278,2.0748,2.1197,2.1813,2.2491,2.3052,2.3577,2.3907,2.418,2.4199,2.4199,2.4199,2.4199,2.4199,2.3958,2.3459,2.3099,2.2819,2.2571,2.2388,2.2324,2.2282,2.212,2.1988,2.1928,2.1899,2.2061,2.2265,2.2527,2.2768,-0.7437,-0.7557,-0.877,-0.9183,-0.8917,-0.8922,-0.8727,-0.8542,-0.8461,-0.8001,-0.7397,-0.706,-0.6438,-0.548,-0.4515,-0.3629,-0.2464,-0.1656,-0.082,0.0,0.0,0.0,0.114,0.1507,0.2338,0.4294,0.4028,0.4722,0.549,0.5914,0.6303,0.7055,0.7929,0.8742,0.9556,1.0104,1.0523,1.0856,1.0888,1.1313,1.1912,1.1881,1.1913,1.2005,1.192,1.1686,1.1386,1.1091,1.0737,1.0517,1.0141,0.9788,0.9361,0.9788,1.0287,1.0864,1.1341,1.2064,1.2706,1.319,1.3705,1.4387,1.513,1.57,1.625,1.6513,1.6513,1.6513,1.6513,1.6565,1.668,1.6744,1.6774,1.6808,1.6786,1.6659,1.6667,1.725,1.7666,1.7973,1.8419,1.8968,1.9354,1.9645,1.9982,2.0296,2.0699,2.1197,2.1886,2.2626,2.3052,2.3555,2.3937,2.417,2.4199,2.4199,2.4199,2.4199,2.4199,2.3937,2.3426,2.3117,2.2903,2.2647,2.2391,2.2388,2.2436,2.2084,2.1777,2.1943,2.2075,2.2075,2.2243,2.2556,2.296,-0.6416,-0.6567,-0.8466,-0.8694,-0.7893,-0.7936,-0.7365,-0.6795,-0.6641,-0.6633,-0.6472,-0.6136,-0.5479,-0.4533,-0.4,-0.3006,-0.1485,-0.1339,-0.0712,0.0,0.0,0.0,0.1473,0.2108,0.2779,0.4423,0.485,0.5627,0.6543,0.7056,0.7388,0.7927,0.8652,0.9606,1.0238,1.0649,1.1076,1.1437,1.1648,1.2143,1.2696,1.2846,1.2898,1.286,1.2833,1.2768,1.2704,1.2128,1.1671,1.1495,1.088,1.0381,0.9969,1.0261,1.0686,1.104,1.1625,1.227,1.2788,1.3286,1.3967,1.4766,1.5567,1.6185,1.6457,1.6513,1.6513,1.6543,1.6616,1.6829,1.7068,1.7263,1.725,1.725,1.7222,1.7118,1.725,1.7706,1.8086,1.8283,1.8708,1.9281,1.963,1.9914,2.0019,2.0314,2.091,2.1384,2.2074,2.2764,2.3045,2.3448,2.3907,2.4141,2.419,2.4199,2.4199,2.4199,2.4199,2.3865,2.3403,2.3183,2.3099,2.2768,2.2558,2.2563,2.2573,2.2422,2.2303,2.226,2.229,2.2446,2.2616,2.2928,2.3265,-0.63,-0.6374,-0.7138,-0.7249,-0.6872,-0.6872,-0.6683,-0.6335,-0.63,-0.63,-0.6215,-0.5532,-0.4947,-0.4284,-0.3026,-0.2269,-0.1412,-0.0732,-0.0326,0.0107,0.0,0.1428,0.2257,0.3254,0.4268,0.585,0.627,0.6789,0.7978,0.8389,0.8914,0.9321,0.9405,0.9817,1.0396,1.1003,1.1437,1.1803,1.232,1.2909,1.3575,1.3738,1.3864,1.4072,1.408,1.3878,1.3607,1.3151,1.2681,1.2139,1.1353,1.0879,1.0566,1.0812,1.104,1.1391,1.203,1.2535,1.2798,1.3224,1.3658,1.4744,1.5756,1.65,1.6479,1.6513,1.6513,1.6629,1.6888,1.7222,1.7229,1.7578,1.7787,1.7787,1.7727,1.7626,1.7767,1.8185,1.8535,1.8712,1.914,1.9678,1.9949,2.0195,2.0246,2.035,2.0991,2.164,2.2337,2.289,2.3206,2.3459,2.3907,2.4141,2.419,2.4199,2.4199,2.4199,2.419,2.3876,2.3533,2.3533,2.341,2.3044,2.2794,2.2878,2.2928,2.289,2.2819,2.2721,2.2824,2.2982,2.3165,2.3306,2.3562,-0.63,-0.63,-0.63,-0.63,-0.63,-0.63,-0.63,-0.63,-0.63,-0.6064,-0.5786,-0.5002,-0.4258,-0.35,-0.2426,-0.1375,-0.099,-0.0377,0.0149,0.0625,0.1203,0.227,0.3385,0.4523,0.5627,0.7294,0.7979,0.8389,0.9246,0.9891,1.0165,1.0198,1.0104,1.0335,1.0649,1.1143,1.1562,1.1958,1.2604,1.3394,1.4055,1.4462,1.4492,1.474,1.4681,1.4437,1.4085,1.3694,1.3441,1.2917,1.2301,1.1652,1.1438,1.1403,1.1559,1.1956,1.2427,1.2891,1.2939,1.32,1.3634,1.4652,1.5555,1.6173,1.6445,1.6513,1.6513,1.6586,1.7118,1.7578,1.7504,1.8007,1.8302,1.8341,1.8341,1.8249,1.8255,1.8526,1.8864,1.9163,1.9687,2.0278,2.0551,2.083,2.11,2.127,2.1833,2.233,2.269,2.3159,2.3421,2.3682,2.3947,2.4103,2.4199,2.4199,2.4199,2.4199,2.417,2.4006,2.3795,2.3785,2.3617,2.3195,2.3075,2.3212,2.3259,2.3277,2.323,2.3171,2.323,2.3253,2.3421,2.3562,2.3764,-0.6296,-0.63,-0.63,-0.63,-0.63,-0.63,-0.63,-0.6257,-0.618,-0.567,-0.4924,-0.4569,-0.3478,-0.219,-0.1558,-0.0974,0.0,0.0,0.0424,0.1209,0.168,0.2855,0.4278,0.5578,0.6688,0.7778,0.8703,0.9579,1.0401,1.0617,1.0893,1.1097,1.098,1.0797,1.0949,1.0759,1.1052,1.1834,1.2696,1.3515,1.4302,1.4932,1.5032,1.4934,1.4902,1.4697,1.4453,1.4192,1.3997,1.3803,1.3174,1.2639,1.2397,1.2389,1.2264,1.2021,1.2597,1.293,1.3027,1.3498,1.4057,1.4686,1.5511,1.6073,1.6414,1.6513,1.6586,1.6723,1.7209,1.776,1.8106,1.8535,1.8765,1.8958,1.8977,1.9074,1.9096,1.9211,1.9606,1.9816,2.0417,2.0991,2.1258,2.1562,2.1953,2.231,2.28,2.3076,2.32,2.3357,2.3617,2.3845,2.4046,2.4113,2.4199,2.4199,2.4199,2.4199,2.4161,2.4036,2.3937,2.3876,2.3639,2.3323,2.338,2.3555,2.3621,2.3664,2.361,2.3544,2.341,2.3432,2.3617,2.3821,2.4049,-0.6166,-0.63,-0.63,-0.63,-0.63,-0.63,-0.6296,-0.618,-0.5589,-0.4999,-0.4414,-0.3402,-0.2388,-0.1568,-0.0863,-0.0353,0.0,0.0,0.0583,0.1624,0.221,0.3324,0.4771,0.63,0.7634,0.8784,0.9809,1.0691,1.1664,1.1528,1.1668,1.1888,1.1607,1.1076,1.0982,1.1073,1.1803,1.2604,1.3394,1.4204,1.4894,1.5225,1.5342,1.5176,1.5176,1.5068,1.4893,1.466,1.457,1.4408,1.3765,1.3122,1.2941,1.2924,1.2419,1.2482,1.3086,1.3681,1.4043,1.445,1.4337,1.4912,1.5545,1.6151,1.6479,1.6513,1.668,1.6993,1.7381,1.7947,1.8549,1.9095,1.9427,1.9778,1.9904,2.0095,2.0198,2.0368,2.06,2.0616,2.0975,2.1457,2.1797,2.2296,2.2732,2.2912,2.3282,2.3414,2.3522,2.3577,2.3735,2.3976,2.4161,2.418,2.4199,2.4199,2.4199,2.4199,2.4199,2.4161,2.4074,2.3986,2.3955,2.3774,2.3827,2.3896,2.3929,2.3969,2.3986,2.3925,2.3899,2.38,2.3886,2.4134,2.4386,-0.6091,-0.6183,-0.6279,-0.606,-0.5786,-0.5747,-0.555,-0.5118,-0.4453,-0.3984,-0.3361,-0.2113,-0.1372,-0.0941,-0.0392,0.0353,0.0471,0.0588,0.1566,0.2538,0.3237,0.4284,0.5519,0.6829,0.8021,0.9309,1.0346,1.1267,1.2124,1.2261,1.2417,1.2464,1.2256,1.2117,1.1879,1.2009,1.2112,1.2909,1.3674,1.4323,1.4844,1.5177,1.541,1.5391,1.5391,1.5371,1.5322,1.5176,1.499,1.4626,1.4122,1.3486,1.3501,1.3272,1.2871,1.3291,1.3596,1.4108,1.4392,1.5171,1.5159,1.5348,1.593,1.6241,1.6436,1.6513,1.6816,1.7167,1.7686,1.8232,1.8874,1.945,1.9904,2.0224,2.04,2.0566,2.0862,2.0991,2.1166,2.1197,2.1547,2.1967,2.243,2.2998,2.3522,2.3628,2.3732,2.3764,2.3806,2.3837,2.3886,2.4064,2.4208,2.419,2.4199,2.4199,2.4199,2.4199,2.4199,2.4199,2.419,2.4103,2.417,2.4218,2.414,2.4112,2.4201,2.4257,2.4338,2.4487,2.4626,2.4487,2.4283,2.4476,2.4791,-0.5986,-0.6013,-0.619,-0.5622,-0.4844,-0.4608,-0.4023,-0.3164,-0.3085,-0.254,-0.1684,-0.1645,-0.098,-0.0196,0.0079,0.0628,0.1411,0.1528,0.2778,0.3908,0.4315,0.5229,0.6198,0.7379,0.8433,0.9384,1.0415,1.1583,1.2268,1.2592,1.2884,1.3189,1.3259,1.3313,1.3203,1.3035,1.2888,1.3402,1.3825,1.4362,1.4746,1.5118,1.5352,1.542,1.542,1.542,1.5391,1.5332,1.5332,1.5157,1.4903,1.4757,1.4609,1.4328,1.4182,1.4114,1.4114,1.427,1.4867,1.5795,1.6249,1.6384,1.6161,1.6232,1.6365,1.6644,1.6871,1.7669,1.8404,1.8683,1.9075,1.9582,2.0086,2.0289,2.0466,2.0764,2.1134,2.1353,2.1552,2.1818,2.2279,2.2729,2.3194,2.3732,2.3938,2.3955,2.3976,2.3996,2.4026,2.4046,2.4084,2.4094,2.419,2.4199,2.4199,2.4199,2.4199,2.4199,2.4199,2.4199,2.4199,2.4199,2.4199,2.4218,2.4273,2.4376,2.4681,2.4764,2.4764,2.4985,2.5544,2.5187,2.4977,2.5032,2.5337,-0.5928,-0.5918,-0.5394,-0.4999,-0.4525,-0.3127,-0.2696,-0.3007,-0.2386,-0.1802,-0.1567,-0.0785,0.0,0.0039,0.0784,0.1254,0.1762,0.2425,0.3437,0.4297,0.4885,0.5473,0.6514,0.7855,0.8841,0.9782,1.0832,1.1848,1.2372,1.2806,1.3266,1.3575,1.415,1.4605,1.4752,1.4678,1.4297,1.4039,1.4282,1.4538,1.4854,1.5264,1.542,1.542,1.542,1.542,1.542,1.542,1.542,1.5342,1.501,1.4805,1.4756,1.4377,1.4172,1.4561,1.4729,1.5074,1.6266,1.6592,1.6925,1.7606,1.7592,1.7263,1.7142,1.6926,1.7042,1.808,1.9404,1.9981,1.9958,2.0195,2.0571,2.0782,2.1036,2.1422,2.1798,2.2127,2.2321,2.24,2.2859,2.3151,2.3656,2.4029,2.4186,2.4205,2.4254,2.4346,2.4236,2.4254,2.4199,2.4199,2.4199,2.4199,2.4199,2.4199,2.4199,2.4199,2.4199,2.4199,2.4199,2.4199,2.4199,2.4401,2.4732,2.5051,2.5334,2.5437,2.5606,2.6243,2.6723,2.6149,2.5729,2.5859,2.6236,-0.4895,-0.5154,-0.4417,-0.3841,-0.3229,-0.1699,-0.1358,-0.1719,-0.1214,-0.098,-0.0863,-0.0314,0.0,0.0,0.1058,0.1802,0.2347,0.332,0.4373,0.5196,0.5315,0.6089,0.7207,0.8118,0.9064,1.004,1.0944,1.1737,1.2402,1.32,1.3766,1.4419,1.503,1.5514,1.5784,1.5894,1.5824,1.5386,1.516,1.5202,1.5293,1.5449,1.542,1.543,1.543,1.542,1.542,1.542,1.542,1.541,1.5098,1.5049,1.5039,1.4767,1.4679,1.5029,1.5077,1.5459,1.6238,1.6923,1.7577,1.8243,1.8647,1.8557,1.7804,1.7285,1.7878,1.8744,2.0309,2.1423,2.1129,2.0926,2.1155,2.1388,2.1793,2.2227,2.2603,2.2998,2.3071,2.3041,2.3232,2.3459,2.382,2.4218,2.4586,2.4839,2.5034,2.5162,2.4814,2.4392,2.4281,2.4199,2.4199,2.4199,2.4236,2.4291,2.4254,2.4254,2.4199,2.4199,2.4218,2.4328,2.4447,2.4879,2.5411,2.5754,2.6197,2.6449,2.67,2.7323,2.7793,2.7547,2.7123,2.6871,2.7406,-0.3399,-0.4054,-0.3302,-0.2429,-0.1389,0.0,0.0,0.0,0.0,0.0,0.0,0.0,0.0,0.051,0.1449,0.2462,0.3322,0.4336,0.5196,0.6296,0.6405,0.6907,0.7437,0.8118,0.9475,1.0409,1.1162,1.1811,1.2482,1.3419,1.4486,1.5234,1.6218,1.6627,1.6514,1.6988,1.6911,1.6465,1.616,1.6072,1.5673,1.5557,1.5459,1.5488,1.5459,1.542,1.542,1.542,1.542,1.5381,1.5371,1.5371,1.5313,1.5293,1.5342,1.5342,1.5322,1.5602,1.612,1.6742,1.7429,1.8124,1.8864,1.9105,1.8546,1.8042,1.8616,1.9543,2.1012,2.1708,2.1589,2.1739,2.2004,2.2185,2.2508,2.2955,2.3392,2.371,2.386,2.389,2.4064,2.4286,2.4536,2.4994,2.5364,2.5601,2.5731,2.5897,2.5658,2.4997,2.4722,2.4566,2.4548,2.4603,2.4566,2.4566,2.4383,2.4309,2.43,2.4438,2.4603,2.4667,2.4722,2.5401,2.6137,2.6673,2.7092,2.7446,2.7812,2.8146,2.855,2.8834,2.8628,2.8182,2.8413,-0.3011,-0.3141,-0.2305,-0.1373,0.0,-0.0112,0.0,0.0,0.0,0.0,0.0,0.0,0.0471,0.1215,0.2268,0.3279,0.4258,0.516,0.5948,0.6525,0.6907,0.7442,0.8161,0.9173,1.0228,1.0826,1.1465,1.2063,1.2835,1.3954,1.4922,1.5411,1.6611,1.7387,1.72,1.7692,1.7555,1.7227,1.708,1.6797,1.6465,1.6084,1.5938,1.5791,1.5693,1.5459,1.543,1.542,1.542,1.541,1.541,1.541,1.541,1.542,1.542,1.542,1.5468,1.5729,1.6179,1.6782,1.744,1.8151,1.8862,1.9193,1.9268,1.9096,1.946,2.0475,2.1296,2.1837,2.2243,2.2525,2.2805,2.2982,2.3274,2.3749,2.4239,2.4464,2.4671,2.4778,2.4947,2.5174,2.5404,2.5717,2.611,2.6306,2.6363,2.6465,2.6484,2.608,2.5731,2.554,2.5227,2.5172,2.5099,2.5081,2.4997,2.4704,2.463,2.4777,2.5044,2.5493,2.5915,2.6337,2.6914,2.7451,2.8073,2.8715,2.903,2.9086,2.9295,2.957,2.9749,2.9449,2.9673,-0.1832,-0.2063,-0.1243,-0.0573,0.0,0.0,0.0,0.0,0.0468,0.0706,0.0706,0.0745,0.1058,0.1919,0.3086,0.3982,0.4882,0.5789,0.6141,0.6563,0.7365,0.8012,0.8988,1.011,1.0901,1.1502,1.1996,1.2592,1.352,1.4378,1.5305,1.5904,1.726,1.7837,1.7613,1.7696,1.79,1.7666,1.7637,1.748,1.7168,1.6748,1.6271,1.6045,1.588,1.5615,1.543,1.542,1.542,1.542,1.542,1.542,1.542,1.542,1.542,1.5526,1.5719,1.6065,1.651,1.709,1.7704,1.8421,1.9097,1.9542,1.9774,1.9686,2.0351,2.1323,2.2357,2.2964,2.3032,2.3268,2.345,2.3647,2.4278,2.4892,2.5433,2.5863,2.5764,2.5547,2.5715,2.5877,2.6123,2.6398,2.68,2.7251,2.7273,2.7281,2.7244,2.7134,2.6814,2.6568,2.6292,2.6007,2.5915,2.5878,2.5823,2.5493,2.5071,2.5493,2.597,2.6631,2.72,2.7365,2.7684,2.8281,2.8925,2.9345,2.9622,2.9626,2.9921,3.0271,3.0404,3.0404,3.0315,-0.0512,-0.0973,-0.0349,0.0,0.0,0.0,0.0,0.0389,0.1175,0.1646,0.1841,0.1997,0.1997,0.2699,0.3673,0.4414,0.5157,0.5944,0.6257,0.6868,0.7668,0.8651,0.9631,1.0571,1.1539,1.2211,1.2622,1.3702,1.4843,1.5446,1.5974,1.668,1.7182,1.7613,1.7251,1.7467,1.7949,1.793,1.792,1.7959,1.7656,1.7213,1.668,1.6349,1.6085,1.586,1.5557,1.542,1.542,1.542,1.542,1.542,1.542,1.542,1.5584,1.5729,1.6093,1.6436,1.6877,1.7622,1.8194,1.8794,1.9397,1.9734,1.9914,2.0533,2.1207,2.1955,2.3002,2.3713,2.3773,2.3986,2.4144,2.4471,2.5226,2.5895,2.6462,2.6963,2.6673,2.6355,2.6566,2.6731,2.6907,2.7176,2.7495,2.7972,2.8157,2.8205,2.8187,2.8033,2.7813,2.764,2.7457,2.7181,2.6851,2.6722,2.6667,2.6245,2.5952,2.6392,2.6888,2.7512,2.7915,2.8044,2.846,2.8813,2.9116,2.9429,2.972,2.9928,3.0196,3.0379,3.0404,3.0404,3.0404,-0.0101,-0.0238,0.0,0.0,0.0,0.0,0.0482,0.1219,0.1517,0.1996,0.2891,0.375,0.4103,0.4103,0.4377,0.5002,0.5786,0.6335,0.6945,0.7591,0.8537,0.9556,1.0527,1.1422,1.2469,1.3091,1.352,1.4199,1.5367,1.6009,1.6428,1.6749,1.7579,1.7872,1.7862,1.8008,1.8008,1.8008,1.8008,1.8008,1.79,1.751,1.708,1.666,1.6271,1.585,1.5537,1.543,1.542,1.542,1.542,1.542,1.542,1.5439,1.5671,1.6093,1.6492,1.6922,1.7457,1.7977,1.8474,1.8874,1.9307,1.9501,1.9991,2.0939,2.153,2.2035,2.3025,2.4059,2.4382,2.4725,2.4976,2.5471,2.61,2.6518,2.7012,2.7236,2.7215,2.7349,2.7674,2.7756,2.7808,2.7989,2.8136,2.8439,2.8409,2.8469,2.8564,2.8629,2.8675,2.8546,2.8381,2.8136,2.7714,2.7585,2.7457,2.7016,2.6804,2.7189,2.7684,2.8308,2.865,2.8655,2.8724,2.8979,2.928,2.957,2.9678,2.9893,3.0189,3.0373,3.0398,3.0558,3.0692]}]]